Time,TemperatureF,DewpointF,PressureIn,WindDirection,WindDirectionDegrees,WindSpeedMPH,WindSpeedGustMPH,Humidity,HourlyPrecipIn,Conditions,Clouds,dailyrainin,SolarRadiationWatts/m^2,SoftwareType,DateUTC
2013-08-18 00:00:00,73.7,73.1,29.87,NW,314,4.0,5.0,98,0.08,,,0.30,0.00,VWS V14.00,2013-08-18 05:00:00,
2013-08-18 00:01:00,73.7,73.1,29.87,NW,314,3.0,5.0,98,0.01,,,0.00,0.00,VWS V14.00,2013-08-18 05:01:00,
2013-08-18 00:02:00,73.7,73.1,29.87,NW,314,3.0,5.0,98,0.01,,,0.00,0.00,VWS V14.00,2013-08-18 05:02:00,
2013-08-18 00:03:00,73.7,73.1,29.87,NW,314,2.0,5.0,98,0.01,,,0.00,0.00,VWS V14.00,2013-08-18 05:03:00,
2013-08-18 00:04:00,73.5,72.9,29.87,NW,314,2.0,5.0,98,0.01,,,0.00,0.00,VWS V14.00,2013-08-18 05:04:00,
2013-08-18 00:05:00,73.5,72.9,29.87,NW,314,0.0,5.0,98,0.01,,,0.00,0.00,VWS V14.00,2013-08-18 05:05:00,
2013-08-18 00:06:00,73.5,72.9,29.87,NW,314,0.0,5.0,98,0.01,,,0.00,0.00,VWS V14.00,2013-08-18 05:06:00,
2013-08-18 00:07:00,73.5,72.9,29.87,NW,314,4.0,5.0,98,0.01,,,0.00,0.00,VWS V14.00,2013-08-18 05:07:00,
2013-08-18 00:08:00,73.5,72.9,29.87,NW,314,1.0,5.0,98,0.01,,,0.00,0.00,VWS V14.00,2013-08-18 05:08:00,
2013-08-18 00:09:00,73.5,72.9,29.87,NW,314,0.0,5.0,98,0.01,,,0.00,0.00,VWS V14.00,2013-08-18 05:09:00,
2013-08-18 00:10:00,73.5,73.2,29.87,NW,314,2.0,5.0,99,0.02,,,0.01,0.00,VWS V14.00,2013-08-18 05:10:00,
2013-08-18 00:11:00,73.5,73.2,29.87,NW,314,2.0,5.0,99,0.02,,,0.01,0.00,VWS V14.00,2013-08-18 05:11:00,
2013-08-18 00:12:00,73.5,73.2,29.87,NW,314,0.0,5.0,99,0.03,,,0.02,0.00,VWS V14.00,2013-08-18 05:12:00,
2013-08-18 00:13:00,73.5,73.2,29.87,NW,314,0.0,5.0,99,0.04,,,0.03,0.00,VWS V14.00,2013-08-18 05:13:00,
2013-08-18 00:14:00,73.5,73.2,29.87,NW,314,1.0,5.0,99,0.06,,,0.05,0.00,VWS V14.00,2013-08-18 05:14:00,
2013-08-18 00:15:00,73.5,73.2,29.87,NW,314,1.0,5.0,99,0.08,,,0.07,0.00,VWS V14.00,2013-08-18 05:15:00,
2013-08-18 00:16:00,73.5,73.2,29.87,NW,314,3.0,5.0,99,0.08,,,0.07,0.00,VWS V14.00,2013-08-18 05:16:00,
2013-08-18 00:17:00,73.3,73.0,29.87,NW,314,0.0,5.0,99,0.11,,,0.10,0.00,VWS V14.00,2013-08-18 05:17:00,
2013-08-18 00:18:00,73.3,73.0,29.87,NNW,327,2.0,5.0,99,0.13,,,0.12,0.00,VWS V14.00,2013-08-18 05:18:00,
2013-08-18 00:19:00,73.3,73.0,29.87,NNW,327,1.0,5.0,99,0.14,,,0.13,0.00,VWS V14.00,2013-08-18 05:19:00,
2013-08-18 00:20:00,73.3,73.0,29.87,NNE,19,0.0,5.0,99,0.15,,,0.14,0.00,VWS V14.00,2013-08-18 05:20:00,
2013-08-18 00:21:00,73.3,73.0,29.87,NNE,19,0.0,5.0,99,0.17,,,0.16,0.00,VWS V14.00,2013-08-18 05:21:00,
2013-08-18 00:22:00,73.3,73.0,29.87,NNE,19,2.0,5.0,99,0.17,,,0.16,0.00,VWS V14.00,2013-08-18 05:22:00,
2013-08-18 00:23:00,73.3,73.0,29.87,NW,313,4.0,5.0,99,0.19,,,0.18,0.00,VWS V14.00,2013-08-18 05:23:00,
2013-08-18 00:24:00,73.3,73.0,29.87,NNE,12,2.0,5.0,99,0.20,,,0.19,0.00,VWS V14.00,2013-08-18 05:24:00,
2013-08-18 00:25:00,73.3,73.0,29.87,NNW,340,3.0,6.0,99,0.21,,,0.20,0.00,VWS V14.00,2013-08-18 05:25:00,
2013-08-18 00:26:00,73.3,73.0,29.87,NNW,328,2.0,7.0,99,0.22,,,0.21,0.00,VWS V14.00,2013-08-18 05:26:00,
2013-08-18 00:27:00,73.3,73.0,29.87,NNW,328,2.0,7.0,99,0.22,,,0.21,0.00,VWS V14.00,2013-08-18 05:27:00,
2013-08-18 00:28:00,73.2,72.9,29.87,NW,326,6.0,9.0,99,0.22,,,0.21,0.00,VWS V14.00,2013-08-18 05:28:00,
2013-08-18 00:29:00,73.2,72.9,29.87,NNW,336,3.0,9.0,99,0.22,,,0.21,0.00,VWS V14.00,2013-08-18 05:29:00,
2013-08-18 00:30:00,73.2,72.9,29.86,NW,308,8.0,9.0,99,0.22,,,0.21,0.00,VWS V14.00,2013-08-18 05:30:00,
2013-08-18 00:31:00,73.2,72.9,29.86,NW,322,2.0,8.0,99,0.22,,,0.21,0.00,VWS V14.00,2013-08-18 05:31:00,
2013-08-18 00:32:00,73.2,72.9,29.86,NW,323,0.0,8.0,99,0.22,,,0.21,0.00,VWS V14.00,2013-08-18 05:32:00,
2013-08-18 00:33:00,73.2,72.9,29.86,NW,323,2.0,8.0,99,0.22,,,0.21,0.00,VWS V14.00,2013-08-18 05:33:00,
2013-08-18 00:34:00,73.2,72.9,29.86,NW,322,0.0,8.0,99,0.23,,,0.22,0.00,VWS V14.00,2013-08-18 05:34:00,
2013-08-18 00:35:00,73.2,72.9,29.86,NW,322,0.0,8.0,99,0.23,,,0.22,0.00,VWS V14.00,2013-08-18 05:35:00,
2013-08-18 00:36:00,73.2,72.9,29.86,NW,322,0.0,8.0,99,0.23,,,0.22,0.00,VWS V14.00,2013-08-18 05:36:00,
2013-08-18 00:37:00,73.2,72.9,29.86,NW,319,2.0,8.0,99,0.24,,,0.23,0.00,VWS V14.00,2013-08-18 05:37:00,
2013-08-18 00:38:00,73.2,72.9,29.86,NNW,337,4.0,8.0,99,0.24,,,0.23,0.00,VWS V14.00,2013-08-18 05:38:00,
2013-08-18 00:39:00,73.2,72.9,29.86,SW,224,0.0,8.0,99,0.24,,,0.23,0.00,VWS V14.00,2013-08-18 05:39:00,
2013-08-18 00:40:00,73.2,72.9,29.86,SW,217,1.0,8.0,99,0.24,,,0.23,0.00,VWS V14.00,2013-08-18 05:40:00,
2013-08-18 00:41:00,73.2,72.9,29.86,SW,217,1.0,8.0,99,0.24,,,0.23,0.00,VWS V14.00,2013-08-18 05:41:00,
2013-08-18 00:42:00,73.2,72.9,29.86,SW,217,1.0,8.0,99,0.24,,,0.23,0.00,VWS V14.00,2013-08-18 05:42:00,
2013-08-18 00:43:00,73.2,72.9,29.86,WSW,240,1.0,8.0,99,0.24,,,0.23,0.00,VWS V14.00,2013-08-18 05:43:00,
2013-08-18 00:44:00,73.2,72.9,29.87,SW,235,2.0,8.0,99,0.24,,,0.23,0.00,VWS V14.00,2013-08-18 05:44:00,
2013-08-18 00:45:00,73.2,72.9,29.87,SW,235,0.0,8.0,99,0.24,,,0.23,0.00,VWS V14.00,2013-08-18 05:45:00,
2013-08-18 00:46:00,73.2,72.9,29.87,SW,235,2.0,8.0,99,0.24,,,0.23,0.00,VWS V14.00,2013-08-18 05:46:00,
2013-08-18 00:47:00,73.2,72.9,29.87,SW,231,3.0,8.0,99,0.24,,,0.23,0.00,VWS V14.00,2013-08-18 05:47:00,
2013-08-18 00:48:00,73.2,72.9,29.87,SW,231,2.0,8.0,99,0.24,,,0.23,0.00,VWS V14.00,2013-08-18 05:48:00,
2013-08-18 00:49:00,73.2,72.9,29.87,SW,231,1.0,8.0,99,0.26,,,0.25,0.00,VWS V14.00,2013-08-18 05:49:00,
2013-08-18 00:50:00,73.2,72.9,29.87,WSW,253,1.0,8.0,99,0.27,,,0.26,0.00,VWS V14.00,2013-08-18 05:50:00,
2013-08-18 00:51:00,73.2,72.9,29.87,WSW,258,1.0,8.0,99,0.28,,,0.27,0.00,VWS V14.00,2013-08-18 05:51:00,
2013-08-18 00:52:00,73.2,72.9,29.87,West,281,2.0,8.0,99,0.30,,,0.29,0.00,VWS V14.00,2013-08-18 05:52:00,
2013-08-18 00:53:00,73.2,72.9,29.87,NW,315,4.0,8.0,99,0.30,,,0.29,0.00,VWS V14.00,2013-08-18 05:53:00,
2013-08-18 00:54:00,73.2,72.9,29.87,NW,321,1.0,8.0,99,0.30,,,0.29,0.00,VWS V14.00,2013-08-18 05:54:00,
2013-08-18 00:55:00,73.2,72.9,29.87,NW,321,0.0,8.0,99,0.30,,,0.29,0.00,VWS V14.00,2013-08-18 05:55:00,
2013-08-18 00:56:00,73.2,72.9,29.87,NNW,346,1.0,8.0,99,0.30,,,0.29,0.00,VWS V14.00,2013-08-18 05:56:00,
2013-08-18 00:57:00,73.2,72.9,29.87,NNW,346,1.0,8.0,99,0.30,,,0.29,0.00,VWS V14.00,2013-08-18 05:57:00,
2013-08-18 00:58:00,73.2,72.9,29.87,NNW,336,4.0,8.0,99,0.30,,,0.29,0.00,VWS V14.00,2013-08-18 05:58:00,
2013-08-18 00:59:00,73.2,72.9,29.87,NNW,336,2.0,8.0,99,0.30,,,0.29,0.00,VWS V14.00,2013-08-18 05:59:00,
2013-08-18 01:00:00,73.2,72.9,29.87,NNW,341,2.0,8.0,99,0.30,,,0.29,0.00,VWS V14.00,2013-08-18 06:00:00,
2013-08-18 01:01:00,73.2,72.9,29.87,NNW,338,1.0,4.0,99,0.29,,,0.29,0.00,VWS V14.00,2013-08-18 06:01:00,
2013-08-18 01:02:00,73.2,72.9,29.87,NNW,334,3.0,4.0,99,0.29,,,0.29,0.00,VWS V14.00,2013-08-18 06:02:00,
2013-08-18 01:03:00,73.2,72.9,29.87,North,5,2.0,5.0,99,0.29,,,0.29,0.00,VWS V14.00,2013-08-18 06:03:00,
2013-08-18 01:04:00,73.0,72.7,29.87,NW,325,1.0,5.0,99,0.29,,,0.29,0.00,VWS V14.00,2013-08-18 06:04:00,
2013-08-18 01:05:00,73.0,72.7,29.87,NW,325,2.0,5.0,99,0.29,,,0.29,0.00,VWS V14.00,2013-08-18 06:05:00,
2013-08-18 01:06:00,73.0,72.7,29.87,NNW,336,3.0,5.0,99,0.29,,,0.29,0.00,VWS V14.00,2013-08-18 06:06:00,
2013-08-18 01:07:00,73.0,72.7,29.87,NNW,344,2.0,5.0,99,0.29,,,0.29,0.00,VWS V14.00,2013-08-18 06:07:00,
2013-08-18 01:08:00,73.0,72.7,29.87,NNW,344,3.0,5.0,99,0.29,,,0.29,0.00,VWS V14.00,2013-08-18 06:08:00,
2013-08-18 01:09:00,73.0,72.7,29.87,NNW,344,0.0,5.0,99,0.29,,,0.29,0.00,VWS V14.00,2013-08-18 06:09:00,
2013-08-18 01:10:00,73.0,72.7,29.87,NNW,344,0.0,5.0,99,0.29,,,0.29,0.00,VWS V14.00,2013-08-18 06:10:00,
2013-08-18 01:11:00,73.0,72.7,29.87,NNW,344,2.0,5.0,99,0.29,,,0.29,0.00,VWS V14.00,2013-08-18 06:11:00,
2013-08-18 01:12:00,73.0,72.7,29.87,NNW,344,2.0,5.0,99,0.30,,,0.30,0.00,VWS V14.00,2013-08-18 06:12:00,
2013-08-18 01:13:00,73.0,72.7,29.87,NNW,344,3.0,5.0,99,0.30,,,0.30,0.00,VWS V14.00,2013-08-18 06:13:00,
2013-08-18 01:14:00,73.0,72.7,29.86,NNW,344,3.0,5.0,99,0.30,,,0.30,0.00,VWS V14.00,2013-08-18 06:14:00,
2013-08-18 01:15:00,73.0,72.7,29.86,NNW,344,2.0,5.0,99,0.30,,,0.30,0.00,VWS V14.00,2013-08-18 06:15:00,
2013-08-18 01:16:00,73.0,72.7,29.86,NNW,344,1.0,5.0,99,0.30,,,0.30,0.00,VWS V14.00,2013-08-18 06:16:00,
2013-08-18 01:17:00,73.0,72.7,29.86,NNW,342,0.0,5.0,99,0.30,,,0.30,0.00,VWS V14.00,2013-08-18 06:17:00,
2013-08-18 01:18:00,73.0,72.7,29.86,NNW,342,2.0,5.0,99,0.30,,,0.30,0.00,VWS V14.00,2013-08-18 06:18:00,
2013-08-18 01:19:00,73.0,72.7,29.86,NNW,342,4.0,5.0,99,0.30,,,0.30,0.00,VWS V14.00,2013-08-18 06:19:00,
2013-08-18 01:20:00,73.0,72.7,29.86,NNW,342,0.0,5.0,99,0.30,,,0.30,0.00,VWS V14.00,2013-08-18 06:20:00,
2013-08-18 01:21:00,73.0,72.7,29.86,NNW,342,2.0,5.0,99,0.30,,,0.30,0.00,VWS V14.00,2013-08-18 06:21:00,
2013-08-18 01:22:00,73.0,72.7,29.86,NNW,342,1.0,5.0,99,0.30,,,0.30,0.00,VWS V14.00,2013-08-18 06:22:00,
2013-08-18 01:23:00,73.0,72.7,29.86,NNW,341,4.0,5.0,99,0.30,,,0.30,0.00,VWS V14.00,2013-08-18 06:23:00,
2013-08-18 01:24:00,73.2,72.9,29.86,WNW,290,2.0,5.0,99,0.30,,,0.30,0.00,VWS V14.00,2013-08-18 06:24:00,
2013-08-18 01:25:00,73.0,72.7,29.86,NW,306,4.0,6.0,99,0.30,,,0.30,0.00,VWS V14.00,2013-08-18 06:25:00,
2013-08-18 01:26:00,73.0,72.7,29.86,NW,309,2.0,6.0,99,0.30,,,0.30,0.00,VWS V14.00,2013-08-18 06:26:00,
2013-08-18 01:27:00,73.0,72.7,29.86,North,350,3.0,6.0,99,0.30,,,0.30,0.00,VWS V14.00,2013-08-18 06:27:00,
2013-08-18 01:28:00,73.0,72.7,29.86,WNW,302,0.0,6.0,99,0.30,,,0.30,0.00,VWS V14.00,2013-08-18 06:28:00,
2013-08-18 01:29:00,73.0,72.7,29.86,WNW,302,0.0,6.0,99,0.30,,,0.30,0.00,VWS V14.00,2013-08-18 06:29:00,
2013-08-18 01:30:00,73.0,73.0,29.86,WNW,302,2.0,6.0,100,0.30,,,0.30,0.00,VWS V14.00,2013-08-18 06:30:00,
2013-08-18 01:31:00,73.2,73.2,29.86,WNW,302,0.0,2.0,100,0.09,,,0.30,0.00,VWS V14.00,2013-08-18 06:31:00,
2013-08-18 01:32:00,73.2,72.9,29.86,WNW,302,0.0,2.0,99,0.09,,,0.30,0.00,VWS V14.00,2013-08-18 06:32:00,
2013-08-18 01:33:00,73.2,72.9,29.86,WNW,302,0.0,2.0,99,0.09,,,0.30,0.00,VWS V14.00,2013-08-18 06:33:00,
2013-08-18 01:34:00,73.2,73.2,29.86,WNW,302,0.0,2.0,100,0.09,,,0.30,0.00,VWS V14.00,2013-08-18 06:34:00,
2013-08-18 01:35:00,73.2,73.2,29.86,WNW,302,0.0,2.0,100,0.09,,,0.30,0.00,VWS V14.00,2013-08-18 06:35:00,
2013-08-18 01:36:00,73.2,73.2,29.86,WNW,302,0.0,2.0,100,0.09,,,0.30,0.00,VWS V14.00,2013-08-18 06:36:00,
2013-08-18 01:37:00,73.2,73.2,29.86,WNW,302,0.0,2.0,100,0.09,,,0.30,0.00,VWS V14.00,2013-08-18 06:37:00,
2013-08-18 01:38:00,73.2,73.2,29.86,WNW,302,0.0,2.0,100,0.09,,,0.30,0.00,VWS V14.00,2013-08-18 06:38:00,
2013-08-18 01:39:00,73.2,73.2,29.86,WNW,302,1.0,2.0,100,0.09,,,0.30,0.00,VWS V14.00,2013-08-18 06:39:00,
2013-08-18 01:40:00,73.2,73.2,29.86,WNW,302,3.0,3.0,100,0.09,,,0.30,0.00,VWS V14.00,2013-08-18 06:40:00,
2013-08-18 01:41:00,73.2,73.2,29.86,WNW,302,0.0,3.0,100,0.09,,,0.30,0.00,VWS V14.00,2013-08-18 06:41:00,
2013-08-18 01:42:00,73.2,73.2,29.86,WNW,302,0.0,3.0,100,0.09,,,0.30,0.00,VWS V14.00,2013-08-18 06:42:00,
2013-08-18 01:43:00,73.2,73.2,29.86,WNW,302,0.0,3.0,100,0.09,,,0.30,0.00,VWS V14.00,2013-08-18 06:43:00,
2013-08-18 01:44:00,73.2,73.2,29.86,WNW,302,0.0,3.0,100,0.09,,,0.30,0.00,VWS V14.00,2013-08-18 06:44:00,
2013-08-18 01:45:00,73.2,73.2,29.86,WNW,302,0.0,3.0,100,0.09,,,0.30,0.00,VWS V14.00,2013-08-18 06:45:00,
2013-08-18 01:46:00,73.2,73.2,29.86,WNW,302,0.0,3.0,100,0.09,,,0.30,0.00,VWS V14.00,2013-08-18 06:46:00,
2013-08-18 01:47:00,73.2,73.2,29.86,WNW,302,0.0,3.0,100,0.10,,,0.31,0.00,VWS V14.00,2013-08-18 06:47:00,
2013-08-18 01:48:00,73.2,73.2,29.86,WNW,302,2.0,3.0,100,0.10,,,0.31,0.00,VWS V14.00,2013-08-18 06:48:00,
2013-08-18 01:49:00,73.2,73.2,29.86,WNW,302,1.0,3.0,100,0.11,,,0.32,0.00,VWS V14.00,2013-08-18 06:49:00,
2013-08-18 01:50:00,73.2,73.2,29.86,NNW,342,0.0,3.0,100,0.11,,,0.32,0.00,VWS V14.00,2013-08-18 06:50:00,
2013-08-18 01:51:00,73.2,73.2,29.86,North,360,2.0,3.0,100,0.12,,,0.33,0.00,VWS V14.00,2013-08-18 06:51:00,
2013-08-18 01:52:00,73.3,73.3,29.86,NNW,342,3.0,5.0,100,0.12,,,0.33,0.00,VWS V14.00,2013-08-18 06:52:00,
2013-08-18 01:53:00,73.3,73.3,29.86,NNW,342,0.0,5.0,100,0.13,,,0.34,0.00,VWS V14.00,2013-08-18 06:53:00,
2013-08-18 01:54:00,73.3,73.3,29.86,NW,313,2.0,5.0,100,0.14,,,0.35,0.00,VWS V14.00,2013-08-18 06:54:00,
2013-08-18 01:55:00,73.3,73.3,29.86,NNW,330,0.0,5.0,100,0.15,,,0.36,0.00,VWS V14.00,2013-08-18 06:55:00,
2013-08-18 01:56:00,73.3,73.3,29.86,NW,312,1.0,5.0,100,0.15,,,0.36,0.00,VWS V14.00,2013-08-18 06:56:00,
2013-08-18 01:57:00,73.3,73.3,29.86,NW,323,3.0,5.0,100,0.16,,,0.37,0.00,VWS V14.00,2013-08-18 06:57:00,
2013-08-18 01:58:00,73.3,73.3,29.86,NW,322,2.0,5.0,100,0.16,,,0.37,0.00,VWS V14.00,2013-08-18 06:58:00,
2013-08-18 01:59:00,73.3,73.3,29.86,NW,322,1.0,5.0,100,0.16,,,0.37,0.00,VWS V14.00,2013-08-18 06:59:00,
2013-08-18 02:00:00,73.2,73.2,29.86,NW,324,1.0,1.0,100,0.08,,,0.37,0.00,VWS V14.00,2013-08-18 07:00:00,
2013-08-18 02:01:00,73.3,73.3,29.86,North,355,3.0,4.0,100,0.09,,,0.38,0.00,VWS V14.00,2013-08-18 07:01:00,
2013-08-18 02:02:00,73.2,73.2,29.86,NNE,26,4.0,4.0,100,0.09,,,0.38,0.00,VWS V14.00,2013-08-18 07:02:00,
2013-08-18 02:03:00,73.3,73.3,29.86,NNE,17,3.0,5.0,100,0.09,,,0.38,0.00,VWS V14.00,2013-08-18 07:03:00,
2013-08-18 02:04:00,73.2,73.2,29.86,NW,317,4.0,6.0,100,0.09,,,0.38,0.00,VWS V14.00,2013-08-18 07:04:00,
2013-08-18 02:05:00,73.2,73.2,29.86,NW,311,4.0,9.0,100,0.09,,,0.38,0.00,VWS V14.00,2013-08-18 07:05:00,
2013-08-18 02:06:00,73.2,73.2,29.86,NNW,336,4.0,10.0,100,0.09,,,0.38,0.00,VWS V14.00,2013-08-18 07:06:00,
2013-08-18 02:07:00,73.2,73.2,29.86,NNW,327,3.0,10.0,100,0.09,,,0.38,0.00,VWS V14.00,2013-08-18 07:07:00,
2013-08-18 02:08:00,73.2,73.2,29.86,ENE,64,1.0,10.0,100,0.09,,,0.38,0.00,VWS V14.00,2013-08-18 07:08:00,
2013-08-18 02:09:00,73.2,73.2,29.86,South,171,4.0,10.0,100,0.09,,,0.38,0.00,VWS V14.00,2013-08-18 07:09:00,
2013-08-18 02:10:00,73.2,73.2,29.86,SE,132,0.0,10.0,100,0.09,,,0.38,0.00,VWS V14.00,2013-08-18 07:10:00,
2013-08-18 02:11:00,73.2,73.2,29.86,South,172,3.0,10.0,100,0.09,,,0.38,0.00,VWS V14.00,2013-08-18 07:11:00,
2013-08-18 02:12:00,73.2,73.2,29.86,South,172,1.0,10.0,100,0.10,,,0.39,0.00,VWS V14.00,2013-08-18 07:12:00,
2013-08-18 02:13:00,73.2,73.2,29.86,South,172,0.0,10.0,100,0.10,,,0.39,0.00,VWS V14.00,2013-08-18 07:13:00,
2013-08-18 02:14:00,73.2,73.2,29.86,South,172,0.0,10.0,100,0.10,,,0.39,0.00,VWS V14.00,2013-08-18 07:14:00,
2013-08-18 02:15:00,73.2,73.2,29.86,NNW,331,3.0,10.0,100,0.10,,,0.39,0.00,VWS V14.00,2013-08-18 07:15:00,
2013-08-18 02:16:00,73.2,73.2,29.86,NW,323,5.0,10.0,100,0.10,,,0.39,0.00,VWS V14.00,2013-08-18 07:16:00,
2013-08-18 02:17:00,73.2,73.2,29.86,NW,323,3.0,10.0,100,0.10,,,0.39,0.00,VWS V14.00,2013-08-18 07:17:00,
2013-08-18 02:18:00,73.2,73.2,29.86,NW,323,0.0,10.0,100,0.10,,,0.39,0.00,VWS V14.00,2013-08-18 07:18:00,
2013-08-18 02:19:00,73.2,73.2,29.86,NW,323,0.0,10.0,100,0.10,,,0.39,0.00,VWS V14.00,2013-08-18 07:19:00,
2013-08-18 02:20:00,73.2,73.2,29.86,North,360,2.0,10.0,100,0.10,,,0.39,0.00,VWS V14.00,2013-08-18 07:20:00,
2013-08-18 02:21:00,73.2,73.2,29.86,NE,44,5.0,10.0,100,0.10,,,0.39,0.00,VWS V14.00,2013-08-18 07:21:00,
2013-08-18 02:22:00,73.2,73.2,29.86,NNE,17,2.0,10.0,100,0.10,,,0.39,0.00,VWS V14.00,2013-08-18 07:22:00,
2013-08-18 02:23:00,73.0,73.0,29.86,NW,314,4.0,10.0,100,0.10,,,0.39,0.00,VWS V14.00,2013-08-18 07:23:00,
2013-08-18 02:24:00,73.0,73.0,29.86,NNW,333,5.0,10.0,100,0.10,,,0.39,0.00,VWS V14.00,2013-08-18 07:24:00,
2013-08-18 02:25:00,73.0,73.0,29.86,NW,313,6.0,10.0,100,0.10,,,0.39,0.00,VWS V14.00,2013-08-18 07:25:00,
2013-08-18 02:26:00,73.0,73.0,29.86,NW,317,2.0,10.0,100,0.10,,,0.39,0.00,VWS V14.00,2013-08-18 07:26:00,
2013-08-18 02:27:00,73.0,73.0,29.86,NW,317,2.0,10.0,100,0.10,,,0.39,0.00,VWS V14.00,2013-08-18 07:27:00,
2013-08-18 02:28:00,73.0,73.0,29.86,NW,325,7.0,10.0,100,0.10,,,0.39,0.00,VWS V14.00,2013-08-18 07:28:00,
2013-08-18 02:29:00,73.0,73.0,29.86,NNW,337,0.0,10.0,100,0.10,,,0.39,0.00,VWS V14.00,2013-08-18 07:29:00,
2013-08-18 02:30:00,73.0,73.0,29.86,North,355,3.0,10.0,100,0.10,,,0.39,0.00,VWS V14.00,2013-08-18 07:30:00,
2013-08-18 02:31:00,73.0,73.0,29.86,NW,318,1.0,5.0,100,0.10,,,0.40,0.00,VWS V14.00,2013-08-18 07:31:00,
2013-08-18 02:32:00,73.0,73.0,29.86,North,9,1.0,5.0,100,0.10,,,0.40,0.00,VWS V14.00,2013-08-18 07:32:00,
2013-08-18 02:33:00,73.0,73.0,29.86,NNW,346,0.0,5.0,100,0.10,,,0.40,0.00,VWS V14.00,2013-08-18 07:33:00,
2013-08-18 02:34:00,73.0,73.0,29.86,NW,325,4.0,5.0,100,0.10,,,0.40,0.00,VWS V14.00,2013-08-18 07:34:00,
2013-08-18 02:35:00,73.0,73.0,29.86,NW,326,0.0,5.0,100,0.10,,,0.40,0.00,VWS V14.00,2013-08-18 07:35:00,
2013-08-18 02:36:00,73.0,73.0,29.86,NW,326,0.0,5.0,100,0.10,,,0.40,0.00,VWS V14.00,2013-08-18 07:36:00,
2013-08-18 02:37:00,73.0,73.0,29.86,NE,55,2.0,5.0,100,0.10,,,0.40,0.00,VWS V14.00,2013-08-18 07:37:00,
2013-08-18 02:38:00,73.0,73.0,29.86,NNE,28,2.0,5.0,100,0.11,,,0.41,0.00,VWS V14.00,2013-08-18 07:38:00,
2013-08-18 02:39:00,73.0,73.0,29.86,NE,46,3.0,5.0,100,0.11,,,0.41,0.00,VWS V14.00,2013-08-18 07:39:00,
2013-08-18 02:40:00,73.0,73.0,29.86,NE,41,2.0,5.0,100,0.11,,,0.41,0.00,VWS V14.00,2013-08-18 07:40:00,
2013-08-18 02:41:00,73.0,73.0,29.86,NW,310,2.0,5.0,100,0.11,,,0.41,0.00,VWS V14.00,2013-08-18 07:41:00,
2013-08-18 02:42:00,73.0,73.0,29.86,NW,306,0.0,5.0,100,0.11,,,0.41,0.00,VWS V14.00,2013-08-18 07:42:00,
2013-08-18 02:43:00,73.0,73.0,29.86,NW,306,2.0,5.0,100,0.11,,,0.41,0.00,VWS V14.00,2013-08-18 07:43:00,
2013-08-18 02:44:00,73.0,73.0,29.86,NW,306,0.0,5.0,100,0.11,,,0.41,0.00,VWS V14.00,2013-08-18 07:44:00,
2013-08-18 02:45:00,73.0,73.0,29.86,North,11,0.0,5.0,100,0.11,,,0.41,0.00,VWS V14.00,2013-08-18 07:45:00,
2013-08-18 02:46:00,73.0,73.0,29.86,NNW,348,4.0,5.0,100,0.11,,,0.41,0.00,VWS V14.00,2013-08-18 07:46:00,
2013-08-18 02:47:00,73.0,73.0,29.86,NNW,348,2.0,5.0,100,0.11,,,0.41,0.00,VWS V14.00,2013-08-18 07:47:00,
2013-08-18 02:48:00,73.0,73.0,29.86,NNW,348,1.0,5.0,100,0.12,,,0.42,0.00,VWS V14.00,2013-08-18 07:48:00,
2013-08-18 02:49:00,73.0,73.0,29.86,North,355,3.0,7.0,100,0.12,,,0.42,0.00,VWS V14.00,2013-08-18 07:49:00,
2013-08-18 02:50:00,73.0,73.0,29.86,NE,47,2.0,7.0,100,0.13,,,0.43,0.00,VWS V14.00,2013-08-18 07:50:00,
2013-08-18 02:51:00,73.0,73.0,29.86,NNW,335,2.0,7.0,100,0.13,,,0.43,0.00,VWS V14.00,2013-08-18 07:51:00,
2013-08-18 02:52:00,73.0,73.0,29.86,NW,325,2.0,7.0,100,0.13,,,0.43,0.00,VWS V14.00,2013-08-18 07:52:00,
2013-08-18 02:53:00,73.0,73.0,29.86,NW,324,0.0,7.0,100,0.13,,,0.43,0.00,VWS V14.00,2013-08-18 07:53:00,
2013-08-18 02:54:00,73.0,73.0,29.86,NW,324,1.0,7.0,100,0.13,,,0.43,0.00,VWS V14.00,2013-08-18 07:54:00,
2013-08-18 02:55:00,73.0,73.0,29.86,NW,324,0.0,7.0,100,0.14,,,0.44,0.00,VWS V14.00,2013-08-18 07:55:00,
2013-08-18 02:56:00,72.8,72.8,29.86,NW,324,0.0,7.0,100,0.14,,,0.44,0.00,VWS V14.00,2013-08-18 07:56:00,
2013-08-18 02:57:00,72.8,72.8,29.86,WNW,299,0.0,7.0,100,0.14,,,0.44,0.00,VWS V14.00,2013-08-18 07:57:00,
2013-08-18 02:58:00,73.0,73.0,29.86,WNW,299,0.0,7.0,100,0.15,,,0.45,0.00,VWS V14.00,2013-08-18 07:58:00,
2013-08-18 02:59:00,72.8,72.8,29.86,WNW,299,0.0,7.0,100,0.15,,,0.45,0.00,VWS V14.00,2013-08-18 07:59:00,
2013-08-18 03:00:00,72.8,72.8,29.86,WNW,299,1.0,7.0,100,0.15,,,0.45,0.00,VWS V14.00,2013-08-18 08:00:00,
2013-08-18 03:01:00,72.8,72.8,29.86,WNW,291,2.0,3.0,100,0.08,,,0.45,0.00,VWS V14.00,2013-08-18 08:01:00,
2013-08-18 03:02:00,72.8,72.8,29.86,WNW,291,0.0,3.0,100,0.08,,,0.45,0.00,VWS V14.00,2013-08-18 08:02:00,
2013-08-18 03:03:00,72.8,72.8,29.86,WNW,288,1.0,3.0,100,0.08,,,0.45,0.00,VWS V14.00,2013-08-18 08:03:00,
2013-08-18 03:04:00,73.0,73.0,29.86,West,259,0.0,3.0,100,0.08,,,0.45,0.00,VWS V14.00,2013-08-18 08:04:00,
2013-08-18 03:05:00,73.0,73.0,29.86,West,277,1.0,3.0,100,0.09,,,0.46,0.00,VWS V14.00,2013-08-18 08:05:00,
2013-08-18 03:06:00,73.0,73.0,29.86,West,277,1.0,3.0,100,0.09,,,0.46,0.00,VWS V14.00,2013-08-18 08:06:00,
2013-08-18 03:07:00,73.0,73.0,29.86,NW,322,2.0,3.0,100,0.09,,,0.46,0.00,VWS V14.00,2013-08-18 08:07:00,
2013-08-18 03:08:00,72.8,72.8,29.86,NW,321,0.0,3.0,100,0.09,,,0.46,0.00,VWS V14.00,2013-08-18 08:08:00,
2013-08-18 03:09:00,73.0,73.0,29.86,West,267,2.0,3.0,100,0.10,,,0.47,0.00,VWS V14.00,2013-08-18 08:09:00,
2013-08-18 03:10:00,72.8,72.8,29.86,WNW,286,3.0,4.0,100,0.10,,,0.47,0.00,VWS V14.00,2013-08-18 08:10:00,
2013-08-18 03:11:00,72.8,72.8,29.86,WNW,298,4.0,4.0,100,0.10,,,0.47,0.00,VWS V14.00,2013-08-18 08:11:00,
2013-08-18 03:12:00,72.8,72.8,29.86,NW,314,4.0,6.0,100,0.11,,,0.48,0.00,VWS V14.00,2013-08-18 08:12:00,
2013-08-18 03:13:00,72.8,72.8,29.86,NW,316,3.0,6.0,100,0.11,,,0.48,0.00,VWS V14.00,2013-08-18 08:13:00,
2013-08-18 03:14:00,72.8,72.8,29.86,NW,316,3.0,6.0,100,0.11,,,0.48,0.00,VWS V14.00,2013-08-18 08:14:00,
2013-08-18 03:15:00,72.8,72.8,29.86,NW,316,4.0,6.0,100,0.11,,,0.48,0.00,VWS V14.00,2013-08-18 08:15:00,
2013-08-18 03:16:00,72.8,72.8,29.86,NW,316,3.0,6.0,100,0.12,,,0.49,0.00,VWS V14.00,2013-08-18 08:16:00,
2013-08-18 03:17:00,72.8,72.8,29.86,WNW,293,5.0,10.0,100,0.13,,,0.50,0.00,VWS V14.00,2013-08-18 08:17:00,
2013-08-18 03:18:00,72.8,72.8,29.86,WSW,245,3.0,10.0,100,0.13,,,0.50,0.00,VWS V14.00,2013-08-18 08:18:00,
2013-08-18 03:19:00,72.8,72.8,29.86,NNW,329,5.0,10.0,100,0.13,,,0.50,0.00,VWS V14.00,2013-08-18 08:19:00,
2013-08-18 03:20:00,72.7,72.7,29.86,NW,325,3.0,10.0,100,0.14,,,0.51,0.00,VWS V14.00,2013-08-18 08:20:00,
2013-08-18 03:21:00,72.7,72.7,29.86,West,275,0.0,10.0,100,0.14,,,0.51,0.00,VWS V14.00,2013-08-18 08:21:00,
2013-08-18 03:22:00,72.7,72.7,29.86,North,355,5.0,10.0,100,0.14,,,0.51,0.00,VWS V14.00,2013-08-18 08:22:00,
2013-08-18 03:23:00,72.7,72.7,29.86,NNW,344,2.0,10.0,100,0.14,,,0.51,0.00,VWS V14.00,2013-08-18 08:23:00,
2013-08-18 03:24:00,72.7,72.7,29.86,NW,315,2.0,10.0,100,0.15,,,0.52,0.00,VWS V14.00,2013-08-18 08:24:00,
2013-08-18 03:25:00,72.7,72.7,29.86,NW,323,3.0,10.0,100,0.15,,,0.52,0.00,VWS V14.00,2013-08-18 08:25:00,
2013-08-18 03:26:00,72.7,72.7,29.86,NW,313,1.0,10.0,100,0.15,,,0.52,0.00,VWS V14.00,2013-08-18 08:26:00,
2013-08-18 03:27:00,72.7,72.7,29.86,NNW,343,1.0,10.0,100,0.16,,,0.53,0.00,VWS V14.00,2013-08-18 08:27:00,
2013-08-18 03:28:00,72.7,72.7,29.86,NNW,335,3.0,10.0,100,0.16,,,0.53,0.00,VWS V14.00,2013-08-18 08:28:00,
2013-08-18 03:29:00,72.7,72.7,29.86,NW,316,4.0,10.0,100,0.17,,,0.54,0.00,VWS V14.00,2013-08-18 08:29:00,
2013-08-18 03:30:00,72.7,72.7,29.86,NNW,334,5.0,10.0,100,0.18,,,0.55,0.00,VWS V14.00,2013-08-18 08:30:00,
2013-08-18 03:31:00,72.7,72.7,29.86,WNW,302,5.0,5.0,100,0.16,,,0.55,0.00,VWS V14.00,2013-08-18 08:31:00,
2013-08-18 03:32:00,72.7,72.7,29.86,NNW,331,4.0,7.0,100,0.17,,,0.56,0.00,VWS V14.00,2013-08-18 08:32:00,
2013-08-18 03:33:00,72.7,72.7,29.86,NW,311,5.0,9.0,100,0.17,,,0.56,0.00,VWS V14.00,2013-08-18 08:33:00,
2013-08-18 03:34:00,72.7,72.7,29.86,WNW,284,2.0,9.0,100,0.17,,,0.56,0.00,VWS V14.00,2013-08-18 08:34:00,
2013-08-18 03:35:00,72.7,72.7,29.86,NW,306,0.0,9.0,100,0.18,,,0.57,0.00,VWS V14.00,2013-08-18 08:35:00,
2013-08-18 03:36:00,72.5,72.5,29.86,WNW,302,2.0,9.0,100,0.18,,,0.57,0.00,VWS V14.00,2013-08-18 08:36:00,
2013-08-18 03:37:00,72.5,72.5,29.86,WNW,301,0.0,9.0,100,0.19,,,0.58,0.00,VWS V14.00,2013-08-18 08:37:00,
2013-08-18 03:38:00,72.5,72.5,29.86,WNW,301,0.0,9.0,100,0.20,,,0.59,0.00,VWS V14.00,2013-08-18 08:38:00,
2013-08-18 03:39:00,72.5,72.5,29.86,West,269,1.0,9.0,100,0.21,,,0.60,0.00,VWS V14.00,2013-08-18 08:39:00,
2013-08-18 03:40:00,72.5,72.5,29.86,West,269,0.0,9.0,100,0.22,,,0.61,0.00,VWS V14.00,2013-08-18 08:40:00,
2013-08-18 03:41:00,72.5,72.5,29.86,WNW,286,3.0,9.0,100,0.22,,,0.61,0.00,VWS V14.00,2013-08-18 08:41:00,
2013-08-18 03:42:00,72.5,72.5,29.86,WNW,290,4.0,9.0,100,0.24,,,0.63,0.00,VWS V14.00,2013-08-18 08:42:00,
2013-08-18 03:43:00,72.5,72.5,29.86,NW,322,3.0,9.0,100,0.26,,,0.65,0.00,VWS V14.00,2013-08-18 08:43:00,
2013-08-18 03:44:00,72.5,72.5,29.86,NW,321,5.0,9.0,100,0.27,,,0.66,0.00,VWS V14.00,2013-08-18 08:44:00,
2013-08-18 03:45:00,72.5,72.5,29.86,NW,318,5.0,9.0,100,0.28,,,0.67,0.00,VWS V14.00,2013-08-18 08:45:00,
2013-08-18 03:46:00,72.5,72.5,29.86,NW,313,4.0,9.0,100,0.28,,,0.67,0.00,VWS V14.00,2013-08-18 08:46:00,
2013-08-18 03:47:00,72.5,72.5,29.86,NNW,329,4.0,9.0,100,0.28,,,0.67,0.00,VWS V14.00,2013-08-18 08:47:00,
2013-08-18 03:48:00,72.5,72.5,29.86,NW,317,4.0,9.0,100,0.28,,,0.67,0.00,VWS V14.00,2013-08-18 08:48:00,
2013-08-18 03:49:00,72.5,72.5,29.86,NNW,333,5.0,9.0,100,0.29,,,0.68,0.00,VWS V14.00,2013-08-18 08:49:00,
2013-08-18 03:50:00,72.5,72.5,29.86,NW,324,5.0,9.0,100,0.29,,,0.68,0.00,VWS V14.00,2013-08-18 08:50:00,
2013-08-18 03:51:00,72.5,72.5,29.86,NW,324,3.0,9.0,100,0.29,,,0.68,0.00,VWS V14.00,2013-08-18 08:51:00,
2013-08-18 03:52:00,72.5,72.5,29.86,NW,324,4.0,9.0,100,0.29,,,0.68,0.00,VWS V14.00,2013-08-18 08:52:00,
2013-08-18 03:53:00,72.5,72.5,29.86,NW,317,3.0,9.0,100,0.29,,,0.68,0.00,VWS V14.00,2013-08-18 08:53:00,
2013-08-18 03:54:00,72.5,72.5,29.86,NW,323,0.0,9.0,100,0.29,,,0.68,0.00,VWS V14.00,2013-08-18 08:54:00,
2013-08-18 03:55:00,72.5,72.5,29.86,NW,323,2.0,9.0,100,0.29,,,0.68,0.00,VWS V14.00,2013-08-18 08:55:00,
2013-08-18 03:56:00,72.5,72.5,29.86,NW,325,3.0,9.0,100,0.29,,,0.68,0.00,VWS V14.00,2013-08-18 08:56:00,
2013-08-18 03:57:00,72.5,72.5,29.86,NW,325,3.0,9.0,100,0.29,,,0.68,0.00,VWS V14.00,2013-08-18 08:57:00,
2013-08-18 03:58:00,72.5,72.5,29.86,ENE,59,2.0,9.0,100,0.29,,,0.68,0.00,VWS V14.00,2013-08-18 08:58:00,
2013-08-18 03:59:00,72.5,72.5,29.86,NNW,344,6.0,9.0,100,0.29,,,0.68,0.00,VWS V14.00,2013-08-18 08:59:00,
2013-08-18 04:00:00,72.5,72.5,29.86,NNW,344,3.0,9.0,100,0.29,,,0.68,0.00,VWS V14.00,2013-08-18 09:00:00,
2013-08-18 04:01:00,72.5,72.5,29.86,NNW,327,3.0,4.0,100,0.23,,,0.68,0.00,VWS V14.00,2013-08-18 09:01:00,
2013-08-18 04:02:00,72.5,72.5,29.86,NNW,337,2.0,7.0,100,0.23,,,0.68,0.00,VWS V14.00,2013-08-18 09:02:00,
2013-08-18 04:03:00,72.5,72.5,29.86,NNW,336,8.0,8.0,100,0.23,,,0.68,0.00,VWS V14.00,2013-08-18 09:03:00,
2013-08-18 04:04:00,72.5,72.5,29.86,NNW,329,3.0,8.0,100,0.23,,,0.68,0.00,VWS V14.00,2013-08-18 09:04:00,
2013-08-18 04:05:00,72.3,72.3,29.86,NNW,329,0.0,8.0,100,0.23,,,0.68,0.00,VWS V14.00,2013-08-18 09:05:00,
2013-08-18 04:06:00,72.3,72.3,29.86,NNW,329,2.0,8.0,100,0.23,,,0.68,0.00,VWS V14.00,2013-08-18 09:06:00,
2013-08-18 04:07:00,72.3,72.3,29.86,NNW,338,4.0,8.0,100,0.23,,,0.68,0.00,VWS V14.00,2013-08-18 09:07:00,
2013-08-18 04:08:00,72.3,72.3,29.86,WNW,292,2.0,8.0,100,0.23,,,0.68,0.00,VWS V14.00,2013-08-18 09:08:00,
2013-08-18 04:09:00,72.3,72.3,29.86,North,5,1.0,8.0,100,0.23,,,0.68,0.00,VWS V14.00,2013-08-18 09:09:00,
2013-08-18 04:10:00,72.3,72.3,29.86,NNE,24,4.0,12.0,100,0.23,,,0.68,0.00,VWS V14.00,2013-08-18 09:10:00,
2013-08-18 04:11:00,72.3,72.3,29.86,NNW,332,2.0,12.0,100,0.23,,,0.68,0.00,VWS V14.00,2013-08-18 09:11:00,
2013-08-18 04:12:00,72.3,72.3,29.86,NNE,23,2.0,12.0,100,0.23,,,0.68,0.00,VWS V14.00,2013-08-18 09:12:00,
2013-08-18 04:13:00,72.3,72.3,29.86,NNW,344,3.0,12.0,100,0.23,,,0.68,0.00,VWS V14.00,2013-08-18 09:13:00,
2013-08-18 04:14:00,72.3,72.3,29.86,NNW,331,12.0,12.0,100,0.23,,,0.68,0.00,VWS V14.00,2013-08-18 09:14:00,
2013-08-18 04:15:00,72.3,72.3,29.86,NW,317,10.0,14.0,100,0.24,,,0.69,0.00,VWS V14.00,2013-08-18 09:15:00,
2013-08-18 04:16:00,72.1,72.1,29.86,NW,317,4.0,14.0,100,0.24,,,0.69,0.00,VWS V14.00,2013-08-18 09:16:00,
2013-08-18 04:17:00,72.1,72.1,29.86,NNE,25,5.0,14.0,100,0.24,,,0.69,0.00,VWS V14.00,2013-08-18 09:17:00,
2013-08-18 04:18:00,72.1,72.1,29.86,NNW,339,4.0,14.0,100,0.24,,,0.69,0.00,VWS V14.00,2013-08-18 09:18:00,
2013-08-18 04:19:00,72.1,72.1,29.86,North,355,7.0,14.0,100,0.24,,,0.69,0.00,VWS V14.00,2013-08-18 09:19:00,
2013-08-18 04:20:00,72.1,72.1,29.86,North,5,2.0,14.0,100,0.24,,,0.69,0.00,VWS V14.00,2013-08-18 09:20:00,
2013-08-18 04:21:00,72.0,72.0,29.86,NNW,339,7.0,14.0,100,0.24,,,0.69,0.00,VWS V14.00,2013-08-18 09:21:00,
2013-08-18 04:22:00,72.0,72.0,29.86,NNW,332,3.0,14.0,100,0.24,,,0.69,0.00,VWS V14.00,2013-08-18 09:22:00,
2013-08-18 04:23:00,72.0,72.0,29.86,NW,307,0.0,14.0,100,0.24,,,0.69,0.00,VWS V14.00,2013-08-18 09:23:00,
2013-08-18 04:24:00,72.0,72.0,29.86,NNE,25,1.0,14.0,100,0.24,,,0.69,0.00,VWS V14.00,2013-08-18 09:24:00,
2013-08-18 04:25:00,72.0,72.0,29.86,North,5,1.0,14.0,100,0.24,,,0.69,0.00,VWS V14.00,2013-08-18 09:25:00,
2013-08-18 04:26:00,72.0,72.0,29.86,North,5,4.0,14.0,100,0.24,,,0.69,0.00,VWS V14.00,2013-08-18 09:26:00,
2013-08-18 04:27:00,72.0,72.0,29.86,NNW,340,2.0,14.0,100,0.24,,,0.69,0.00,VWS V14.00,2013-08-18 09:27:00,
2013-08-18 04:28:00,71.8,71.8,29.86,ENE,59,2.0,14.0,100,0.24,,,0.69,0.00,VWS V14.00,2013-08-18 09:28:00,
2013-08-18 04:29:00,71.8,71.8,29.88,ENE,59,0.0,14.0,100,0.25,,,0.70,0.00,VWS V14.00,2013-08-18 09:29:00,
2013-08-18 04:30:00,71.8,71.8,29.88,ENE,59,1.0,14.0,100,0.26,,,0.71,0.00,VWS V14.00,2013-08-18 09:30:00,
2013-08-18 04:31:00,71.8,71.8,29.88,NNE,14,3.0,5.0,100,0.20,,,0.75,0.00,VWS V14.00,2013-08-18 09:31:00,
2013-08-18 04:32:00,71.8,71.8,29.88,North,355,3.0,5.0,100,0.24,,,0.79,0.00,VWS V14.00,2013-08-18 09:32:00,
2013-08-18 04:33:00,71.8,71.8,29.88,NNW,342,6.0,12.0,100,0.26,,,0.81,0.00,VWS V14.00,2013-08-18 09:33:00,
2013-08-18 04:34:00,71.8,71.8,29.88,NNW,336,4.0,12.0,100,0.28,,,0.83,0.00,VWS V14.00,2013-08-18 09:34:00,
2013-08-18 04:35:00,71.8,71.8,29.88,NW,325,5.0,14.0,100,0.30,,,0.85,0.00,VWS V14.00,2013-08-18 09:35:00,
2013-08-18 04:36:00,71.6,71.6,29.88,NW,317,8.0,14.0,100,0.30,,,0.85,0.00,VWS V14.00,2013-08-18 09:36:00,
2013-08-18 04:37:00,71.6,71.6,29.88,North,351,4.0,14.0,100,0.31,,,0.86,0.00,VWS V14.00,2013-08-18 09:37:00,
2013-08-18 04:38:00,71.6,71.6,29.88,North,5,4.0,14.0,100,0.32,,,0.87,0.00,VWS V14.00,2013-08-18 09:38:00,
2013-08-18 04:39:00,71.6,71.6,29.88,NW,306,6.0,14.0,100,0.32,,,0.87,0.00,VWS V14.00,2013-08-18 09:39:00,
2013-08-18 04:40:00,71.6,71.6,29.88,WNW,285,4.0,14.0,100,0.32,,,0.87,0.00,VWS V14.00,2013-08-18 09:40:00,
2013-08-18 04:41:00,71.6,71.6,29.88,NW,305,7.0,14.0,100,0.33,,,0.88,0.00,VWS V14.00,2013-08-18 09:41:00,
2013-08-18 04:42:00,71.6,71.6,29.88,NNW,329,3.0,14.0,100,0.33,,,0.88,0.00,VWS V14.00,2013-08-18 09:42:00,
2013-08-18 04:43:00,71.6,71.6,29.88,NNW,344,4.0,14.0,100,0.34,,,0.89,0.00,VWS V14.00,2013-08-18 09:43:00,
2013-08-18 04:44:00,71.5,71.5,29.88,NW,313,5.0,14.0,100,0.34,,,0.89,0.00,VWS V14.00,2013-08-18 09:44:00,
2013-08-18 04:45:00,71.5,71.5,29.88,WNW,297,3.0,14.0,100,0.34,,,0.89,0.00,VWS V14.00,2013-08-18 09:45:00,
2013-08-18 04:46:00,71.5,71.5,29.88,NNW,330,3.0,14.0,100,0.35,,,0.90,0.00,VWS V14.00,2013-08-18 09:46:00,
2013-08-18 04:47:00,71.5,71.5,29.88,NNW,329,1.0,14.0,100,0.35,,,0.90,0.00,VWS V14.00,2013-08-18 09:47:00,
2013-08-18 04:48:00,71.5,71.5,29.88,NNW,335,3.0,14.0,100,0.36,,,0.91,0.00,VWS V14.00,2013-08-18 09:48:00,
2013-08-18 04:49:00,71.5,71.5,29.88,WNW,287,3.0,14.0,100,0.36,,,0.91,0.00,VWS V14.00,2013-08-18 09:49:00,
2013-08-18 04:50:00,71.5,71.5,29.88,NNW,335,4.0,14.0,100,0.36,,,0.91,0.00,VWS V14.00,2013-08-18 09:50:00,
2013-08-18 04:51:00,71.5,71.5,29.88,NW,318,2.0,14.0,100,0.37,,,0.92,0.00,VWS V14.00,2013-08-18 09:51:00,
2013-08-18 04:52:00,71.5,71.5,29.88,NW,325,6.0,14.0,100,0.38,,,0.93,0.00,VWS V14.00,2013-08-18 09:52:00,
2013-08-18 04:53:00,71.5,71.5,29.88,NW,322,6.0,14.0,100,0.38,,,0.93,0.00,VWS V14.00,2013-08-18 09:53:00,
2013-08-18 04:54:00,71.5,71.5,29.88,NNW,335,5.0,14.0,100,0.39,,,0.94,0.00,VWS V14.00,2013-08-18 09:54:00,
2013-08-18 04:55:00,71.5,71.5,29.88,NW,306,7.0,14.0,100,0.40,,,0.95,0.00,VWS V14.00,2013-08-18 09:55:00,
2013-08-18 04:56:00,71.5,71.5,29.88,NW,317,3.0,14.0,100,0.40,,,0.95,0.00,VWS V14.00,2013-08-18 09:56:00,
2013-08-18 04:57:00,71.5,71.5,29.88,NW,305,5.0,14.0,100,0.40,,,0.95,0.00,VWS V14.00,2013-08-18 09:57:00,
2013-08-18 04:58:00,71.5,71.5,29.88,NNW,331,6.0,14.0,100,0.40,,,0.95,0.00,VWS V14.00,2013-08-18 09:58:00,
2013-08-18 04:59:00,71.5,71.5,29.88,WNW,296,3.0,14.0,100,0.41,,,0.96,0.00,VWS V14.00,2013-08-18 09:59:00,
2013-08-18 05:00:00,71.5,71.5,29.87,NW,326,4.0,14.0,100,0.41,,,0.96,0.00,VWS V14.00,2013-08-18 10:00:00,
2013-08-18 05:01:00,71.5,71.5,29.87,NNW,342,1.0,5.0,100,0.28,,,0.96,0.00,VWS V14.00,2013-08-18 10:01:00,
2013-08-18 05:02:00,71.5,71.5,29.87,NW,315,2.0,6.0,100,0.28,,,0.96,0.00,VWS V14.00,2013-08-18 10:02:00,
2013-08-18 05:03:00,71.5,71.5,29.87,NW,319,3.0,9.0,100,0.28,,,0.96,0.00,VWS V14.00,2013-08-18 10:03:00,
2013-08-18 05:04:00,71.5,71.5,29.87,NNE,12,3.0,9.0,100,0.29,,,0.97,0.00,VWS V14.00,2013-08-18 10:04:00,
2013-08-18 05:05:00,71.5,71.5,29.87,WNW,284,6.0,12.0,100,0.29,,,0.97,0.00,VWS V14.00,2013-08-18 10:05:00,
2013-08-18 05:06:00,71.5,71.5,29.87,NW,315,4.0,12.0,100,0.29,,,0.97,0.00,VWS V14.00,2013-08-18 10:06:00,
2013-08-18 05:07:00,71.5,71.5,29.87,NW,320,5.0,12.0,100,0.30,,,0.98,0.00,VWS V14.00,2013-08-18 10:07:00,
2013-08-18 05:08:00,71.5,71.5,29.87,NW,309,6.0,12.0,100,0.30,,,0.98,0.00,VWS V14.00,2013-08-18 10:08:00,
2013-08-18 05:09:00,71.5,71.5,29.87,NW,313,5.0,12.0,100,0.31,,,0.99,0.00,VWS V14.00,2013-08-18 10:09:00,
2013-08-18 05:10:00,71.5,71.5,29.87,NNW,331,4.0,12.0,100,0.31,,,0.99,0.00,VWS V14.00,2013-08-18 10:10:00,
2013-08-18 05:11:00,71.5,71.5,29.87,NW,323,5.0,12.0,100,0.32,,,1.00,0.00,VWS V14.00,2013-08-18 10:11:00,
2013-08-18 05:12:00,71.5,71.5,29.87,NW,313,6.0,12.0,100,0.32,,,1.00,0.00,VWS V14.00,2013-08-18 10:12:00,
2013-08-18 05:13:00,71.5,71.5,29.87,NW,305,4.0,12.0,100,0.33,,,1.01,0.00,VWS V14.00,2013-08-18 10:13:00,
2013-08-18 05:14:00,71.5,71.5,29.86,NNW,333,2.0,12.0,100,0.33,,,1.01,0.00,VWS V14.00,2013-08-18 10:14:00,
2013-08-18 05:15:00,71.5,71.5,29.86,NNW,327,1.0,12.0,100,0.33,,,1.01,0.00,VWS V14.00,2013-08-18 10:15:00,
2013-08-18 05:16:00,71.5,71.5,29.86,WNW,298,3.0,12.0,100,0.33,,,1.01,0.00,VWS V14.00,2013-08-18 10:16:00,
2013-08-18 05:17:00,71.5,71.5,29.86,North,355,7.0,12.0,100,0.34,,,1.02,0.00,VWS V14.00,2013-08-18 10:17:00,
2013-08-18 05:18:00,71.5,71.5,29.86,NW,319,4.0,12.0,100,0.34,,,1.02,0.00,VWS V14.00,2013-08-18 10:18:00,
2013-08-18 05:19:00,71.5,71.5,29.86,NNW,344,4.0,12.0,100,0.34,,,1.02,0.00,VWS V14.00,2013-08-18 10:19:00,
2013-08-18 05:20:00,71.5,71.5,29.86,NNW,336,4.0,12.0,100,0.34,,,1.02,0.00,VWS V14.00,2013-08-18 10:20:00,
2013-08-18 05:21:00,71.5,71.5,29.86,NW,316,5.0,12.0,100,0.34,,,1.02,0.00,VWS V14.00,2013-08-18 10:21:00,
2013-08-18 05:22:00,71.5,71.5,29.86,NW,320,3.0,12.0,100,0.34,,,1.02,0.00,VWS V14.00,2013-08-18 10:22:00,
2013-08-18 05:23:00,71.5,71.5,29.86,NW,315,4.0,12.0,100,0.35,,,1.03,0.00,VWS V14.00,2013-08-18 10:23:00,
2013-08-18 05:24:00,71.5,71.5,29.86,WNW,288,2.0,12.0,100,0.35,,,1.03,0.00,VWS V14.00,2013-08-18 10:24:00,
2013-08-18 05:25:00,71.5,71.5,29.86,NNW,336,7.0,12.0,100,0.35,,,1.03,0.00,VWS V14.00,2013-08-18 10:25:00,
2013-08-18 05:26:00,71.5,71.5,29.86,NW,313,5.0,12.0,100,0.35,,,1.03,0.00,VWS V14.00,2013-08-18 10:26:00,
2013-08-18 05:27:00,71.5,71.5,29.86,NNW,333,6.0,12.0,100,0.35,,,1.03,0.00,VWS V14.00,2013-08-18 10:27:00,
2013-08-18 05:28:00,71.5,71.5,29.86,NNW,333,0.0,12.0,100,0.35,,,1.03,0.00,VWS V14.00,2013-08-18 10:28:00,
2013-08-18 05:29:00,71.5,71.5,29.86,North,355,2.0,12.0,100,0.35,,,1.03,0.00,VWS V14.00,2013-08-18 10:29:00,
2013-08-18 05:30:00,71.5,71.5,29.86,West,281,4.0,12.0,100,0.35,,,1.03,0.00,VWS V14.00,2013-08-18 10:30:00,
2013-08-18 05:31:00,71.5,71.5,29.86,NW,323,6.0,8.0,100,0.32,,,1.03,0.00,VWS V14.00,2013-08-18 10:31:00,
2013-08-18 05:32:00,71.5,71.5,29.86,NW,313,2.0,8.0,100,0.32,,,1.03,0.00,VWS V14.00,2013-08-18 10:32:00,
2013-08-18 05:33:00,71.5,71.5,29.86,WNW,303,1.0,8.0,100,0.32,,,1.03,0.00,VWS V14.00,2013-08-18 10:33:00,
2013-08-18 05:34:00,71.5,71.5,29.86,NNW,332,7.0,8.0,100,0.33,,,1.04,0.00,VWS V14.00,2013-08-18 10:34:00,
2013-08-18 05:35:00,71.5,71.5,29.86,North,349,4.0,8.0,100,0.33,,,1.04,0.00,VWS V14.00,2013-08-18 10:35:00,
2013-08-18 05:36:00,71.5,71.5,29.86,NW,312,5.0,8.0,100,0.33,,,1.04,0.00,VWS V14.00,2013-08-18 10:36:00,
2013-08-18 05:37:00,71.5,71.5,29.86,NW,313,6.0,8.0,100,0.33,,,1.04,0.00,VWS V14.00,2013-08-18 10:37:00,
2013-08-18 05:38:00,71.5,71.5,29.86,WNW,299,3.0,8.0,100,0.33,,,1.04,0.00,VWS V14.00,2013-08-18 10:38:00,
2013-08-18 05:39:00,71.5,71.5,29.86,NNW,348,6.0,9.0,100,0.33,,,1.04,0.00,VWS V14.00,2013-08-18 10:39:00,
2013-08-18 05:40:00,71.5,71.5,29.86,NNE,17,7.0,9.0,100,0.34,,,1.05,0.00,VWS V14.00,2013-08-18 10:40:00,
2013-08-18 05:41:00,71.5,71.5,29.86,NNW,328,4.0,9.0,100,0.34,,,1.05,0.00,VWS V14.00,2013-08-18 10:41:00,
2013-08-18 05:42:00,71.5,71.5,29.86,NW,319,7.0,9.0,100,0.34,,,1.05,0.00,VWS V14.00,2013-08-18 10:42:00,
2013-08-18 05:43:00,71.5,71.5,29.86,NW,318,3.0,9.0,100,0.34,,,1.05,0.00,VWS V14.00,2013-08-18 10:43:00,
2013-08-18 05:44:00,71.6,71.6,29.87,NNE,15,0.0,10.0,100,0.35,,,1.06,0.00,VWS V14.00,2013-08-18 10:44:00,
2013-08-18 05:45:00,71.6,71.6,29.87,North,360,2.0,10.0,100,0.35,,,1.06,0.00,VWS V14.00,2013-08-18 10:45:00,
2013-08-18 05:46:00,71.6,71.6,29.87,NNW,329,6.0,10.0,100,0.35,,,1.06,0.00,VWS V14.00,2013-08-18 10:46:00,
2013-08-18 05:47:00,71.6,71.6,29.87,NNE,23,2.0,10.0,100,0.36,,,1.07,0.00,VWS V14.00,2013-08-18 10:47:00,
2013-08-18 05:48:00,71.6,71.6,29.87,NNW,348,4.0,10.0,100,0.36,,,1.07,0.00,VWS V14.00,2013-08-18 10:48:00,
2013-08-18 05:49:00,71.6,71.6,29.87,NNW,339,5.0,10.0,100,0.36,,,1.07,0.00,VWS V14.00,2013-08-18 10:49:00,
2013-08-18 05:50:00,71.6,71.6,29.87,NNW,339,4.0,10.0,100,0.36,,,1.07,0.00,VWS V14.00,2013-08-18 10:50:00,
2013-08-18 05:51:00,71.6,71.6,29.87,NW,311,1.0,10.0,100,0.36,,,1.07,0.00,VWS V14.00,2013-08-18 10:51:00,
2013-08-18 05:52:00,71.6,71.6,29.87,NE,35,0.0,10.0,100,0.36,,,1.07,0.00,VWS V14.00,2013-08-18 10:52:00,
2013-08-18 05:53:00,71.6,71.6,29.87,NNW,343,4.0,10.0,100,0.36,,,1.07,0.00,VWS V14.00,2013-08-18 10:53:00,
2013-08-18 05:54:00,71.6,71.6,29.87,NNE,28,2.0,10.0,100,0.36,,,1.07,0.00,VWS V14.00,2013-08-18 10:54:00,
2013-08-18 05:55:00,71.6,71.6,29.87,NE,34,3.0,10.0,100,0.36,,,1.07,0.00,VWS V14.00,2013-08-18 10:55:00,
2013-08-18 05:56:00,71.6,71.6,29.87,NW,310,0.0,10.0,100,0.36,,,1.07,0.00,VWS V14.00,2013-08-18 10:56:00,
2013-08-18 05:57:00,71.6,71.6,29.87,North,5,1.0,10.0,100,0.36,,,1.07,0.00,VWS V14.00,2013-08-18 10:57:00,
2013-08-18 05:58:00,71.6,71.6,29.87,North,5,2.0,10.0,100,0.36,,,1.07,0.00,VWS V14.00,2013-08-18 10:58:00,
2013-08-18 05:59:00,71.6,71.6,29.86,NNW,331,1.0,10.0,100,0.36,,,1.07,0.00,VWS V14.00,2013-08-18 10:59:00,
2013-08-18 06:00:00,71.6,71.6,29.86,NW,315,2.0,10.0,100,0.37,,,1.08,0.00,VWS V14.00,2013-08-18 11:00:00,
2013-08-18 06:01:00,71.6,71.6,29.86,NW,325,2.0,6.0,100,0.12,,,1.08,0.00,VWS V14.00,2013-08-18 11:01:00,
2013-08-18 06:02:00,71.6,71.6,29.86,NW,325,2.0,6.0,100,0.13,,,1.09,0.00,VWS V14.00,2013-08-18 11:02:00,
2013-08-18 06:03:00,71.6,71.6,29.86,NW,313,7.0,7.0,100,0.13,,,1.09,0.00,VWS V14.00,2013-08-18 11:03:00,
2013-08-18 06:04:00,71.6,71.6,29.86,NW,325,2.0,7.0,100,0.13,,,1.09,0.00,VWS V14.00,2013-08-18 11:04:00,
2013-08-18 06:05:00,71.6,71.6,29.86,North,360,4.0,7.0,100,0.14,,,1.10,0.00,VWS V14.00,2013-08-18 11:05:00,
2013-08-18 06:06:00,71.6,71.6,29.86,North,355,0.0,7.0,100,0.14,,,1.10,0.00,VWS V14.00,2013-08-18 11:06:00,
2013-08-18 06:07:00,71.6,71.6,29.86,NNW,341,2.0,7.0,100,0.15,,,1.11,0.00,VWS V14.00,2013-08-18 11:07:00,
2013-08-18 06:08:00,71.6,71.6,29.86,NE,46,2.0,7.0,100,0.15,,,1.11,0.00,VWS V14.00,2013-08-18 11:08:00,
2013-08-18 06:09:00,71.6,71.6,29.86,WNW,302,5.0,7.0,100,0.16,,,1.12,0.00,VWS V14.00,2013-08-18 11:09:00,
2013-08-18 06:10:00,71.6,71.6,29.86,NE,38,0.0,7.0,100,0.17,,,1.13,0.00,VWS V14.00,2013-08-18 11:10:00,
2013-08-18 06:11:00,71.6,71.6,29.86,NNW,328,7.0,7.0,100,0.18,,,1.14,0.00,VWS V14.00,2013-08-18 11:11:00,
2013-08-18 06:12:00,71.6,71.6,29.86,NE,49,4.0,7.0,100,0.18,,,1.14,0.00,VWS V14.00,2013-08-18 11:12:00,
2013-08-18 06:13:00,71.6,71.6,29.86,NNE,14,3.0,7.0,100,0.19,,,1.15,0.00,VWS V14.00,2013-08-18 11:13:00,
2013-08-18 06:14:00,71.6,71.6,29.86,NNW,329,4.0,7.0,100,0.19,,,1.15,0.00,VWS V14.00,2013-08-18 11:14:00,
2013-08-18 06:15:00,71.6,71.6,29.86,NW,323,2.0,7.0,100,0.20,,,1.16,0.00,VWS V14.00,2013-08-18 11:15:00,
2013-08-18 06:16:00,71.6,71.6,29.86,North,360,1.0,10.0,100,0.21,,,1.17,0.00,VWS V14.00,2013-08-18 11:16:00,
2013-08-18 06:17:00,71.6,71.6,29.86,NNE,14,4.0,10.0,100,0.21,,,1.17,5.00,VWS V14.00,2013-08-18 11:17:00,
2013-08-18 06:18:00,71.6,71.6,29.86,NW,321,4.0,10.0,100,0.21,,,1.17,5.00,VWS V14.00,2013-08-18 11:18:00,
2013-08-18 06:19:00,71.6,71.6,29.86,NNE,30,2.0,10.0,100,0.21,,,1.17,5.00,VWS V14.00,2013-08-18 11:19:00,
2013-08-18 06:22:00,71.5,71.5,29.86,NNW,328,0.0,0.0,100,0.00,,,1.18,5.00,VWS V14.00,2013-08-18 11:22:00,
2013-08-18 06:23:00,71.5,71.5,29.86,NNW,340,4.0,4.0,100,0.22,,,1.18,5.00,VWS V14.00,2013-08-18 11:23:00,
2013-08-18 06:24:00,71.5,71.5,29.86,NNE,12,5.0,7.0,100,0.22,,,1.18,5.00,VWS V14.00,2013-08-18 11:24:00,
2013-08-18 06:25:00,71.5,71.5,29.86,NNW,329,6.0,7.0,100,0.22,,,1.18,7.00,VWS V14.00,2013-08-18 11:25:00,
2013-08-18 06:26:00,71.5,71.5,29.86,NW,307,5.0,7.0,100,0.23,,,1.19,7.00,VWS V14.00,2013-08-18 11:26:00,
2013-08-18 06:27:00,71.3,71.3,29.86,North,355,3.0,7.0,100,0.23,,,1.19,7.00,VWS V14.00,2013-08-18 11:27:00,
2013-08-18 06:28:00,71.3,71.3,29.86,North,355,3.0,7.0,100,0.23,,,1.19,7.00,VWS V14.00,2013-08-18 11:28:00,
2013-08-18 06:29:00,71.3,71.3,29.84,NNW,327,4.0,9.0,100,0.23,,,1.19,7.00,VWS V14.00,2013-08-18 11:29:00,
2013-08-18 06:30:00,71.3,71.3,29.84,NNW,330,5.0,9.0,100,0.23,,,1.19,7.00,VWS V14.00,2013-08-18 11:30:00,
2013-08-18 06:31:00,71.3,71.3,29.84,WNW,290,5.0,7.0,100,0.16,,,1.19,9.00,VWS V14.00,2013-08-18 11:31:00,
2013-08-18 06:32:00,71.1,71.1,29.84,South,191,2.0,7.0,100,0.16,,,1.19,9.00,VWS V14.00,2013-08-18 11:32:00,
2013-08-18 06:33:00,71.1,71.1,29.84,SE,139,0.0,7.0,100,0.16,,,1.19,9.00,VWS V14.00,2013-08-18 11:33:00,
2013-08-18 06:34:00,71.1,71.1,29.84,NNW,329,3.0,7.0,100,0.16,,,1.19,9.00,VWS V14.00,2013-08-18 11:34:00,
2013-08-18 06:35:00,71.1,71.1,29.84,NNW,333,2.0,7.0,100,0.17,,,1.20,9.00,VWS V14.00,2013-08-18 11:35:00,
2013-08-18 06:36:00,71.1,71.1,29.84,NNW,336,4.0,7.0,100,0.17,,,1.20,9.00,VWS V14.00,2013-08-18 11:36:00,
2013-08-18 06:37:00,71.1,71.1,29.84,North,355,5.0,7.0,100,0.17,,,1.20,9.00,VWS V14.00,2013-08-18 11:37:00,
2013-08-18 06:38:00,71.1,71.1,29.84,WNW,290,1.0,7.0,100,0.17,,,1.20,9.00,VWS V14.00,2013-08-18 11:38:00,
2013-08-18 06:39:00,71.1,71.1,29.84,NNW,328,5.0,7.0,100,0.17,,,1.20,11.00,VWS V14.00,2013-08-18 11:39:00,
2013-08-18 06:40:00,71.1,71.1,29.84,NNE,13,3.0,10.0,100,0.18,,,1.21,11.00,VWS V14.00,2013-08-18 11:40:00,
2013-08-18 06:41:00,71.1,71.1,29.84,NW,318,2.0,10.0,100,0.18,,,1.21,11.00,VWS V14.00,2013-08-18 11:41:00,
2013-08-18 06:42:00,71.1,71.1,29.84,NW,315,6.0,10.0,100,0.18,,,1.21,11.00,VWS V14.00,2013-08-18 11:42:00,
2013-08-18 06:43:00,70.9,70.9,29.84,North,5,0.0,10.0,100,0.18,,,1.21,11.00,VWS V14.00,2013-08-18 11:43:00,
2013-08-18 06:44:00,70.9,70.9,29.85,WNW,296,3.0,10.0,100,0.18,,,1.21,11.00,VWS V14.00,2013-08-18 11:44:00,
2013-08-18 06:45:00,70.9,70.9,29.85,NNE,28,3.0,10.0,100,0.18,,,1.21,11.00,VWS V14.00,2013-08-18 11:45:00,
2013-08-18 06:46:00,70.9,70.9,29.85,NNE,31,0.0,10.0,100,0.18,,,1.21,11.00,VWS V14.00,2013-08-18 11:46:00,
2013-08-18 06:47:00,70.9,70.9,29.85,North,360,1.0,10.0,100,0.19,,,1.22,11.00,VWS V14.00,2013-08-18 11:47:00,
2013-08-18 06:48:00,70.9,70.9,29.85,North,350,4.0,10.0,100,0.19,,,1.22,11.00,VWS V14.00,2013-08-18 11:48:00,
2013-08-18 06:49:00,70.9,70.9,29.85,NW,304,6.0,10.0,100,0.19,,,1.22,11.00,VWS V14.00,2013-08-18 11:49:00,
2013-08-18 06:50:00,70.9,70.9,29.85,NW,321,11.0,11.0,100,0.19,,,1.22,11.00,VWS V14.00,2013-08-18 11:50:00,
2013-08-18 06:51:00,70.9,70.9,29.85,North,9,2.0,11.0,100,0.19,,,1.22,11.00,VWS V14.00,2013-08-18 11:51:00,
2013-08-18 06:52:00,70.9,70.9,29.85,NNW,327,1.0,11.0,100,0.19,,,1.22,11.00,VWS V14.00,2013-08-18 11:52:00,
2013-08-18 06:53:00,70.9,70.9,29.85,NNW,342,9.0,11.0,100,0.19,,,1.22,12.00,VWS V14.00,2013-08-18 11:53:00,
2013-08-18 06:54:00,70.9,70.9,29.85,NW,321,3.0,11.0,100,0.19,,,1.22,12.00,VWS V14.00,2013-08-18 11:54:00,
2013-08-18 06:55:00,70.9,70.9,29.85,NNW,344,6.0,12.0,100,0.19,,,1.22,12.00,VWS V14.00,2013-08-18 11:55:00,
2013-08-18 06:56:00,70.8,70.8,29.85,NNW,344,6.0,12.0,100,0.19,,,1.22,12.00,VWS V14.00,2013-08-18 11:56:00,
2013-08-18 06:57:00,70.8,70.8,29.85,NW,317,5.0,12.0,100,0.19,,,1.22,12.00,VWS V14.00,2013-08-18 11:57:00,
2013-08-18 06:58:00,70.8,70.8,29.85,North,349,7.0,12.0,100,0.19,,,1.22,12.00,VWS V14.00,2013-08-18 11:58:00,
2013-08-18 06:59:00,70.8,70.8,29.85,NNW,331,5.0,12.0,100,0.19,,,1.22,12.00,VWS V14.00,2013-08-18 11:59:00,
2013-08-18 07:00:00,70.8,70.8,29.86,WNW,294,3.0,12.0,100,0.19,,,1.22,14.00,VWS V14.00,2013-08-18 12:00:00,
2013-08-18 07:01:00,70.8,70.8,29.86,NE,42,4.0,5.0,100,0.14,,,1.22,14.00,VWS V14.00,2013-08-18 12:01:00,
2013-08-18 07:02:00,70.8,70.8,29.86,NE,51,6.0,6.0,100,0.14,,,1.22,16.00,VWS V14.00,2013-08-18 12:02:00,
2013-08-18 07:03:00,70.8,70.8,29.86,ENE,59,1.0,6.0,100,0.14,,,1.22,16.00,VWS V14.00,2013-08-18 12:03:00,
2013-08-18 07:04:00,70.8,70.8,29.86,NW,325,3.0,6.0,100,0.14,,,1.22,16.00,VWS V14.00,2013-08-18 12:04:00,
2013-08-18 07:05:00,70.8,70.8,29.86,North,5,3.0,6.0,100,0.14,,,1.22,16.00,VWS V14.00,2013-08-18 12:05:00,
2013-08-18 07:06:00,70.8,70.8,29.86,North,360,2.0,6.0,100,0.15,,,1.23,16.00,VWS V14.00,2013-08-18 12:06:00,
2013-08-18 07:07:00,70.8,70.8,29.86,NNE,15,3.0,7.0,100,0.15,,,1.23,16.00,VWS V14.00,2013-08-18 12:07:00,
2013-08-18 07:08:00,70.8,70.8,29.86,North,9,2.0,7.0,100,0.15,,,1.23,16.00,VWS V14.00,2013-08-18 12:08:00,
2013-08-18 07:09:00,70.8,70.8,29.86,NNE,22,2.0,7.0,100,0.15,,,1.23,16.00,VWS V14.00,2013-08-18 12:09:00,
2013-08-18 07:10:00,70.8,70.8,29.86,NW,309,4.0,7.0,100,0.15,,,1.23,16.00,VWS V14.00,2013-08-18 12:10:00,
2013-08-18 07:11:00,70.8,70.8,29.86,NW,325,8.0,8.0,100,0.15,,,1.23,16.00,VWS V14.00,2013-08-18 12:11:00,
2013-08-18 07:12:00,70.8,70.8,29.86,NW,320,4.0,11.0,100,0.15,,,1.23,16.00,VWS V14.00,2013-08-18 12:12:00,
2013-08-18 07:13:00,70.8,70.8,29.86,NNW,336,3.0,11.0,100,0.15,,,1.23,16.00,VWS V14.00,2013-08-18 12:13:00,
2013-08-18 07:14:00,70.8,70.8,29.86,NW,319,7.0,11.0,100,0.15,,,1.23,16.00,VWS V14.00,2013-08-18 12:14:00,
2013-08-18 07:15:00,70.8,70.8,29.86,NNW,342,5.0,11.0,100,0.15,,,1.23,16.00,VWS V14.00,2013-08-18 12:15:00,
2013-08-18 07:16:00,70.8,70.8,29.86,NNW,331,4.0,11.0,100,0.15,,,1.23,16.00,VWS V14.00,2013-08-18 12:16:00,
2013-08-18 07:17:00,70.8,70.8,29.86,NNW,334,6.0,13.0,100,0.15,,,1.23,16.00,VWS V14.00,2013-08-18 12:17:00,
2013-08-18 07:18:00,70.8,70.8,29.86,NNW,335,4.0,13.0,100,0.15,,,1.23,16.00,VWS V14.00,2013-08-18 12:18:00,
2013-08-18 07:19:00,70.8,70.8,29.86,NNW,327,6.0,13.0,100,0.15,,,1.23,16.00,VWS V14.00,2013-08-18 12:19:00,
2013-08-18 07:20:00,70.8,70.8,29.86,NNW,328,6.0,13.0,100,0.15,,,1.23,16.00,VWS V14.00,2013-08-18 12:20:00,
2013-08-18 07:21:00,70.8,70.8,29.86,NNW,348,3.0,13.0,100,0.15,,,1.23,16.00,VWS V14.00,2013-08-18 12:21:00,
2013-08-18 07:22:00,70.8,70.8,29.86,North,5,3.0,13.0,100,0.15,,,1.23,18.00,VWS V14.00,2013-08-18 12:22:00,
2013-08-18 07:23:00,70.9,70.9,29.86,NNW,338,7.0,13.0,100,0.15,,,1.23,18.00,VWS V14.00,2013-08-18 12:23:00,
2013-08-18 07:24:00,70.9,70.9,29.86,NNW,339,2.0,13.0,100,0.15,,,1.23,18.00,VWS V14.00,2013-08-18 12:24:00,
2013-08-18 07:25:00,70.9,70.9,29.86,NNW,327,3.0,13.0,100,0.15,,,1.23,18.00,VWS V14.00,2013-08-18 12:25:00,
2013-08-18 07:26:00,70.9,70.9,29.86,North,351,7.0,13.0,100,0.15,,,1.23,18.00,VWS V14.00,2013-08-18 12:26:00,
2013-08-18 07:27:00,70.9,70.9,29.86,North,350,5.0,13.0,100,0.15,,,1.23,18.00,VWS V14.00,2013-08-18 12:27:00,
2013-08-18 07:28:00,70.9,70.9,29.86,NNW,333,4.0,13.0,100,0.15,,,1.23,18.00,VWS V14.00,2013-08-18 12:28:00,
2013-08-18 07:29:00,70.9,70.9,29.87,NW,310,4.0,13.0,100,0.15,,,1.23,16.00,VWS V14.00,2013-08-18 12:29:00,
2013-08-18 07:30:00,70.9,70.9,29.87,NNW,331,5.0,13.0,100,0.15,,,1.23,12.00,VWS V14.00,2013-08-18 12:30:00,
2013-08-18 07:31:00,70.9,70.9,29.87,NW,316,12.0,12.0,100,0.04,,,1.23,9.00,VWS V14.00,2013-08-18 12:31:00,
2013-08-18 07:32:00,70.9,70.9,29.87,NW,323,5.0,12.0,100,0.04,,,1.23,9.00,VWS V14.00,2013-08-18 12:32:00,
2013-08-18 07:33:00,70.9,70.9,29.87,North,5,2.0,12.0,100,0.04,,,1.23,11.00,VWS V14.00,2013-08-18 12:33:00,
2013-08-18 07:34:00,70.9,70.9,29.87,NW,311,4.0,12.0,100,0.04,,,1.23,11.00,VWS V14.00,2013-08-18 12:34:00,
2013-08-18 07:35:00,70.9,70.9,29.87,NNW,331,3.0,12.0,100,0.04,,,1.23,11.00,VWS V14.00,2013-08-18 12:35:00,
2013-08-18 07:36:00,70.9,70.9,29.87,NW,305,7.0,12.0,100,0.04,,,1.23,11.00,VWS V14.00,2013-08-18 12:36:00,
2013-08-18 07:37:00,70.9,70.9,29.87,NNW,346,5.0,12.0,100,0.04,,,1.23,11.00,VWS V14.00,2013-08-18 12:37:00,
2013-08-18 07:38:00,70.9,70.9,29.87,NNW,336,3.0,12.0,100,0.04,,,1.23,11.00,VWS V14.00,2013-08-18 12:38:00,
2013-08-18 07:39:00,70.9,70.9,29.87,NW,313,5.0,12.0,100,0.04,,,1.23,11.00,VWS V14.00,2013-08-18 12:39:00,
2013-08-18 07:40:00,70.9,70.9,29.87,NW,321,8.0,12.0,100,0.04,,,1.23,12.00,VWS V14.00,2013-08-18 12:40:00,
2013-08-18 07:41:00,70.9,70.9,29.87,NNW,328,2.0,12.0,100,0.04,,,1.23,14.00,VWS V14.00,2013-08-18 12:41:00,
2013-08-18 07:42:00,70.9,70.9,29.87,NNW,344,5.0,12.0,100,0.04,,,1.23,19.00,VWS V14.00,2013-08-18 12:42:00,
2013-08-18 07:43:00,70.9,70.9,29.87,North,350,5.0,12.0,100,0.04,,,1.23,19.00,VWS V14.00,2013-08-18 12:43:00,
2013-08-18 07:44:00,70.9,70.9,29.87,NNW,337,7.0,12.0,100,0.04,,,1.23,21.00,VWS V14.00,2013-08-18 12:44:00,
2013-08-18 07:45:00,70.9,70.9,29.87,NNW,337,2.0,12.0,100,0.04,,,1.23,21.00,VWS V14.00,2013-08-18 12:45:00,
2013-08-18 07:46:00,71.1,71.1,29.87,NW,319,0.0,12.0,100,0.04,,,1.23,23.00,VWS V14.00,2013-08-18 12:46:00,
2013-08-18 07:47:00,71.1,71.1,29.87,NNW,329,4.0,12.0,100,0.04,,,1.23,25.00,VWS V14.00,2013-08-18 12:47:00,
2013-08-18 07:48:00,71.1,71.1,29.87,NNW,339,3.0,12.0,100,0.04,,,1.23,25.00,VWS V14.00,2013-08-18 12:48:00,
2013-08-18 07:49:00,71.1,71.1,29.87,NNW,339,2.0,12.0,100,0.04,,,1.23,25.00,VWS V14.00,2013-08-18 12:49:00,
2013-08-18 07:50:00,71.1,71.1,29.87,NNW,339,3.0,12.0,100,0.04,,,1.23,23.00,VWS V14.00,2013-08-18 12:50:00,
2013-08-18 07:51:00,71.1,71.1,29.87,NW,321,9.0,12.0,100,0.04,,,1.23,23.00,VWS V14.00,2013-08-18 12:51:00,
2013-08-18 07:52:00,71.1,71.1,29.87,NW,326,3.0,12.0,100,0.04,,,1.23,21.00,VWS V14.00,2013-08-18 12:52:00,
2013-08-18 07:53:00,71.1,71.1,29.87,North,10,2.0,12.0,100,0.04,,,1.23,19.00,VWS V14.00,2013-08-18 12:53:00,
2013-08-18 07:54:00,71.1,71.1,29.87,North,350,2.0,12.0,100,0.04,,,1.23,19.00,VWS V14.00,2013-08-18 12:54:00,
2013-08-18 07:55:00,71.1,71.1,29.87,NW,309,4.0,12.0,100,0.04,,,1.23,19.00,VWS V14.00,2013-08-18 12:55:00,
2013-08-18 07:56:00,71.1,71.1,29.87,NW,309,0.0,12.0,100,0.04,,,1.23,19.00,VWS V14.00,2013-08-18 12:56:00,
2013-08-18 07:57:00,71.1,71.1,29.87,NNW,331,2.0,12.0,100,0.04,,,1.23,18.00,VWS V14.00,2013-08-18 12:57:00,
2013-08-18 07:58:00,71.1,71.1,29.87,NNW,333,3.0,12.0,100,0.04,,,1.23,16.00,VWS V14.00,2013-08-18 12:58:00,
2013-08-18 07:59:00,71.1,71.1,29.88,North,355,3.0,12.0,100,0.04,,,1.23,19.00,VWS V14.00,2013-08-18 12:59:00,
2013-08-18 08:00:00,71.1,71.1,29.88,NW,313,3.0,12.0,100,0.04,,,1.23,19.00,VWS V14.00,2013-08-18 13:00:00,
2013-08-18 08:01:00,71.1,71.1,29.88,NNW,339,5.0,9.0,100,0.01,,,1.23,21.00,VWS V14.00,2013-08-18 13:01:00,
2013-08-18 08:02:00,71.1,71.1,29.88,NNW,338,5.0,9.0,100,0.01,,,1.23,23.00,VWS V14.00,2013-08-18 13:02:00,
2013-08-18 08:03:00,71.3,71.3,29.88,NNW,344,2.0,9.0,100,0.01,,,1.23,21.00,VWS V14.00,2013-08-18 13:03:00,
2013-08-18 08:04:00,71.3,71.3,29.88,NNW,341,3.0,9.0,100,0.01,,,1.23,23.00,VWS V14.00,2013-08-18 13:04:00,
2013-08-18 08:05:00,71.3,71.3,29.88,NNW,329,2.0,9.0,100,0.01,,,1.23,25.00,VWS V14.00,2013-08-18 13:05:00,
2013-08-18 08:06:00,71.3,71.3,29.88,NW,317,3.0,9.0,100,0.01,,,1.23,30.00,VWS V14.00,2013-08-18 13:06:00,
2013-08-18 08:07:00,71.3,71.3,29.88,NW,321,0.0,9.0,100,0.01,,,1.23,30.00,VWS V14.00,2013-08-18 13:07:00,
2013-08-18 08:08:00,71.3,71.3,29.88,NW,321,0.0,9.0,100,0.01,,,1.23,30.00,VWS V14.00,2013-08-18 13:08:00,
2013-08-18 08:09:00,71.3,71.3,29.88,NNW,346,0.0,9.0,100,0.01,,,1.23,33.00,VWS V14.00,2013-08-18 13:09:00,
2013-08-18 08:10:00,71.3,71.3,29.88,NNW,346,3.0,9.0,100,0.01,,,1.23,32.00,VWS V14.00,2013-08-18 13:10:00,
2013-08-18 08:11:00,71.3,71.3,29.88,NNW,332,2.0,9.0,100,0.01,,,1.23,28.00,VWS V14.00,2013-08-18 13:11:00,
2013-08-18 08:12:00,71.3,71.3,29.88,NNW,332,1.0,9.0,100,0.01,,,1.23,26.00,VWS V14.00,2013-08-18 13:12:00,
2013-08-18 08:13:00,71.3,71.3,29.88,NNW,332,3.0,9.0,100,0.01,,,1.23,30.00,VWS V14.00,2013-08-18 13:13:00,
2013-08-18 08:14:00,71.3,71.3,29.88,NNW,332,0.0,9.0,100,0.02,,,1.24,35.00,VWS V14.00,2013-08-18 13:14:00,
2013-08-18 08:15:00,71.3,71.3,29.88,NW,323,3.0,9.0,100,0.02,,,1.24,40.00,VWS V14.00,2013-08-18 13:15:00,
2013-08-18 08:16:00,71.5,71.5,29.88,NW,324,3.0,9.0,100,0.02,,,1.24,39.00,VWS V14.00,2013-08-18 13:16:00,
2013-08-18 08:17:00,71.5,71.5,29.88,NNW,338,4.0,9.0,100,0.02,,,1.24,35.00,VWS V14.00,2013-08-18 13:17:00,
2013-08-18 08:18:00,71.5,71.5,29.88,NNW,330,2.0,9.0,100,0.02,,,1.24,37.00,VWS V14.00,2013-08-18 13:18:00,
2013-08-18 08:19:00,71.5,71.5,29.88,NNW,330,3.0,9.0,100,0.02,,,1.24,35.00,VWS V14.00,2013-08-18 13:19:00,
2013-08-18 08:20:00,71.5,71.5,29.88,NNW,330,2.0,9.0,100,0.02,,,1.24,37.00,VWS V14.00,2013-08-18 13:20:00,
2013-08-18 08:21:00,71.5,71.5,29.88,NNW,333,5.0,9.0,100,0.02,,,1.24,47.00,VWS V14.00,2013-08-18 13:21:00,
2013-08-18 08:22:00,71.5,71.5,29.88,NNW,333,3.0,9.0,100,0.02,,,1.24,47.00,VWS V14.00,2013-08-18 13:22:00,
2013-08-18 08:23:00,71.5,71.5,29.88,NNW,333,0.0,9.0,100,0.02,,,1.24,51.00,VWS V14.00,2013-08-18 13:23:00,
2013-08-18 08:24:00,71.5,71.5,29.88,NNW,333,0.0,9.0,100,0.02,,,1.24,54.00,VWS V14.00,2013-08-18 13:24:00,
2013-08-18 08:25:00,71.5,71.5,29.88,NNW,333,0.0,9.0,100,0.02,,,1.24,54.00,VWS V14.00,2013-08-18 13:25:00,
2013-08-18 08:26:00,71.5,71.5,29.88,NNW,333,0.0,9.0,100,0.02,,,1.24,56.00,VWS V14.00,2013-08-18 13:26:00,
2013-08-18 08:27:00,71.6,71.6,29.88,NNW,333,3.0,9.0,100,0.02,,,1.24,58.00,VWS V14.00,2013-08-18 13:27:00,
2013-08-18 08:28:00,71.6,71.6,29.88,NNW,333,5.0,9.0,100,0.02,,,1.24,58.00,VWS V14.00,2013-08-18 13:28:00,
2013-08-18 08:29:00,71.6,71.6,29.88,NNW,333,3.0,9.0,100,0.02,,,1.24,56.00,VWS V14.00,2013-08-18 13:29:00,
2013-08-18 08:30:00,71.6,71.6,29.88,NNW,333,3.0,9.0,100,0.02,,,1.24,58.00,VWS V14.00,2013-08-18 13:30:00,
2013-08-18 08:31:00,71.6,71.6,29.88,NNW,333,2.0,4.0,100,0.01,,,1.24,63.00,VWS V14.00,2013-08-18 13:31:00,
2013-08-18 08:32:00,71.6,71.6,29.88,NNW,333,0.0,4.0,100,0.01,,,1.24,67.00,VWS V14.00,2013-08-18 13:32:00,
2013-08-18 08:33:00,71.6,71.6,29.88,NNW,333,0.0,4.0,100,0.01,,,1.24,70.00,VWS V14.00,2013-08-18 13:33:00,
2013-08-18 08:34:00,71.8,71.8,29.88,NNW,333,5.0,6.0,100,0.01,,,1.24,77.00,VWS V14.00,2013-08-18 13:34:00,
2013-08-18 08:35:00,71.8,71.8,29.88,NNW,333,1.0,6.0,100,0.01,,,1.24,86.00,VWS V14.00,2013-08-18 13:35:00,
2013-08-18 08:36:00,71.8,71.8,29.88,NNW,333,2.0,6.0,100,0.01,,,1.24,91.00,VWS V14.00,2013-08-18 13:36:00,
2013-08-18 08:37:00,71.8,71.8,29.88,NNW,333,3.0,6.0,100,0.01,,,1.24,97.00,VWS V14.00,2013-08-18 13:37:00,
2013-08-18 08:38:00,71.8,71.8,29.88,NNW,333,4.0,6.0,100,0.01,,,1.24,98.00,VWS V14.00,2013-08-18 13:38:00,
2013-08-18 08:39:00,72.0,72.0,29.88,NNW,327,4.0,6.0,100,0.01,,,1.24,104.00,VWS V14.00,2013-08-18 13:39:00,
2013-08-18 08:40:00,72.0,72.0,29.88,NNW,327,1.0,6.0,100,0.01,,,1.24,107.00,VWS V14.00,2013-08-18 13:40:00,
2013-08-18 08:41:00,72.0,72.0,29.88,NW,311,5.0,7.0,100,0.01,,,1.24,109.00,VWS V14.00,2013-08-18 13:41:00,
2013-08-18 08:42:00,72.0,72.0,29.88,NW,315,3.0,7.0,100,0.01,,,1.24,113.00,VWS V14.00,2013-08-18 13:42:00,
2013-08-18 08:43:00,72.0,72.0,29.88,NW,326,8.0,10.0,100,0.01,,,1.24,116.00,VWS V14.00,2013-08-18 13:43:00,
2013-08-18 08:44:00,72.0,72.0,29.88,NW,321,3.0,10.0,100,0.01,,,1.24,120.00,VWS V14.00,2013-08-18 13:44:00,
2013-08-18 08:45:00,72.1,72.1,29.88,NW,320,3.0,10.0,100,0.01,,,1.24,121.00,VWS V14.00,2013-08-18 13:45:00,
2013-08-18 08:46:00,72.1,72.1,29.88,NW,323,4.0,10.0,100,0.01,,,1.24,121.00,VWS V14.00,2013-08-18 13:46:00,
2013-08-18 08:47:00,72.1,72.1,29.88,NW,319,6.0,10.0,100,0.01,,,1.24,123.00,VWS V14.00,2013-08-18 13:47:00,
2013-08-18 08:48:00,72.1,72.1,29.88,NW,323,4.0,10.0,100,0.01,,,1.24,125.00,VWS V14.00,2013-08-18 13:48:00,
2013-08-18 08:49:00,72.1,72.1,29.88,North,355,5.0,10.0,100,0.01,,,1.24,125.00,VWS V14.00,2013-08-18 13:49:00,
2013-08-18 08:50:00,72.1,72.1,29.88,NNW,342,4.0,10.0,100,0.01,,,1.24,127.00,VWS V14.00,2013-08-18 13:50:00,
2013-08-18 08:51:00,72.1,72.1,29.88,NNW,342,0.0,10.0,100,0.01,,,1.24,128.00,VWS V14.00,2013-08-18 13:51:00,
2013-08-18 08:52:00,72.3,72.3,29.88,NNW,342,2.0,10.0,100,0.01,,,1.24,121.00,VWS V14.00,2013-08-18 13:52:00,
2013-08-18 08:53:00,72.3,72.3,29.88,NW,304,4.0,10.0,100,0.01,,,1.24,91.00,VWS V14.00,2013-08-18 13:53:00,
2013-08-18 08:54:00,72.3,72.3,29.88,NW,323,4.0,10.0,100,0.01,,,1.24,77.00,VWS V14.00,2013-08-18 13:54:00,
2013-08-18 08:55:00,72.3,72.3,29.88,NW,322,1.0,10.0,100,0.01,,,1.24,72.00,VWS V14.00,2013-08-18 13:55:00,
2013-08-18 08:56:00,72.5,72.5,29.88,NW,322,5.0,10.0,100,0.01,,,1.24,79.00,VWS V14.00,2013-08-18 13:56:00,
2013-08-18 08:57:00,72.5,72.5,29.88,NNW,333,2.0,10.0,100,0.01,,,1.24,95.00,VWS V14.00,2013-08-18 13:57:00,
2013-08-18 08:58:00,72.5,72.5,29.88,NNW,333,6.0,10.0,100,0.01,,,1.24,113.00,VWS V14.00,2013-08-18 13:58:00,
2013-08-18 08:59:00,72.5,72.5,29.89,NNW,339,4.0,10.0,100,0.01,,,1.24,146.00,VWS V14.00,2013-08-18 13:59:00,
2013-08-18 09:00:00,72.5,72.5,29.89,NW,306,4.0,10.0,100,0.01,,,1.24,153.00,VWS V14.00,2013-08-18 14:00:00,
2013-08-18 09:01:00,72.7,72.7,29.89,NW,321,4.0,6.0,100,0.01,,,1.24,158.00,VWS V14.00,2013-08-18 14:01:00,
2013-08-18 09:02:00,72.7,72.7,29.89,NW,314,3.0,8.0,100,0.01,,,1.24,165.00,VWS V14.00,2013-08-18 14:02:00,
2013-08-18 09:03:00,72.7,72.7,29.89,NW,312,4.0,8.0,100,0.01,,,1.24,169.00,VWS V14.00,2013-08-18 14:03:00,
2013-08-18 09:04:00,72.7,72.7,29.89,NW,313,1.0,8.0,100,0.01,,,1.24,163.00,VWS V14.00,2013-08-18 14:04:00,
2013-08-18 09:05:00,72.7,72.7,29.89,NW,313,2.0,8.0,100,0.01,,,1.24,156.00,VWS V14.00,2013-08-18 14:05:00,
2013-08-18 09:06:00,72.7,72.7,29.89,NW,313,4.0,8.0,100,0.01,,,1.24,151.00,VWS V14.00,2013-08-18 14:06:00,
2013-08-18 09:07:00,72.8,72.8,29.89,WNW,301,2.0,8.0,100,0.01,,,1.24,155.00,VWS V14.00,2013-08-18 14:07:00,
2013-08-18 09:08:00,72.8,72.8,29.89,WNW,301,2.0,8.0,100,0.01,,,1.24,155.00,VWS V14.00,2013-08-18 14:08:00,
2013-08-18 09:09:00,72.8,72.8,29.89,NNW,329,4.0,8.0,100,0.01,,,1.24,160.00,VWS V14.00,2013-08-18 14:09:00,
2013-08-18 09:10:00,73.0,73.0,29.89,WNW,291,1.0,8.0,100,0.01,,,1.24,167.00,VWS V14.00,2013-08-18 14:10:00,
2013-08-18 09:11:00,73.0,73.0,29.89,North,355,4.0,8.0,100,0.01,,,1.24,200.00,VWS V14.00,2013-08-18 14:11:00,
2013-08-18 09:12:00,73.0,73.0,29.89,NW,318,3.0,8.0,100,0.01,,,1.24,227.00,VWS V14.00,2013-08-18 14:12:00,
2013-08-18 09:13:00,73.2,73.2,29.89,NNW,332,3.0,8.0,100,0.01,,,1.24,244.00,VWS V14.00,2013-08-18 14:13:00,
2013-08-18 09:14:00,73.2,73.2,29.89,NNW,331,5.0,8.0,100,0.01,,,1.24,243.00,VWS V14.00,2013-08-18 14:14:00,
2013-08-18 09:15:00,73.2,73.2,29.89,NNW,331,5.0,8.0,100,0.01,,,1.24,244.00,VWS V14.00,2013-08-18 14:15:00,
2013-08-18 09:16:00,73.3,73.3,29.89,NW,321,4.0,8.0,100,0.01,,,1.24,288.00,VWS V14.00,2013-08-18 14:16:00,
2013-08-18 09:17:00,73.3,73.3,29.89,NNW,331,5.0,8.0,100,0.01,,,1.24,272.00,VWS V14.00,2013-08-18 14:17:00,
2013-08-18 09:18:00,73.5,73.5,29.89,NNW,346,1.0,8.0,100,0.01,,,1.24,241.00,VWS V14.00,2013-08-18 14:18:00,
2013-08-18 09:19:00,73.5,73.5,29.89,NW,321,7.0,8.0,100,0.01,,,1.24,211.00,VWS V14.00,2013-08-18 14:19:00,
2013-08-18 09:20:00,73.5,73.5,29.89,North,355,2.0,8.0,100,0.01,,,1.24,174.00,VWS V14.00,2013-08-18 14:20:00,
2013-08-18 09:21:00,73.7,73.7,29.89,NNW,330,4.0,8.0,100,0.01,,,1.24,127.00,VWS V14.00,2013-08-18 14:21:00,
2013-08-18 09:22:00,73.7,73.7,29.89,North,9,2.0,8.0,100,0.01,,,1.24,114.00,VWS V14.00,2013-08-18 14:22:00,
2013-08-18 09:23:00,73.7,73.7,29.89,NW,320,3.0,8.0,100,0.01,,,1.24,114.00,VWS V14.00,2013-08-18 14:23:00,
2013-08-18 09:24:00,73.7,73.7,29.89,NW,322,2.0,8.0,100,0.01,,,1.24,125.00,VWS V14.00,2013-08-18 14:24:00,
2013-08-18 09:25:00,73.7,73.7,29.89,NW,322,0.0,8.0,100,0.01,,,1.24,146.00,VWS V14.00,2013-08-18 14:25:00,
2013-08-18 09:26:00,73.7,73.7,29.89,NW,309,3.0,8.0,100,0.01,,,1.24,171.00,VWS V14.00,2013-08-18 14:26:00,
2013-08-18 09:27:00,73.7,73.7,29.89,NW,318,4.0,8.0,100,0.01,,,1.24,172.00,VWS V14.00,2013-08-18 14:27:00,
2013-08-18 09:28:00,73.7,73.7,29.89,NW,318,1.0,8.0,100,0.01,,,1.24,141.00,VWS V14.00,2013-08-18 14:28:00,
2013-08-18 09:29:00,73.9,73.9,29.89,NW,318,0.0,8.0,100,0.01,,,1.24,114.00,VWS V14.00,2013-08-18 14:29:00,
2013-08-18 09:30:00,73.9,73.9,29.89,NW,315,5.0,8.0,100,0.01,,,1.24,93.00,VWS V14.00,2013-08-18 14:30:00,
2013-08-18 09:31:00,73.9,73.9,29.89,NW,313,1.0,5.0,100,0.00,,,1.24,83.00,VWS V14.00,2013-08-18 14:31:00,
2013-08-18 09:32:00,73.9,73.9,29.89,NW,313,1.0,5.0,100,0.02,,,1.26,83.00,VWS V14.00,2013-08-18 14:32:00,
2013-08-18 09:33:00,73.9,73.9,29.89,NW,313,1.0,5.0,100,0.02,,,1.26,88.00,VWS V14.00,2013-08-18 14:33:00,
2013-08-18 09:34:00,73.9,73.9,29.89,NW,313,0.0,5.0,100,0.03,,,1.27,91.00,VWS V14.00,2013-08-18 14:34:00,
2013-08-18 09:35:00,74.0,74.0,29.89,NW,313,2.0,5.0,100,0.03,,,1.27,91.00,VWS V14.00,2013-08-18 14:35:00,
2013-08-18 09:36:00,74.0,74.0,29.89,NW,313,3.0,5.0,100,0.04,,,1.28,84.00,VWS V14.00,2013-08-18 14:36:00,
2013-08-18 09:37:00,74.0,74.0,29.89,NW,313,0.0,5.0,100,0.04,,,1.28,72.00,VWS V14.00,2013-08-18 14:37:00,
2013-08-18 09:38:00,74.0,74.0,29.89,NW,313,4.0,5.0,100,0.04,,,1.28,69.00,VWS V14.00,2013-08-18 14:38:00,
2013-08-18 09:39:00,74.0,74.0,29.89,NW,317,3.0,5.0,100,0.04,,,1.28,69.00,VWS V14.00,2013-08-18 14:39:00,
2013-08-18 09:40:00,74.0,74.0,29.89,NW,317,3.0,5.0,100,0.04,,,1.28,93.00,VWS V14.00,2013-08-18 14:40:00,
2013-08-18 09:41:00,74.0,74.0,29.89,NW,317,1.0,5.0,100,0.04,,,1.28,130.00,VWS V14.00,2013-08-18 14:41:00,
2013-08-18 09:42:00,74.0,74.0,29.89,NNW,332,7.0,7.0,100,0.04,,,1.28,171.00,VWS V14.00,2013-08-18 14:42:00,
2013-08-18 09:43:00,74.2,74.2,29.89,NNE,29,0.0,7.0,100,0.04,,,1.28,206.00,VWS V14.00,2013-08-18 14:43:00,
2013-08-18 09:44:00,74.2,74.2,29.89,North,9,2.0,7.0,100,0.04,,,1.28,186.00,VWS V14.00,2013-08-18 14:44:00,
2013-08-18 09:45:00,74.4,74.4,29.89,North,5,0.0,7.0,100,0.04,,,1.28,186.00,VWS V14.00,2013-08-18 14:45:00,
2013-08-18 09:46:00,74.4,74.4,29.89,North,5,0.0,7.0,100,0.04,,,1.28,204.00,VWS V14.00,2013-08-18 14:46:00,
2013-08-18 09:47:00,74.4,74.4,29.89,North,5,0.0,7.0,100,0.04,,,1.28,209.00,VWS V14.00,2013-08-18 14:47:00,
2013-08-18 09:48:00,74.6,74.6,29.89,North,5,1.0,7.0,100,0.04,,,1.28,206.00,VWS V14.00,2013-08-18 14:48:00,
2013-08-18 09:49:00,74.6,74.6,29.89,North,355,0.0,7.0,100,0.04,,,1.28,213.00,VWS V14.00,2013-08-18 14:49:00,
2013-08-18 09:50:00,74.7,74.7,29.89,North,9,0.0,7.0,100,0.04,,,1.28,260.00,VWS V14.00,2013-08-18 14:50:00,
2013-08-18 09:51:00,74.7,74.7,29.89,North,5,1.0,7.0,100,0.04,,,1.28,260.00,VWS V14.00,2013-08-18 14:51:00,
2013-08-18 09:52:00,74.9,74.9,29.89,North,349,0.0,7.0,100,0.04,,,1.28,446.00,VWS V14.00,2013-08-18 14:52:00,
2013-08-18 09:53:00,75.1,75.1,29.89,North,349,0.0,7.0,100,0.04,,,1.28,403.00,VWS V14.00,2013-08-18 14:53:00,
2013-08-18 09:54:00,75.1,75.1,29.89,North,349,2.0,7.0,100,0.04,,,1.28,452.00,VWS V14.00,2013-08-18 14:54:00,
2013-08-18 09:55:00,75.3,75.3,29.89,North,349,0.0,7.0,100,0.04,,,1.28,475.00,VWS V14.00,2013-08-18 14:55:00,
2013-08-18 09:56:00,75.4,75.4,29.89,NE,36,1.0,7.0,100,0.04,,,1.28,454.00,VWS V14.00,2013-08-18 14:56:00,
2013-08-18 09:57:00,75.6,75.6,29.89,ENE,73,2.0,7.0,100,0.04,,,1.28,422.00,VWS V14.00,2013-08-18 14:57:00,
2013-08-18 09:58:00,76.0,76.0,29.89,North,11,3.0,7.0,100,0.04,,,1.28,302.00,VWS V14.00,2013-08-18 14:58:00,
2013-08-18 09:59:00,76.0,76.0,29.89,NNE,15,3.0,7.0,100,0.04,,,1.28,248.00,VWS V14.00,2013-08-18 14:59:00,
2013-08-18 10:00:00,76.1,76.1,29.89,North,360,1.0,7.0,100,0.04,,,1.28,229.00,VWS V14.00,2013-08-18 15:00:00,
2013-08-18 10:01:00,76.3,76.3,29.89,North,5,0.0,3.0,100,0.04,,,1.28,243.00,VWS V14.00,2013-08-18 15:01:00,
2013-08-18 10:02:00,76.3,76.3,29.89,North,5,0.0,3.0,100,0.04,,,1.28,220.00,VWS V14.00,2013-08-18 15:02:00,
2013-08-18 10:03:00,76.3,76.3,29.89,North,5,0.0,3.0,100,0.04,,,1.28,181.00,VWS V14.00,2013-08-18 15:03:00,
2013-08-18 10:04:00,76.5,76.5,29.89,North,5,1.0,3.0,100,0.04,,,1.28,192.00,VWS V14.00,2013-08-18 15:04:00,
2013-08-18 10:05:00,76.5,76.5,29.89,NNW,342,0.0,3.0,100,0.04,,,1.28,211.00,VWS V14.00,2013-08-18 15:05:00,
2013-08-18 10:06:00,76.5,76.5,29.89,NNW,342,0.0,3.0,100,0.04,,,1.28,230.00,VWS V14.00,2013-08-18 15:06:00,
2013-08-18 10:07:00,76.5,76.5,29.89,NNE,17,1.0,4.0,100,0.04,,,1.28,230.00,VWS V14.00,2013-08-18 15:07:00,
2013-08-18 10:08:00,76.7,76.7,29.89,NE,40,1.0,4.0,100,0.04,,,1.28,221.00,VWS V14.00,2013-08-18 15:08:00,
2013-08-18 10:09:00,76.7,76.7,29.89,NE,40,0.0,4.0,100,0.04,,,1.28,221.00,VWS V14.00,2013-08-18 15:09:00,
2013-08-18 10:10:00,76.7,76.7,29.89,NE,40,0.0,4.0,100,0.04,,,1.28,239.00,VWS V14.00,2013-08-18 15:10:00,
2013-08-18 10:11:00,76.7,76.7,29.89,NE,40,0.0,4.0,100,0.04,,,1.28,244.00,VWS V14.00,2013-08-18 15:11:00,
2013-08-18 10:12:00,76.7,76.7,29.89,NE,40,2.0,4.0,100,0.04,,,1.28,250.00,VWS V14.00,2013-08-18 15:12:00,
2013-08-18 10:13:00,76.7,76.7,29.89,NE,40,0.0,4.0,100,0.04,,,1.28,257.00,VWS V14.00,2013-08-18 15:13:00,
2013-08-18 10:14:00,76.7,76.7,29.89,NE,40,0.0,4.0,100,0.04,,,1.28,262.00,VWS V14.00,2013-08-18 15:14:00,
2013-08-18 10:15:00,76.8,76.8,29.89,NE,40,0.0,4.0,100,0.04,,,1.28,244.00,VWS V14.00,2013-08-18 15:15:00,
2013-08-18 10:16:00,76.8,76.8,29.89,NE,40,0.0,4.0,100,0.04,,,1.28,232.00,VWS V14.00,2013-08-18 15:16:00,
2013-08-18 10:17:00,76.8,76.8,29.89,NE,40,0.0,4.0,100,0.04,,,1.28,229.00,VWS V14.00,2013-08-18 15:17:00,
2013-08-18 10:18:00,76.8,76.8,29.89,NE,40,0.0,4.0,100,0.04,,,1.28,234.00,VWS V14.00,2013-08-18 15:18:00,
2013-08-18 10:19:00,76.8,76.8,29.89,NE,40,0.0,4.0,100,0.04,,,1.28,234.00,VWS V14.00,2013-08-18 15:19:00,
2013-08-18 10:20:00,76.8,76.8,29.89,NE,40,0.0,4.0,100,0.04,,,1.28,232.00,VWS V14.00,2013-08-18 15:20:00,
2013-08-18 10:21:00,76.8,76.8,29.89,NE,40,0.0,4.0,100,0.04,,,1.28,183.00,VWS V14.00,2013-08-18 15:21:00,
2013-08-18 10:22:00,76.8,76.8,29.89,NE,40,0.0,4.0,100,0.04,,,1.28,149.00,VWS V14.00,2013-08-18 15:22:00,
2013-08-18 10:23:00,76.8,76.8,29.89,NE,41,2.0,4.0,100,0.04,,,1.28,141.00,VWS V14.00,2013-08-18 15:23:00,
2013-08-18 10:24:00,77.0,77.0,29.89,NE,48,0.0,4.0,100,0.04,,,1.28,149.00,VWS V14.00,2013-08-18 15:24:00,
2013-08-18 10:25:00,76.8,76.8,29.89,NE,48,2.0,4.0,100,0.04,,,1.28,165.00,VWS V14.00,2013-08-18 15:25:00,
2013-08-18 10:26:00,76.8,76.8,29.89,South,184,1.0,4.0,100,0.04,,,1.28,195.00,VWS V14.00,2013-08-18 15:26:00,
2013-08-18 10:27:00,76.8,76.8,29.89,SSE,166,1.0,4.0,100,0.04,,,1.28,230.00,VWS V14.00,2013-08-18 15:27:00,
2013-08-18 10:28:00,76.8,76.8,29.89,SSE,157,1.0,4.0,100,0.04,,,1.28,221.00,VWS V14.00,2013-08-18 15:28:00,
2013-08-18 10:29:00,76.8,76.8,29.88,South,188,3.0,8.0,100,0.04,,,1.28,204.00,VWS V14.00,2013-08-18 15:29:00,
2013-08-18 10:30:00,76.7,76.7,29.88,ESE,122,2.0,8.0,100,0.04,,,1.28,188.00,VWS V14.00,2013-08-18 15:30:00,
2013-08-18 10:31:00,76.7,76.7,29.88,SE,142,2.0,5.0,100,0.04,,,1.28,188.00,VWS V14.00,2013-08-18 15:31:00,
2013-08-18 10:32:00,76.5,76.5,29.88,SE,142,1.0,5.0,100,0.04,,,1.28,163.00,VWS V14.00,2013-08-18 15:32:00,
2013-08-18 10:33:00,76.5,76.5,29.88,SE,142,0.0,5.0,100,0.04,,,1.28,149.00,VWS V14.00,2013-08-18 15:33:00,
2013-08-18 10:34:00,76.5,76.5,29.88,SE,142,0.0,5.0,100,0.04,,,1.28,149.00,VWS V14.00,2013-08-18 15:34:00,
2013-08-18 10:35:00,76.5,76.5,29.88,SE,142,0.0,5.0,100,0.04,,,1.28,148.00,VWS V14.00,2013-08-18 15:35:00,
2013-08-18 10:36:00,76.5,76.5,29.88,South,169,3.0,5.0,100,0.04,,,1.28,144.00,VWS V14.00,2013-08-18 15:36:00,
2013-08-18 10:37:00,76.5,76.5,29.88,South,187,1.0,5.0,100,0.04,,,1.28,162.00,VWS V14.00,2013-08-18 15:37:00,
2013-08-18 10:38:00,76.5,76.5,29.88,South,188,3.0,5.0,100,0.04,,,1.28,229.00,VWS V14.00,2013-08-18 15:38:00,
2013-08-18 10:39:00,76.5,76.5,29.88,South,171,1.0,5.0,100,0.05,,,1.29,253.00,VWS V14.00,2013-08-18 15:39:00,
2013-08-18 10:40:00,76.5,76.5,29.88,SSE,150,3.0,5.0,100,0.05,,,1.29,288.00,VWS V14.00,2013-08-18 15:40:00,
2013-08-18 10:41:00,76.5,76.5,29.88,ESE,119,1.0,5.0,100,0.05,,,1.29,343.00,VWS V14.00,2013-08-18 15:41:00,
2013-08-18 10:42:00,76.5,76.5,29.88,ESE,119,1.0,5.0,100,0.05,,,1.29,390.00,VWS V14.00,2013-08-18 15:42:00,
2013-08-18 10:43:00,76.5,76.5,29.88,SE,141,2.0,5.0,100,0.05,,,1.29,397.00,VWS V14.00,2013-08-18 15:43:00,
2013-08-18 10:44:00,76.7,76.7,29.88,SSE,167,5.0,5.0,100,0.05,,,1.29,390.00,VWS V14.00,2013-08-18 15:44:00,
2013-08-18 10:45:00,76.7,76.7,29.88,SW,219,4.0,6.0,100,0.05,,,1.29,443.00,VWS V14.00,2013-08-18 15:45:00,
2013-08-18 10:46:00,76.7,76.7,29.88,SE,137,2.0,7.0,100,0.05,,,1.29,374.00,VWS V14.00,2013-08-18 15:46:00,
2013-08-18 10:47:00,76.8,76.8,29.88,SE,137,0.0,7.0,100,0.05,,,1.29,381.00,VWS V14.00,2013-08-18 15:47:00,
2013-08-18 10:48:00,76.8,76.8,29.88,SE,137,1.0,7.0,100,0.05,,,1.29,327.00,VWS V14.00,2013-08-18 15:48:00,
2013-08-18 10:49:00,76.8,76.8,29.88,SE,137,2.0,7.0,100,0.05,,,1.29,302.00,VWS V14.00,2013-08-18 15:49:00,
2013-08-18 10:50:00,76.8,76.8,29.88,South,176,4.0,9.0,100,0.05,,,1.29,251.00,VWS V14.00,2013-08-18 15:50:00,
2013-08-18 10:51:00,76.8,76.8,29.88,South,175,5.0,9.0,100,0.05,,,1.29,237.00,VWS V14.00,2013-08-18 15:51:00,
2013-08-18 10:52:00,76.7,76.7,29.88,South,186,5.0,9.0,100,0.05,,,1.29,246.00,VWS V14.00,2013-08-18 15:52:00,
2013-08-18 10:53:00,76.7,76.7,29.88,SE,132,1.0,9.0,100,0.05,,,1.29,255.00,VWS V14.00,2013-08-18 15:53:00,
2013-08-18 10:54:00,76.7,76.7,29.88,SSW,194,2.0,9.0,100,0.05,,,1.29,265.00,VWS V14.00,2013-08-18 15:54:00,
2013-08-18 10:55:00,76.7,76.7,29.88,SSW,194,0.0,9.0,100,0.05,,,1.29,316.00,VWS V14.00,2013-08-18 15:55:00,
2013-08-18 10:56:00,76.7,76.7,29.88,SSW,194,0.0,9.0,100,0.05,,,1.29,330.00,VWS V14.00,2013-08-18 15:56:00,
2013-08-18 10:57:00,76.8,76.8,29.88,SSW,194,0.0,9.0,100,0.05,,,1.29,313.00,VWS V14.00,2013-08-18 15:57:00,
2013-08-18 10:58:00,76.8,76.8,29.88,SSW,194,1.0,9.0,100,0.05,,,1.29,255.00,VWS V14.00,2013-08-18 15:58:00,
2013-08-18 10:59:00,77.0,77.0,29.88,SSW,194,0.0,9.0,100,0.05,,,1.29,200.00,VWS V14.00,2013-08-18 15:59:00,
2013-08-18 11:00:00,77.0,77.0,29.88,SSW,194,0.0,9.0,100,0.05,,,1.29,200.00,VWS V14.00,2013-08-18 16:00:00,
2013-08-18 11:01:00,77.2,77.2,29.88,SSW,194,1.0,1.0,100,0.01,,,1.29,141.00,VWS V14.00,2013-08-18 16:01:00,
2013-08-18 11:02:00,77.2,77.2,29.88,SSW,194,2.0,2.0,100,0.01,,,1.29,146.00,VWS V14.00,2013-08-18 16:02:00,
2013-08-18 11:03:00,77.2,77.2,29.88,SSW,194,0.0,2.0,100,0.01,,,1.29,151.00,VWS V14.00,2013-08-18 16:03:00,
2013-08-18 11:04:00,77.2,77.2,29.88,SSW,194,0.0,2.0,100,0.01,,,1.29,149.00,VWS V14.00,2013-08-18 16:04:00,
2013-08-18 11:05:00,77.2,77.2,29.88,SSW,194,0.0,2.0,100,0.01,,,1.29,155.00,VWS V14.00,2013-08-18 16:05:00,
2013-08-18 11:06:00,77.4,77.4,29.88,SSW,194,0.0,2.0,100,0.01,,,1.29,160.00,VWS V14.00,2013-08-18 16:06:00,
2013-08-18 11:07:00,77.4,77.4,29.88,SSW,194,0.0,2.0,100,0.01,,,1.29,144.00,VWS V14.00,2013-08-18 16:07:00,
2013-08-18 11:08:00,77.4,77.4,29.88,SSW,194,0.0,2.0,100,0.01,,,1.29,121.00,VWS V14.00,2013-08-18 16:08:00,
2013-08-18 11:09:00,77.4,77.4,29.88,SSW,194,0.0,2.0,100,0.01,,,1.29,104.00,VWS V14.00,2013-08-18 16:09:00,
2013-08-18 11:10:00,77.4,77.4,29.88,SSW,194,1.0,2.0,100,0.01,,,1.29,100.00,VWS V14.00,2013-08-18 16:10:00,
2013-08-18 11:11:00,77.2,77.2,29.88,SSW,194,0.0,2.0,100,0.01,,,1.29,104.00,VWS V14.00,2013-08-18 16:11:00,
2013-08-18 11:12:00,77.2,77.2,29.88,SSW,194,0.0,2.0,100,0.01,,,1.29,111.00,VWS V14.00,2013-08-18 16:12:00,
2013-08-18 11:13:00,77.2,77.2,29.88,SSW,194,1.0,2.0,100,0.01,,,1.29,111.00,VWS V14.00,2013-08-18 16:13:00,
2013-08-18 11:14:00,77.2,77.2,29.87,SSW,194,0.0,2.0,100,0.01,,,1.29,113.00,VWS V14.00,2013-08-18 16:14:00,
2013-08-18 11:15:00,77.2,77.2,29.87,SSW,194,0.0,2.0,100,0.01,,,1.29,114.00,VWS V14.00,2013-08-18 16:15:00,
2013-08-18 11:16:00,77.2,77.2,29.87,SSW,194,0.0,2.0,100,0.01,,,1.29,113.00,VWS V14.00,2013-08-18 16:16:00,
2013-08-18 11:17:00,77.2,77.2,29.87,SSW,194,0.0,2.0,100,0.01,,,1.29,120.00,VWS V14.00,2013-08-18 16:17:00,
2013-08-18 11:18:00,77.2,77.2,29.87,SSW,194,0.0,2.0,100,0.01,,,1.29,123.00,VWS V14.00,2013-08-18 16:18:00,
2013-08-18 11:19:00,77.2,77.2,29.87,North,355,3.0,6.0,100,0.01,,,1.29,127.00,VWS V14.00,2013-08-18 16:19:00,
2013-08-18 11:20:00,77.2,77.2,29.87,NE,46,4.0,6.0,100,0.01,,,1.29,134.00,VWS V14.00,2013-08-18 16:20:00,
2013-08-18 11:21:00,77.2,77.2,29.87,ENE,76,1.0,6.0,100,0.01,,,1.29,139.00,VWS V14.00,2013-08-18 16:21:00,
2013-08-18 11:22:00,77.0,77.0,29.87,NW,319,2.0,6.0,100,0.01,,,1.29,139.00,VWS V14.00,2013-08-18 16:22:00,
2013-08-18 11:23:00,77.0,77.0,29.87,NW,315,0.0,6.0,100,0.01,,,1.29,144.00,VWS V14.00,2013-08-18 16:23:00,
2013-08-18 11:24:00,76.8,76.8,29.87,NW,315,0.0,6.0,100,0.01,,,1.29,144.00,VWS V14.00,2013-08-18 16:24:00,
2013-08-18 11:25:00,76.8,76.8,29.87,NNW,337,4.0,6.0,100,0.01,,,1.29,144.00,VWS V14.00,2013-08-18 16:25:00,
2013-08-18 11:26:00,76.8,76.8,29.87,WNW,297,5.0,6.0,100,0.01,,,1.29,130.00,VWS V14.00,2013-08-18 16:26:00,
2013-08-18 11:27:00,76.8,76.8,29.87,WNW,291,2.0,6.0,100,0.01,,,1.29,114.00,VWS V14.00,2013-08-18 16:27:00,
2013-08-18 11:28:00,76.7,76.7,29.87,WNW,302,3.0,6.0,100,0.01,,,1.29,98.00,VWS V14.00,2013-08-18 16:28:00,
2013-08-18 11:29:00,76.7,76.7,29.87,WNW,302,1.0,6.0,100,0.01,,,1.29,90.00,VWS V14.00,2013-08-18 16:29:00,
2013-08-18 11:30:00,76.7,76.7,29.87,WNW,302,1.0,6.0,100,0.01,,,1.29,86.00,VWS V14.00,2013-08-18 16:30:00,
2013-08-18 11:31:00,76.7,76.7,29.87,WNW,302,1.0,4.0,100,0.01,,,1.29,83.00,VWS V14.00,2013-08-18 16:31:00,
2013-08-18 11:32:00,76.7,76.7,29.87,WNW,302,0.0,4.0,100,0.01,,,1.29,67.00,VWS V14.00,2013-08-18 16:32:00,
2013-08-18 11:33:00,76.7,76.7,29.87,WNW,302,0.0,4.0,100,0.01,,,1.29,60.00,VWS V14.00,2013-08-18 16:33:00,
2013-08-18 11:34:00,76.7,76.7,29.87,WNW,302,0.0,4.0,100,0.02,,,1.30,56.00,VWS V14.00,2013-08-18 16:34:00,
2013-08-18 11:35:00,76.7,76.7,29.87,WNW,302,0.0,4.0,100,0.02,,,1.30,53.00,VWS V14.00,2013-08-18 16:35:00,
2013-08-18 11:36:00,76.7,76.7,29.87,WNW,302,0.0,4.0,100,0.02,,,1.30,51.00,VWS V14.00,2013-08-18 16:36:00,
2013-08-18 11:37:00,76.7,76.7,29.87,WNW,302,1.0,4.0,100,0.02,,,1.30,47.00,VWS V14.00,2013-08-18 16:37:00,
2013-08-18 11:38:00,76.7,76.7,29.87,WNW,302,0.0,4.0,100,0.02,,,1.30,37.00,VWS V14.00,2013-08-18 16:38:00,
2013-08-18 11:39:00,76.7,76.7,29.87,WNW,302,0.0,4.0,100,0.03,,,1.31,33.00,VWS V14.00,2013-08-18 16:39:00,
2013-08-18 11:40:00,76.7,76.7,29.87,WNW,302,0.0,4.0,100,0.03,,,1.31,32.00,VWS V14.00,2013-08-18 16:40:00,
2013-08-18 11:41:00,76.7,76.7,29.87,WNW,302,0.0,4.0,100,0.03,,,1.31,32.00,VWS V14.00,2013-08-18 16:41:00,
2013-08-18 11:42:00,76.7,76.7,29.87,WNW,302,0.0,4.0,100,0.03,,,1.31,40.00,VWS V14.00,2013-08-18 16:42:00,
2013-08-18 11:43:00,76.7,76.7,29.87,WNW,302,0.0,4.0,100,0.04,,,1.32,60.00,VWS V14.00,2013-08-18 16:43:00,
2013-08-18 11:44:00,76.7,76.7,29.88,WNW,302,2.0,4.0,100,0.04,,,1.32,63.00,VWS V14.00,2013-08-18 16:44:00,
2013-08-18 11:45:00,76.7,76.7,29.88,North,360,2.0,4.0,100,0.05,,,1.33,67.00,VWS V14.00,2013-08-18 16:45:00,
2013-08-18 11:46:00,76.7,76.7,29.88,North,360,0.0,4.0,100,0.05,,,1.33,67.00,VWS V14.00,2013-08-18 16:46:00,
2013-08-18 11:47:00,76.7,76.7,29.88,North,360,3.0,4.0,100,0.06,,,1.34,65.00,VWS V14.00,2013-08-18 16:47:00,
2013-08-18 11:48:00,76.7,76.7,29.88,North,360,3.0,4.0,100,0.06,,,1.34,63.00,VWS V14.00,2013-08-18 16:48:00,
2013-08-18 11:49:00,76.7,76.7,29.88,North,360,3.0,4.0,100,0.06,,,1.34,60.00,VWS V14.00,2013-08-18 16:49:00,
2013-08-18 11:50:00,76.7,76.7,29.88,North,360,0.0,4.0,100,0.06,,,1.34,56.00,VWS V14.00,2013-08-18 16:50:00,
2013-08-18 11:51:00,76.7,76.7,29.88,North,360,0.0,4.0,100,0.07,,,1.35,56.00,VWS V14.00,2013-08-18 16:51:00,
2013-08-18 11:52:00,76.7,76.7,29.88,North,360,0.0,4.0,100,0.07,,,1.35,60.00,VWS V14.00,2013-08-18 16:52:00,
2013-08-18 11:53:00,76.7,76.7,29.88,North,360,1.0,4.0,100,0.07,,,1.35,62.00,VWS V14.00,2013-08-18 16:53:00,
2013-08-18 11:54:00,76.7,76.7,29.88,North,360,0.0,4.0,100,0.07,,,1.35,65.00,VWS V14.00,2013-08-18 16:54:00,
2013-08-18 11:55:00,76.7,76.7,29.88,North,360,0.0,4.0,100,0.07,,,1.35,70.00,VWS V14.00,2013-08-18 16:55:00,
2013-08-18 11:56:00,76.5,76.5,29.88,North,360,3.0,4.0,100,0.07,,,1.35,77.00,VWS V14.00,2013-08-18 16:56:00,
2013-08-18 11:57:00,76.5,76.5,29.88,North,360,3.0,4.0,100,0.07,,,1.35,93.00,VWS V14.00,2013-08-18 16:57:00,
2013-08-18 11:58:00,76.5,76.5,29.88,North,360,0.0,4.0,100,0.07,,,1.35,114.00,VWS V14.00,2013-08-18 16:58:00,
2013-08-18 11:59:00,76.5,76.5,29.87,North,360,0.0,4.0,100,0.07,,,1.35,139.00,VWS V14.00,2013-08-18 16:59:00,
2013-08-18 12:00:00,76.5,76.5,29.87,North,360,0.0,4.0,100,0.07,,,1.35,160.00,VWS V14.00,2013-08-18 17:00:00,
2013-08-18 12:01:00,76.5,76.5,29.87,North,360,0.0,0.0,100,0.06,,,1.35,183.00,VWS V14.00,2013-08-18 17:01:00,
2013-08-18 12:02:00,76.7,76.7,29.87,North,360,0.0,0.0,100,0.06,,,1.35,202.00,VWS V14.00,2013-08-18 17:02:00,
2013-08-18 12:03:00,76.7,76.7,29.87,North,360,0.0,0.0,100,0.06,,,1.35,221.00,VWS V14.00,2013-08-18 17:03:00,
2013-08-18 12:04:00,76.7,76.7,29.87,North,360,0.0,0.0,100,0.06,,,1.35,244.00,VWS V14.00,2013-08-18 17:04:00,
2013-08-18 12:05:00,76.7,76.7,29.87,North,360,0.0,0.0,100,0.06,,,1.35,260.00,VWS V14.00,2013-08-18 17:05:00,
2013-08-18 12:06:00,76.8,76.8,29.87,North,360,0.0,0.0,100,0.06,,,1.35,250.00,VWS V14.00,2013-08-18 17:06:00,
2013-08-18 12:07:00,76.8,76.8,29.87,North,360,0.0,0.0,100,0.06,,,1.35,250.00,VWS V14.00,2013-08-18 17:07:00,
2013-08-18 12:08:00,76.8,76.8,29.87,North,360,0.0,0.0,100,0.06,,,1.35,236.00,VWS V14.00,2013-08-18 17:08:00,
2013-08-18 12:09:00,76.8,76.8,29.87,North,360,0.0,0.0,100,0.06,,,1.35,248.00,VWS V14.00,2013-08-18 17:09:00,
2013-08-18 12:10:00,77.0,77.0,29.87,North,360,0.0,0.0,100,0.06,,,1.35,299.00,VWS V14.00,2013-08-18 17:10:00,
2013-08-18 12:11:00,77.2,77.2,29.87,North,360,0.0,1.0,100,0.06,,,1.35,341.00,VWS V14.00,2013-08-18 17:11:00,
2013-08-18 12:12:00,77.2,77.2,29.87,North,360,1.0,1.0,100,0.06,,,1.35,378.00,VWS V14.00,2013-08-18 17:12:00,
2013-08-18 12:13:00,77.4,77.4,29.87,North,360,1.0,1.0,100,0.06,,,1.35,415.00,VWS V14.00,2013-08-18 17:13:00,
2013-08-18 12:14:00,77.4,77.4,29.86,North,360,0.0,1.0,100,0.06,,,1.35,401.00,VWS V14.00,2013-08-18 17:14:00,
2013-08-18 12:15:00,77.6,77.6,29.86,North,360,0.0,1.0,100,0.06,,,1.35,387.00,VWS V14.00,2013-08-18 17:15:00,
2013-08-18 12:16:00,77.7,77.7,29.86,North,360,1.0,2.0,100,0.06,,,1.35,387.00,VWS V14.00,2013-08-18 17:16:00,
2013-08-18 12:17:00,77.7,77.7,29.86,North,360,0.0,2.0,100,0.06,,,1.35,369.00,VWS V14.00,2013-08-18 17:17:00,
2013-08-18 12:18:00,77.9,77.9,29.86,North,360,0.0,2.0,100,0.06,,,1.35,374.00,VWS V14.00,2013-08-18 17:18:00,
2013-08-18 12:19:00,78.1,78.1,29.86,North,360,2.0,2.0,100,0.06,,,1.35,420.00,VWS V14.00,2013-08-18 17:19:00,
2013-08-18 12:20:00,78.1,78.1,29.86,North,360,1.0,2.0,100,0.06,,,1.35,406.00,VWS V14.00,2013-08-18 17:20:00,
2013-08-18 12:21:00,78.1,78.1,29.86,North,360,0.0,2.0,100,0.06,,,1.35,378.00,VWS V14.00,2013-08-18 17:21:00,
2013-08-18 12:22:00,78.1,78.1,29.86,North,360,0.0,2.0,100,0.06,,,1.35,348.00,VWS V14.00,2013-08-18 17:22:00,
2013-08-18 12:23:00,78.1,78.1,29.86,North,360,0.0,2.0,100,0.06,,,1.35,369.00,VWS V14.00,2013-08-18 17:23:00,
2013-08-18 12:24:00,78.1,78.1,29.86,North,5,3.0,3.0,100,0.06,,,1.35,415.00,VWS V14.00,2013-08-18 17:24:00,
2013-08-18 12:25:00,78.1,78.1,29.86,North,5,0.0,3.0,100,0.06,,,1.35,404.00,VWS V14.00,2013-08-18 17:25:00,
2013-08-18 12:26:00,78.1,78.1,29.86,North,5,0.0,3.0,100,0.06,,,1.35,325.00,VWS V14.00,2013-08-18 17:26:00,
2013-08-18 12:27:00,78.1,78.1,29.86,North,5,0.0,3.0,100,0.06,,,1.35,255.00,VWS V14.00,2013-08-18 17:27:00,
2013-08-18 12:28:00,78.1,78.1,29.86,North,5,0.0,3.0,100,0.06,,,1.35,283.00,VWS V14.00,2013-08-18 17:28:00,
2013-08-18 12:29:00,78.1,78.1,29.86,North,5,2.0,3.0,100,0.06,,,1.35,283.00,VWS V14.00,2013-08-18 17:29:00,
2013-08-18 12:30:00,78.1,78.1,29.86,North,5,0.0,3.0,100,0.06,,,1.35,283.00,VWS V14.00,2013-08-18 17:30:00,
2013-08-18 12:31:00,78.1,78.1,29.86,North,5,2.0,3.0,100,0.06,,,1.35,387.00,VWS V14.00,2013-08-18 17:31:00,
2013-08-18 12:32:00,77.9,77.9,29.86,North,5,1.0,4.0,100,0.06,,,1.35,352.00,VWS V14.00,2013-08-18 17:32:00,
2013-08-18 12:33:00,77.9,77.9,29.86,North,5,0.0,4.0,100,0.06,,,1.35,352.00,VWS V14.00,2013-08-18 17:33:00,
2013-08-18 12:34:00,77.9,77.9,29.86,North,5,0.0,4.0,100,0.06,,,1.35,462.00,VWS V14.00,2013-08-18 17:34:00,
2013-08-18 12:35:00,77.9,77.9,29.86,North,5,0.0,4.0,100,0.06,,,1.35,533.00,VWS V14.00,2013-08-18 17:35:00,
2013-08-18 12:36:00,78.1,78.1,29.86,North,5,1.0,4.0,100,0.06,,,1.35,513.00,VWS V14.00,2013-08-18 17:36:00,
2013-08-18 12:37:00,78.1,78.1,29.86,North,5,0.0,4.0,100,0.06,,,1.35,457.00,VWS V14.00,2013-08-18 17:37:00,
2013-08-18 12:38:00,78.1,78.1,29.86,North,5,0.0,4.0,100,0.06,,,1.35,475.00,VWS V14.00,2013-08-18 17:38:00,
2013-08-18 12:39:00,78.3,78.3,29.86,North,5,0.0,4.0,100,0.06,,,1.35,506.00,VWS V14.00,2013-08-18 17:39:00,
2013-08-18 12:40:00,78.3,78.3,29.86,North,5,0.0,4.0,100,0.06,,,1.35,441.00,VWS V14.00,2013-08-18 17:40:00,
2013-08-18 12:41:00,78.3,78.3,29.86,North,5,1.0,4.0,100,0.06,,,1.35,434.00,VWS V14.00,2013-08-18 17:41:00,
2013-08-18 12:42:00,78.3,78.3,29.86,North,5,2.0,4.0,100,0.06,,,1.35,434.00,VWS V14.00,2013-08-18 17:42:00,
2013-08-18 12:43:00,78.5,78.5,29.86,North,5,0.0,4.0,100,0.06,,,1.35,448.00,VWS V14.00,2013-08-18 17:43:00,
2013-08-18 12:44:00,78.5,78.5,29.86,North,5,0.0,4.0,100,0.06,,,1.35,483.00,VWS V14.00,2013-08-18 17:44:00,
2013-08-18 12:45:00,78.5,78.5,29.86,North,5,0.0,4.0,100,0.06,,,1.35,485.00,VWS V14.00,2013-08-18 17:45:00,
2013-08-18 12:46:00,78.5,78.5,29.86,North,5,0.0,4.0,100,0.06,,,1.35,512.00,VWS V14.00,2013-08-18 17:46:00,
2013-08-18 12:47:00,78.5,78.5,29.86,North,5,0.0,4.0,100,0.06,,,1.35,519.00,VWS V14.00,2013-08-18 17:47:00,
2013-08-18 12:48:00,78.5,78.5,29.86,North,5,0.0,4.0,100,0.06,,,1.35,519.00,VWS V14.00,2013-08-18 17:48:00,
2013-08-18 12:49:00,78.6,78.6,29.86,North,5,0.0,4.0,100,0.06,,,1.35,406.00,VWS V14.00,2013-08-18 17:49:00,
2013-08-18 12:50:00,78.6,78.6,29.86,North,5,0.0,4.0,100,0.06,,,1.35,422.00,VWS V14.00,2013-08-18 17:50:00,
2013-08-18 12:51:00,78.8,78.8,29.86,North,5,0.0,4.0,100,0.06,,,1.35,424.00,VWS V14.00,2013-08-18 17:51:00,
2013-08-18 12:52:00,78.8,78.8,29.86,North,5,0.0,4.0,100,0.06,,,1.35,401.00,VWS V14.00,2013-08-18 17:52:00,
2013-08-18 12:53:00,78.8,78.8,29.86,North,5,0.0,4.0,100,0.06,,,1.35,431.00,VWS V14.00,2013-08-18 17:53:00,
2013-08-18 12:54:00,78.8,78.8,29.86,North,5,0.0,4.0,100,0.06,,,1.35,512.00,VWS V14.00,2013-08-18 17:54:00,
2013-08-18 12:55:00,79.0,79.0,29.86,North,5,0.0,4.0,100,0.06,,,1.35,686.00,VWS V14.00,2013-08-18 17:55:00,
2013-08-18 12:56:00,79.0,79.0,29.86,North,5,2.0,4.0,100,0.06,,,1.35,675.00,VWS V14.00,2013-08-18 17:56:00,
2013-08-18 12:57:00,78.8,78.8,29.86,North,5,0.0,4.0,100,0.06,,,1.35,675.00,VWS V14.00,2013-08-18 17:57:00,
2013-08-18 12:58:00,78.8,78.8,29.86,North,5,0.0,4.0,100,0.06,,,1.35,675.00,VWS V14.00,2013-08-18 17:58:00,
2013-08-18 12:59:00,78.8,78.8,29.86,North,5,0.0,4.0,100,0.06,,,1.35,675.00,VWS V14.00,2013-08-18 17:59:00,
2013-08-18 13:00:00,79.0,79.0,29.86,North,5,0.0,4.0,100,0.06,,,1.35,675.00,VWS V14.00,2013-08-18 18:00:00,
2013-08-18 13:01:00,79.2,79.2,29.86,WSW,239,5.0,5.0,100,0.00,,,1.35,675.00,VWS V14.00,2013-08-18 18:01:00,
2013-08-18 13:02:00,79.2,79.2,29.86,WSW,240,2.0,5.0,100,0.00,,,1.35,675.00,VWS V14.00,2013-08-18 18:02:00,
2013-08-18 13:03:00,79.2,79.2,29.86,SSW,209,2.0,5.0,100,0.00,,,1.35,638.00,VWS V14.00,2013-08-18 18:03:00,
2013-08-18 13:04:00,79.2,79.2,29.86,SSW,209,0.0,5.0,100,0.00,,,1.35,642.00,VWS V14.00,2013-08-18 18:04:00,
2013-08-18 13:05:00,79.2,79.2,29.86,SSW,209,2.0,5.0,100,0.00,,,1.35,450.00,VWS V14.00,2013-08-18 18:05:00,
2013-08-18 13:06:00,79.2,79.2,29.86,SSW,209,3.0,5.0,100,0.00,,,1.35,417.00,VWS V14.00,2013-08-18 18:06:00,
2013-08-18 13:07:00,79.0,79.0,29.86,South,179,2.0,5.0,100,0.00,,,1.35,364.00,VWS V14.00,2013-08-18 18:07:00,
2013-08-18 13:08:00,79.0,79.0,29.86,South,178,2.0,5.0,100,0.00,,,1.35,366.00,VWS V14.00,2013-08-18 18:08:00,
2013-08-18 13:09:00,78.8,78.8,29.86,SSE,164,4.0,5.0,100,0.00,,,1.35,373.00,VWS V14.00,2013-08-18 18:09:00,
2013-08-18 13:10:00,78.8,78.8,29.86,South,189,1.0,5.0,100,0.00,,,1.35,380.00,VWS V14.00,2013-08-18 18:10:00,
2013-08-18 13:11:00,78.8,78.8,29.86,SSE,151,3.0,5.0,100,0.00,,,1.35,385.00,VWS V14.00,2013-08-18 18:11:00,
2013-08-18 13:12:00,78.6,78.6,29.86,SSE,148,2.0,5.0,100,0.00,,,1.35,353.00,VWS V14.00,2013-08-18 18:12:00,
2013-08-18 13:13:00,78.6,78.6,29.86,SSE,153,1.0,5.0,100,0.00,,,1.35,318.00,VWS V14.00,2013-08-18 18:13:00,
2013-08-18 13:14:00,78.8,78.8,29.87,East,101,1.0,5.0,100,0.00,,,1.35,309.00,VWS V14.00,2013-08-18 18:14:00,
2013-08-18 13:15:00,78.8,78.8,29.87,SSE,162,2.0,5.0,100,0.00,,,1.35,403.00,VWS V14.00,2013-08-18 18:15:00,
2013-08-18 13:16:00,78.8,78.8,29.87,ESE,117,4.0,7.0,100,0.00,,,1.35,403.00,VWS V14.00,2013-08-18 18:16:00,
2013-08-18 13:17:00,78.8,78.8,29.87,ESE,117,0.0,7.0,100,0.00,,,1.35,292.00,VWS V14.00,2013-08-18 18:17:00,
2013-08-18 13:18:00,78.8,78.8,29.87,South,175,2.0,7.0,100,0.00,,,1.35,255.00,VWS V14.00,2013-08-18 18:18:00,
2013-08-18 13:19:00,78.8,78.5,29.87,ESE,121,1.0,7.0,99,0.00,,,1.35,232.00,VWS V14.00,2013-08-18 18:19:00,
2013-08-18 13:20:00,78.6,78.3,29.87,South,183,3.0,7.0,99,0.00,,,1.35,230.00,VWS V14.00,2013-08-18 18:20:00,
2013-08-18 13:21:00,78.8,78.5,29.87,SSE,165,1.0,7.0,99,0.00,,,1.35,216.00,VWS V14.00,2013-08-18 18:21:00,
2013-08-18 13:22:00,78.8,78.5,29.87,South,175,3.0,7.0,99,0.00,,,1.35,213.00,VWS V14.00,2013-08-18 18:22:00,
2013-08-18 13:23:00,78.8,78.5,29.87,South,174,1.0,7.0,99,0.00,,,1.35,313.00,VWS V14.00,2013-08-18 18:23:00,
2013-08-18 13:24:00,79.0,78.7,29.87,South,174,0.0,7.0,99,0.00,,,1.35,294.00,VWS V14.00,2013-08-18 18:24:00,
2013-08-18 13:25:00,79.0,78.7,29.87,South,174,0.0,7.0,99,0.00,,,1.35,255.00,VWS V14.00,2013-08-18 18:25:00,
2013-08-18 13:26:00,79.2,78.9,29.87,South,188,3.0,7.0,99,0.00,,,1.35,216.00,VWS V14.00,2013-08-18 18:26:00,
2013-08-18 13:27:00,79.2,78.9,29.87,South,170,2.0,7.0,99,0.00,,,1.35,204.00,VWS V14.00,2013-08-18 18:27:00,
2013-08-18 13:28:00,79.2,78.9,29.87,SSE,154,2.0,7.0,99,0.00,,,1.35,244.00,VWS V14.00,2013-08-18 18:28:00,
2013-08-18 13:29:00,79.2,78.6,29.86,SSE,154,0.0,7.0,98,0.00,,,1.35,302.00,VWS V14.00,2013-08-18 18:29:00,
2013-08-18 13:30:00,79.4,78.8,29.86,SSE,154,0.0,7.0,98,0.00,,,1.35,353.00,VWS V14.00,2013-08-18 18:30:00,
2013-08-18 13:31:00,79.4,78.8,29.86,SSE,154,0.0,0.0,98,0.00,,,1.35,338.00,VWS V14.00,2013-08-18 18:31:00,
2013-08-18 13:32:00,79.6,79.0,29.86,SSE,153,3.0,4.0,98,0.00,,,1.35,341.00,VWS V14.00,2013-08-18 18:32:00,
2013-08-18 13:33:00,79.6,79.0,29.86,ESE,123,4.0,4.0,98,0.00,,,1.35,345.00,VWS V14.00,2013-08-18 18:33:00,
2013-08-18 13:34:00,79.6,79.0,29.86,ESE,123,0.0,4.0,98,0.00,,,1.35,388.00,VWS V14.00,2013-08-18 18:34:00,
2013-08-18 13:35:00,79.6,79.0,29.86,ESE,123,2.0,4.0,98,0.00,,,1.35,388.00,VWS V14.00,2013-08-18 18:35:00,
2013-08-18 13:36:00,79.6,79.0,29.86,South,174,1.0,4.0,98,0.00,,,1.35,388.00,VWS V14.00,2013-08-18 18:36:00,
2013-08-18 13:37:00,79.6,78.7,29.86,South,174,0.0,4.0,97,0.00,,,1.35,452.00,VWS V14.00,2013-08-18 18:37:00,
2013-08-18 13:38:00,79.8,78.9,29.86,SSE,168,0.0,4.0,97,0.00,,,1.35,431.00,VWS V14.00,2013-08-18 18:38:00,
2013-08-18 13:39:00,79.8,78.9,29.86,SSE,168,1.0,4.0,97,0.00,,,1.35,373.00,VWS V14.00,2013-08-18 18:39:00,
2013-08-18 13:40:00,79.8,78.9,29.86,SSE,168,2.0,4.0,97,0.00,,,1.35,352.00,VWS V14.00,2013-08-18 18:40:00,
2013-08-18 13:41:00,79.8,78.9,29.86,South,189,3.0,6.0,97,0.00,,,1.35,448.00,VWS V14.00,2013-08-18 18:41:00,
2013-08-18 13:42:00,79.8,78.6,29.86,SSE,155,6.0,6.0,96,0.00,,,1.35,448.00,VWS V14.00,2013-08-18 18:42:00,
2013-08-18 13:43:00,79.8,78.6,29.86,South,169,5.0,6.0,96,0.00,,,1.35,536.00,VWS V14.00,2013-08-18 18:43:00,
2013-08-18 13:44:00,79.8,78.6,29.86,SSW,194,4.0,7.0,96,0.00,,,1.35,469.00,VWS V14.00,2013-08-18 18:44:00,
2013-08-18 13:45:00,79.8,78.6,29.86,SSW,213,5.0,7.0,96,0.00,,,1.35,450.00,VWS V14.00,2013-08-18 18:45:00,
2013-08-18 13:46:00,79.8,78.6,29.86,SW,227,0.0,7.0,96,0.00,,,1.35,487.00,VWS V14.00,2013-08-18 18:46:00,
2013-08-18 13:47:00,79.9,78.7,29.86,SSW,210,4.0,7.0,96,0.00,,,1.35,464.00,VWS V14.00,2013-08-18 18:47:00,
2013-08-18 13:48:00,79.9,78.3,29.86,South,174,3.0,7.0,95,0.00,,,1.35,466.00,VWS V14.00,2013-08-18 18:48:00,
2013-08-18 13:49:00,79.9,78.3,29.86,SW,218,3.0,7.0,95,0.00,,,1.35,473.00,VWS V14.00,2013-08-18 18:49:00,
2013-08-18 13:50:00,79.9,78.3,29.86,South,172,4.0,7.0,95,0.00,,,1.35,445.00,VWS V14.00,2013-08-18 18:50:00,
2013-08-18 13:51:00,79.9,78.0,29.86,South,171,5.0,7.0,94,0.00,,,1.35,601.00,VWS V14.00,2013-08-18 18:51:00,
2013-08-18 13:52:00,79.9,78.0,29.86,SSW,212,2.0,7.0,94,0.00,,,1.35,601.00,VWS V14.00,2013-08-18 18:52:00,
2013-08-18 13:53:00,79.9,78.0,29.86,South,187,6.0,7.0,94,0.00,,,1.35,601.00,VWS V14.00,2013-08-18 18:53:00,
2013-08-18 13:54:00,80.1,78.2,29.86,SW,219,5.0,7.0,94,0.00,,,1.35,601.00,VWS V14.00,2013-08-18 18:54:00,
2013-08-18 13:55:00,80.1,77.9,29.86,SSW,200,3.0,10.0,93,0.00,,,1.35,545.00,VWS V14.00,2013-08-18 18:55:00,
2013-08-18 13:56:00,80.1,77.9,29.86,South,174,4.0,10.0,93,0.00,,,1.35,587.00,VWS V14.00,2013-08-18 18:56:00,
2013-08-18 13:57:00,80.3,77.8,29.86,South,181,7.0,10.0,92,0.00,,,1.35,587.00,VWS V14.00,2013-08-18 18:57:00,
2013-08-18 13:58:00,80.3,77.8,29.86,South,171,6.0,10.0,92,0.00,,,1.35,687.00,VWS V14.00,2013-08-18 18:58:00,
2013-08-18 13:59:00,80.3,77.4,29.85,WSW,257,4.0,10.0,91,0.00,,,1.35,687.00,VWS V14.00,2013-08-18 18:59:00,
2013-08-18 14:00:00,80.3,77.4,29.85,WSW,242,4.0,10.0,91,0.00,,,1.35,687.00,VWS V14.00,2013-08-18 19:00:00,
2013-08-18 14:01:00,80.3,77.1,29.85,South,191,4.0,6.0,90,0.00,,,1.35,541.00,VWS V14.00,2013-08-18 19:01:00,
2013-08-18 14:02:00,80.5,77.3,29.85,SSW,207,3.0,6.0,90,0.00,,,1.35,541.00,VWS V14.00,2013-08-18 19:02:00,
2013-08-18 14:03:00,80.5,77.3,29.85,SSE,148,2.0,6.0,90,0.00,,,1.35,341.00,VWS V14.00,2013-08-18 19:03:00,
2013-08-18 14:04:00,80.5,77.0,29.85,South,172,9.0,9.0,89,0.00,,,1.35,352.00,VWS V14.00,2013-08-18 19:04:00,
2013-08-18 14:05:00,80.5,76.6,29.85,SSW,198,9.0,12.0,88,0.00,,,1.35,397.00,VWS V14.00,2013-08-18 19:05:00,
2013-08-18 14:06:00,80.5,76.3,29.85,WSW,242,7.0,12.0,87,0.00,,,1.35,466.00,VWS V14.00,2013-08-18 19:06:00,
2013-08-18 14:07:00,80.5,76.3,29.85,WSW,240,4.0,12.0,87,0.00,,,1.35,503.00,VWS V14.00,2013-08-18 19:07:00,
2013-08-18 14:08:00,80.7,76.5,29.85,SSW,197,2.0,12.0,87,0.00,,,1.35,680.00,VWS V14.00,2013-08-18 19:08:00,
2013-08-18 14:09:00,80.7,76.5,29.85,SSW,194,10.0,12.0,87,0.00,,,1.35,680.00,VWS V14.00,2013-08-18 19:09:00,
2013-08-18 14:10:00,80.9,76.7,29.85,South,169,7.0,12.0,87,0.00,,,1.35,879.00,VWS V14.00,2013-08-18 19:10:00,
2013-08-18 14:11:00,80.9,76.3,29.85,South,186,6.0,12.0,86,0.00,,,1.35,879.00,VWS V14.00,2013-08-18 19:11:00,
2013-08-18 14:12:00,80.9,76.3,29.85,SSE,150,6.0,12.0,86,0.00,,,1.35,645.00,VWS V14.00,2013-08-18 19:12:00,
2013-08-18 14:13:00,81.1,76.5,29.85,South,186,5.0,12.0,86,0.00,,,1.35,865.00,VWS V14.00,2013-08-18 19:13:00,
2013-08-18 14:14:00,81.1,76.5,29.85,SSW,201,8.0,12.0,86,0.00,,,1.35,865.00,VWS V14.00,2013-08-18 19:14:00,
2013-08-18 14:15:00,81.1,76.5,29.85,South,186,6.0,12.0,86,0.00,,,1.35,830.00,VWS V14.00,2013-08-18 19:15:00,
2013-08-18 14:16:00,81.2,76.6,29.85,SSE,155,10.0,12.0,86,0.00,,,1.35,756.00,VWS V14.00,2013-08-18 19:16:00,
2013-08-18 14:17:00,81.2,76.3,29.85,SSW,201,10.0,12.0,85,0.00,,,1.35,772.00,VWS V14.00,2013-08-18 19:17:00,
2013-08-18 14:18:00,81.4,76.5,29.85,SSE,148,5.0,15.0,85,0.00,,,1.35,744.00,VWS V14.00,2013-08-18 19:18:00,
2013-08-18 14:19:00,81.4,76.5,29.85,SSW,197,9.0,15.0,85,0.00,,,1.35,705.00,VWS V14.00,2013-08-18 19:19:00,
2013-08-18 14:20:00,81.4,76.1,29.85,SSE,162,6.0,15.0,84,0.00,,,1.35,661.00,VWS V14.00,2013-08-18 19:20:00,
2013-08-18 14:21:00,81.4,76.1,29.85,SSW,200,11.0,15.0,84,0.00,,,1.35,647.00,VWS V14.00,2013-08-18 19:21:00,
2013-08-18 14:22:00,81.4,76.1,29.85,SSW,195,4.0,15.0,84,0.00,,,1.35,657.00,VWS V14.00,2013-08-18 19:22:00,
2013-08-18 14:23:00,81.6,76.3,29.85,SSW,210,7.0,15.0,84,0.00,,,1.35,650.00,VWS V14.00,2013-08-18 19:23:00,
2013-08-18 14:24:00,81.6,76.3,29.85,South,178,6.0,15.0,84,0.00,,,1.35,670.00,VWS V14.00,2013-08-18 19:24:00,
2013-08-18 14:25:00,81.6,76.3,29.85,SE,129,9.0,15.0,84,0.00,,,1.35,687.00,VWS V14.00,2013-08-18 19:25:00,
2013-08-18 14:26:00,81.6,75.9,29.85,SSE,161,6.0,15.0,83,0.00,,,1.35,712.00,VWS V14.00,2013-08-18 19:26:00,
2013-08-18 14:27:00,81.6,76.3,29.85,SSE,154,5.0,15.0,84,0.00,,,1.35,721.00,VWS V14.00,2013-08-18 19:27:00,
2013-08-18 14:28:00,81.6,76.3,29.85,SE,134,5.0,15.0,84,0.00,,,1.35,278.00,VWS V14.00,2013-08-18 19:28:00,
2013-08-18 14:29:00,81.8,76.1,29.85,South,189,13.0,15.0,83,0.00,,,1.35,246.00,VWS V14.00,2013-08-18 19:29:00,
2013-08-18 14:30:00,81.6,75.9,29.85,South,184,3.0,6.0,83,0.00,,,1.35,229.00,VWS V14.00,2013-08-18 19:30:00,
2013-08-18 14:31:00,81.6,75.9,29.85,SSE,164,6.0,9.0,83,0.00,,,1.35,283.00,VWS V14.00,2013-08-18 19:31:00,
2013-08-18 14:32:00,81.6,76.3,29.85,South,177,10.0,13.0,84,0.00,,,1.35,283.00,VWS V14.00,2013-08-18 19:32:00,
2013-08-18 14:33:00,81.6,76.3,29.85,South,188,2.0,13.0,84,0.00,,,1.35,710.00,VWS V14.00,2013-08-18 19:33:00,
2013-08-18 14:34:00,81.6,76.3,29.85,SW,221,8.0,13.0,84,0.00,,,1.35,684.00,VWS V14.00,2013-08-18 19:34:00,
2013-08-18 14:35:00,81.6,76.3,29.85,SSW,194,11.0,13.0,84,0.00,,,1.35,613.00,VWS V14.00,2013-08-18 19:35:00,
2013-08-18 14:36:00,81.6,76.3,29.85,SW,232,4.0,13.0,84,0.00,,,1.35,613.00,VWS V14.00,2013-08-18 19:36:00,
2013-08-18 14:37:00,81.8,76.8,29.85,SSW,211,11.0,13.0,85,0.00,,,1.35,613.00,VWS V14.00,2013-08-18 19:37:00,
2013-08-18 14:38:00,81.8,76.8,29.85,SSW,200,3.0,13.0,85,0.00,,,1.35,441.00,VWS V14.00,2013-08-18 19:38:00,
2013-08-18 14:39:00,81.8,76.8,29.85,South,169,3.0,13.0,85,0.00,,,1.35,441.00,VWS V14.00,2013-08-18 19:39:00,
2013-08-18 14:40:00,81.8,76.8,29.85,SE,139,1.0,13.0,85,0.00,,,1.35,304.00,VWS V14.00,2013-08-18 19:40:00,
2013-08-18 14:41:00,82.0,77.1,29.85,South,174,5.0,13.0,85,0.00,,,1.35,234.00,VWS V14.00,2013-08-18 19:41:00,
2013-08-18 14:42:00,81.8,76.8,29.85,South,183,4.0,13.0,85,0.00,,,1.35,216.00,VWS V14.00,2013-08-18 19:42:00,
2013-08-18 14:43:00,81.8,76.8,29.85,SW,230,3.0,13.0,85,0.00,,,1.35,197.00,VWS V14.00,2013-08-18 19:43:00,
2013-08-18 14:44:00,81.8,76.8,29.86,SSW,211,5.0,13.0,85,0.00,,,1.35,162.00,VWS V14.00,2013-08-18 19:44:00,
2013-08-18 14:45:00,81.8,76.8,29.86,South,171,7.0,13.0,85,0.00,,,1.35,185.00,VWS V14.00,2013-08-18 19:45:00,
2013-08-18 14:46:00,81.8,76.8,29.86,SW,234,4.0,13.0,85,0.00,,,1.35,192.00,VWS V14.00,2013-08-18 19:46:00,
2013-08-18 14:47:00,81.8,76.8,29.86,WSW,252,6.0,13.0,85,0.00,,,1.35,169.00,VWS V14.00,2013-08-18 19:47:00,
2013-08-18 14:48:00,81.6,76.7,29.86,SW,220,8.0,13.0,85,0.00,,,1.35,169.00,VWS V14.00,2013-08-18 19:48:00,
2013-08-18 14:49:00,81.6,76.7,29.86,SSE,163,4.0,13.0,85,0.00,,,1.35,171.00,VWS V14.00,2013-08-18 19:49:00,
2013-08-18 14:50:00,81.4,76.5,29.86,South,178,3.0,13.0,85,0.00,,,1.35,171.00,VWS V14.00,2013-08-18 19:50:00,
2013-08-18 14:51:00,81.4,76.5,29.86,SSW,207,5.0,13.0,85,0.00,,,1.35,172.00,VWS V14.00,2013-08-18 19:51:00,
2013-08-18 14:52:00,81.4,76.5,29.86,South,186,6.0,13.0,85,0.00,,,1.35,174.00,VWS V14.00,2013-08-18 19:52:00,
2013-08-18 14:53:00,81.2,76.3,29.86,SSW,209,10.0,13.0,85,0.00,,,1.35,174.00,VWS V14.00,2013-08-18 19:53:00,
2013-08-18 14:54:00,81.2,76.3,29.86,SW,223,9.0,13.0,85,0.00,,,1.35,176.00,VWS V14.00,2013-08-18 19:54:00,
2013-08-18 14:55:00,81.1,75.8,29.86,SW,232,6.0,13.0,84,0.00,,,1.35,178.00,VWS V14.00,2013-08-18 19:55:00,
2013-08-18 14:56:00,81.1,76.2,29.86,SSW,195,5.0,13.0,85,0.00,,,1.35,181.00,VWS V14.00,2013-08-18 19:56:00,
2013-08-18 14:57:00,81.1,76.2,29.86,SW,214,11.0,14.0,85,0.00,,,1.35,185.00,VWS V14.00,2013-08-18 19:57:00,
2013-08-18 14:58:00,81.1,76.2,29.86,South,190,0.0,14.0,85,0.00,,,1.35,186.00,VWS V14.00,2013-08-18 19:58:00,
2013-08-18 14:59:00,80.9,76.0,29.86,South,173,10.0,14.0,85,0.00,,,1.35,188.00,VWS V14.00,2013-08-18 19:59:00,
2013-08-18 15:00:00,80.9,76.3,29.86,SSW,205,7.0,14.0,86,0.00,,,1.35,188.00,VWS V14.00,2013-08-18 20:00:00,
2013-08-18 15:01:00,80.9,76.3,29.86,South,181,13.0,15.0,86,0.00,,,1.35,195.00,VWS V14.00,2013-08-18 20:01:00,
2013-08-18 15:02:00,80.9,76.3,29.86,SSW,202,3.0,15.0,86,0.00,,,1.35,202.00,VWS V14.00,2013-08-18 20:02:00,
2013-08-18 15:03:00,80.9,76.3,29.86,WSW,238,4.0,15.0,86,0.00,,,1.35,202.00,VWS V14.00,2013-08-18 20:03:00,
2013-08-18 15:04:00,80.7,76.1,29.86,SSW,192,3.0,15.0,86,0.00,,,1.35,211.00,VWS V14.00,2013-08-18 20:04:00,
2013-08-18 15:05:00,80.7,76.1,29.86,SSW,207,2.0,15.0,86,0.00,,,1.35,211.00,VWS V14.00,2013-08-18 20:05:00,
2013-08-18 15:06:00,80.7,76.1,29.86,SSE,164,6.0,15.0,86,0.00,,,1.35,218.00,VWS V14.00,2013-08-18 20:06:00,
2013-08-18 15:07:00,80.5,75.6,29.86,SSE,165,4.0,15.0,85,0.00,,,1.35,246.00,VWS V14.00,2013-08-18 20:07:00,
2013-08-18 15:08:00,80.5,75.6,29.86,SW,225,3.0,15.0,85,0.00,,,1.35,251.00,VWS V14.00,2013-08-18 20:08:00,
2013-08-18 15:09:00,80.5,75.6,29.86,South,188,11.0,15.0,85,0.00,,,1.35,243.00,VWS V14.00,2013-08-18 20:09:00,
2013-08-18 15:10:00,80.5,75.6,29.86,WSW,250,4.0,15.0,85,0.00,,,1.35,285.00,VWS V14.00,2013-08-18 20:10:00,
2013-08-18 15:11:00,80.5,75.6,29.86,South,186,7.0,15.0,85,0.00,,,1.35,271.00,VWS V14.00,2013-08-18 20:11:00,
2013-08-18 15:12:00,80.5,75.6,29.86,SW,236,9.0,15.0,85,0.00,,,1.35,323.00,VWS V14.00,2013-08-18 20:12:00,
2013-08-18 15:13:00,80.5,75.6,29.86,South,182,2.0,15.0,85,0.00,,,1.35,388.00,VWS V14.00,2013-08-18 20:13:00,
2013-08-18 15:14:00,80.5,75.6,29.86,WNW,303,4.0,15.0,85,0.00,,,1.35,332.00,VWS V14.00,2013-08-18 20:14:00,
2013-08-18 15:15:00,80.5,75.9,29.86,SW,218,2.0,15.0,86,0.00,,,1.35,357.00,VWS V14.00,2013-08-18 20:15:00,
2013-08-18 15:16:00,80.5,75.9,29.86,South,180,0.0,15.0,86,0.00,,,1.35,445.00,VWS V14.00,2013-08-18 20:16:00,
2013-08-18 15:17:00,80.7,76.1,29.86,South,183,2.0,15.0,86,0.00,,,1.35,445.00,VWS V14.00,2013-08-18 20:17:00,
2013-08-18 15:18:00,80.7,76.1,29.86,WSW,244,13.0,15.0,86,0.00,,,1.35,689.00,VWS V14.00,2013-08-18 20:18:00,
2013-08-18 15:19:00,80.7,76.1,29.86,South,179,7.0,15.0,86,0.00,,,1.35,540.00,VWS V14.00,2013-08-18 20:19:00,
2013-08-18 15:20:00,80.9,76.0,29.86,SSW,201,10.0,15.0,85,0.00,,,1.35,540.00,VWS V14.00,2013-08-18 20:20:00,
2013-08-18 15:21:00,80.9,76.0,29.86,SSW,197,10.0,15.0,85,0.00,,,1.35,540.00,VWS V14.00,2013-08-18 20:21:00,
2013-08-18 15:22:00,80.9,76.0,29.86,SW,216,7.0,15.0,85,0.00,,,1.35,540.00,VWS V14.00,2013-08-18 20:22:00,
2013-08-18 15:23:00,81.1,76.2,29.86,SSW,210,3.0,15.0,85,0.00,,,1.35,540.00,VWS V14.00,2013-08-18 20:23:00,
2013-08-18 15:24:00,81.1,76.2,29.86,SSW,198,4.0,15.0,85,0.00,,,1.35,221.00,VWS V14.00,2013-08-18 20:24:00,
2013-08-18 15:25:00,81.1,75.8,29.86,SSW,206,5.0,15.0,84,0.00,,,1.35,244.00,VWS V14.00,2013-08-18 20:25:00,
2013-08-18 15:26:00,81.1,75.8,29.86,SSW,209,1.0,15.0,84,0.00,,,1.35,257.00,VWS V14.00,2013-08-18 20:26:00,
2013-08-18 15:27:00,81.2,75.9,29.86,WSW,249,3.0,15.0,84,0.00,,,1.35,285.00,VWS V14.00,2013-08-18 20:27:00,
2013-08-18 15:28:00,81.2,75.9,29.86,WSW,237,4.0,15.0,84,0.00,,,1.35,257.00,VWS V14.00,2013-08-18 20:28:00,
2013-08-18 15:29:00,81.2,75.6,29.88,WSW,246,5.0,15.0,83,0.00,,,1.35,260.00,VWS V14.00,2013-08-18 20:29:00,
2013-08-18 15:30:00,81.2,75.6,29.88,South,184,4.0,15.0,83,0.00,,,1.35,260.00,VWS V14.00,2013-08-18 20:30:00,
2013-08-18 15:31:00,81.2,75.6,29.88,South,180,7.0,13.0,83,0.00,,,1.35,260.00,VWS V14.00,2013-08-18 20:31:00,
2013-08-18 15:32:00,81.2,75.6,29.88,WNW,286,6.0,13.0,83,0.00,,,1.35,163.00,VWS V14.00,2013-08-18 20:32:00,
2013-08-18 15:33:00,81.2,75.6,29.88,SSW,195,3.0,13.0,83,0.00,,,1.35,148.00,VWS V14.00,2013-08-18 20:33:00,
2013-08-18 15:34:00,81.2,75.6,29.88,South,171,3.0,13.0,83,0.00,,,1.35,141.00,VWS V14.00,2013-08-18 20:34:00,
2013-08-18 15:35:00,81.2,75.6,29.88,WNW,303,6.0,13.0,83,0.00,,,1.35,142.00,VWS V14.00,2013-08-18 20:35:00,
2013-08-18 15:36:00,81.2,75.6,29.88,SE,128,5.0,13.0,83,0.00,,,1.35,165.00,VWS V14.00,2013-08-18 20:36:00,
2013-08-18 15:37:00,81.2,75.6,29.88,WNW,298,2.0,13.0,83,0.00,,,1.35,199.00,VWS V14.00,2013-08-18 20:37:00,
2013-08-18 15:38:00,81.2,75.6,29.88,SSW,203,3.0,13.0,83,0.00,,,1.35,239.00,VWS V14.00,2013-08-18 20:38:00,
2013-08-18 15:39:00,81.2,75.6,29.88,WSW,242,2.0,13.0,83,0.00,,,1.35,216.00,VWS V14.00,2013-08-18 20:39:00,
2013-08-18 15:40:00,81.2,75.6,29.88,SW,232,1.0,13.0,83,0.00,,,1.35,225.00,VWS V14.00,2013-08-18 20:40:00,
2013-08-18 15:41:00,81.2,75.6,29.88,SSW,196,2.0,13.0,83,0.00,,,1.35,260.00,VWS V14.00,2013-08-18 20:41:00,
2013-08-18 15:42:00,81.2,75.6,29.88,SW,215,5.0,13.0,83,0.00,,,1.35,260.00,VWS V14.00,2013-08-18 20:42:00,
2013-08-18 15:43:00,81.2,75.6,29.88,SSW,210,6.0,13.0,83,0.00,,,1.35,503.00,VWS V14.00,2013-08-18 20:43:00,
2013-08-18 15:44:00,81.2,75.6,29.88,South,189,4.0,13.0,83,0.00,,,1.35,503.00,VWS V14.00,2013-08-18 20:44:00,
2013-08-18 15:45:00,81.2,75.6,29.88,SSW,205,4.0,13.0,83,0.00,,,1.35,338.00,VWS V14.00,2013-08-18 20:45:00,
2013-08-18 15:46:00,81.2,75.6,29.88,SSW,194,1.0,13.0,83,0.00,,,1.35,336.00,VWS V14.00,2013-08-18 20:46:00,
2013-08-18 15:47:00,81.4,75.7,29.88,WSW,244,5.0,13.0,83,0.00,,,1.35,348.00,VWS V14.00,2013-08-18 20:47:00,
2013-08-18 15:48:00,81.4,75.7,29.88,SW,223,7.0,13.0,83,0.00,,,1.35,362.00,VWS V14.00,2013-08-18 20:48:00,
2013-08-18 15:49:00,81.4,75.7,29.88,SW,223,6.0,13.0,83,0.00,,,1.35,371.00,VWS V14.00,2013-08-18 20:49:00,
2013-08-18 15:50:00,81.4,75.4,29.88,SW,234,9.0,13.0,82,0.00,,,1.35,406.00,VWS V14.00,2013-08-18 20:50:00,
2013-08-18 15:51:00,81.6,75.6,29.88,WSW,239,2.0,13.0,82,0.00,,,1.35,343.00,VWS V14.00,2013-08-18 20:51:00,
2013-08-18 15:52:00,81.6,75.6,29.88,SSW,192,2.0,13.0,82,0.00,,,1.35,320.00,VWS V14.00,2013-08-18 20:52:00,
2013-08-18 15:53:00,81.6,75.6,29.88,SW,226,4.0,13.0,82,0.00,,,1.35,295.00,VWS V14.00,2013-08-18 20:53:00,
2013-08-18 15:54:00,81.6,75.6,29.88,South,185,5.0,13.0,82,0.00,,,1.35,248.00,VWS V14.00,2013-08-18 20:54:00,
2013-08-18 15:55:00,81.8,75.8,29.88,South,190,2.0,13.0,82,0.00,,,1.35,213.00,VWS V14.00,2013-08-18 20:55:00,
2013-08-18 15:56:00,81.8,75.8,29.88,South,184,1.0,13.0,82,0.00,,,1.35,178.00,VWS V14.00,2013-08-18 20:56:00,
2013-08-18 15:57:00,81.8,75.8,29.88,SSW,198,1.0,13.0,82,0.00,,,1.35,174.00,VWS V14.00,2013-08-18 20:57:00,
2013-08-18 15:58:00,82.0,76.0,29.88,WSW,246,4.0,13.0,82,0.00,,,1.35,156.00,VWS V14.00,2013-08-18 20:58:00,
2013-08-18 15:59:00,82.0,75.6,29.88,SSW,194,2.0,13.0,81,0.00,,,1.35,146.00,VWS V14.00,2013-08-18 20:59:00,
2013-08-18 16:00:00,82.0,75.6,29.88,WSW,246,4.0,13.0,81,0.00,,,1.35,139.00,VWS V14.00,2013-08-18 21:00:00,
2013-08-18 16:01:00,82.0,75.6,29.88,South,181,2.0,7.0,81,0.00,,,1.35,132.00,VWS V14.00,2013-08-18 21:01:00,
2013-08-18 16:02:00,82.0,75.6,29.88,South,190,5.0,7.0,81,0.00,,,1.35,130.00,VWS V14.00,2013-08-18 21:02:00,
2013-08-18 16:03:00,82.0,75.6,29.88,SSW,203,3.0,7.0,81,0.00,,,1.35,134.00,VWS V14.00,2013-08-18 21:03:00,
2013-08-18 16:04:00,82.0,75.6,29.88,SW,225,4.0,7.0,81,0.00,,,1.35,139.00,VWS V14.00,2013-08-18 21:04:00,
2013-08-18 16:05:00,82.0,75.6,29.88,SSE,163,1.0,7.0,81,0.00,,,1.35,139.00,VWS V14.00,2013-08-18 21:05:00,
2013-08-18 16:06:00,81.8,75.4,29.88,SSW,205,3.0,7.0,81,0.00,,,1.35,142.00,VWS V14.00,2013-08-18 21:06:00,
2013-08-18 16:07:00,81.8,75.4,29.88,SW,216,1.0,7.0,81,0.00,,,1.35,142.00,VWS V14.00,2013-08-18 21:07:00,
2013-08-18 16:08:00,81.8,75.4,29.88,South,190,8.0,8.0,81,0.00,,,1.35,144.00,VWS V14.00,2013-08-18 21:08:00,
2013-08-18 16:09:00,81.8,75.4,29.88,SSW,202,2.0,10.0,81,0.00,,,1.35,151.00,VWS V14.00,2013-08-18 21:09:00,
2013-08-18 16:10:00,81.6,74.8,29.88,WSW,240,3.0,11.0,80,0.00,,,1.35,148.00,VWS V14.00,2013-08-18 21:10:00,
2013-08-18 16:11:00,81.6,74.8,29.88,WSW,257,5.0,11.0,80,0.00,,,1.35,148.00,VWS V14.00,2013-08-18 21:11:00,
2013-08-18 16:12:00,81.6,74.8,29.88,WSW,242,4.0,11.0,80,0.00,,,1.35,151.00,VWS V14.00,2013-08-18 21:12:00,
2013-08-18 16:13:00,81.4,74.6,29.88,SW,232,4.0,11.0,80,0.00,,,1.35,160.00,VWS V14.00,2013-08-18 21:13:00,
2013-08-18 16:14:00,81.4,74.6,29.88,WSW,241,4.0,11.0,80,0.00,,,1.35,181.00,VWS V14.00,2013-08-18 21:14:00,
2013-08-18 16:15:00,81.4,74.6,29.88,South,186,0.0,11.0,80,0.00,,,1.35,202.00,VWS V14.00,2013-08-18 21:15:00,
2013-08-18 16:16:00,81.4,74.6,29.88,SSE,163,3.0,11.0,80,0.00,,,1.35,185.00,VWS V14.00,2013-08-18 21:16:00,
2013-08-18 16:17:00,81.4,74.6,29.88,SW,223,4.0,11.0,80,0.00,,,1.35,186.00,VWS V14.00,2013-08-18 21:17:00,
2013-08-18 16:18:00,81.4,74.6,29.88,SSW,206,2.0,11.0,80,0.00,,,1.35,225.00,VWS V14.00,2013-08-18 21:18:00,
2013-08-18 16:19:00,81.4,74.6,29.88,SSW,206,0.0,11.0,80,0.00,,,1.35,202.00,VWS V14.00,2013-08-18 21:19:00,
2013-08-18 16:20:00,81.4,74.6,29.88,SSE,150,2.0,11.0,80,0.00,,,1.35,186.00,VWS V14.00,2013-08-18 21:20:00,
2013-08-18 16:21:00,81.4,74.6,29.88,SSE,150,0.0,11.0,80,0.00,,,1.35,202.00,VWS V14.00,2013-08-18 21:21:00,
2013-08-18 16:22:00,81.4,75.0,29.88,SW,223,3.0,11.0,81,0.00,,,1.35,181.00,VWS V14.00,2013-08-18 21:22:00,
2013-08-18 16:23:00,81.4,75.0,29.88,SSW,206,5.0,11.0,81,0.00,,,1.35,199.00,VWS V14.00,2013-08-18 21:23:00,
2013-08-18 16:24:00,81.2,74.4,29.88,WSW,242,1.0,11.0,80,0.00,,,1.35,183.00,VWS V14.00,2013-08-18 21:24:00,
2013-08-18 16:25:00,81.4,75.0,29.88,South,182,2.0,11.0,81,0.00,,,1.35,158.00,VWS V14.00,2013-08-18 21:25:00,
2013-08-18 16:26:00,81.2,74.8,29.88,WNW,284,3.0,11.0,81,0.00,,,1.35,167.00,VWS V14.00,2013-08-18 21:26:00,
2013-08-18 16:27:00,81.2,74.8,29.88,SW,224,5.0,11.0,81,0.00,,,1.35,227.00,VWS V14.00,2013-08-18 21:27:00,
2013-08-18 16:28:00,81.2,74.8,29.88,West,281,0.0,11.0,81,0.00,,,1.35,279.00,VWS V14.00,2013-08-18 21:28:00,
2013-08-18 16:29:00,81.4,75.0,29.88,West,261,5.0,11.0,81,0.00,,,1.35,320.00,VWS V14.00,2013-08-18 21:29:00,
2013-08-18 16:30:00,81.4,75.0,29.88,SSW,194,9.0,11.0,81,0.00,,,1.35,320.00,VWS V14.00,2013-08-18 21:30:00,
2013-08-18 16:31:00,81.4,75.0,29.88,South,188,5.0,12.0,81,0.00,,,1.35,294.00,VWS V14.00,2013-08-18 21:31:00,
2013-08-18 16:32:00,81.4,75.0,29.88,SW,224,3.0,12.0,81,0.00,,,1.35,306.00,VWS V14.00,2013-08-18 21:32:00,
2013-08-18 16:33:00,81.4,75.0,29.88,SW,214,3.0,12.0,81,0.00,,,1.35,357.00,VWS V14.00,2013-08-18 21:33:00,
2013-08-18 16:34:00,81.4,75.0,29.88,West,265,2.0,12.0,81,0.00,,,1.35,366.00,VWS V14.00,2013-08-18 21:34:00,
2013-08-18 16:35:00,81.4,75.4,29.88,WNW,288,5.0,12.0,82,0.00,,,1.35,373.00,VWS V14.00,2013-08-18 21:35:00,
2013-08-18 16:36:00,81.4,75.4,29.88,SW,236,0.0,12.0,82,0.00,,,1.35,371.00,VWS V14.00,2013-08-18 21:36:00,
2013-08-18 16:37:00,81.6,75.6,29.88,SSW,200,4.0,12.0,82,0.00,,,1.35,364.00,VWS V14.00,2013-08-18 21:37:00,
2013-08-18 16:38:00,81.6,75.6,29.88,SSW,196,1.0,12.0,82,0.00,,,1.35,350.00,VWS V14.00,2013-08-18 21:38:00,
2013-08-18 16:39:00,81.6,75.6,29.88,WNW,290,2.0,12.0,82,0.00,,,1.35,350.00,VWS V14.00,2013-08-18 21:39:00,
2013-08-18 16:40:00,81.6,75.6,29.88,WNW,296,1.0,12.0,82,0.00,,,1.35,350.00,VWS V14.00,2013-08-18 21:40:00,
2013-08-18 16:41:00,81.8,75.8,29.88,SW,224,2.0,12.0,82,0.00,,,1.35,350.00,VWS V14.00,2013-08-18 21:41:00,
2013-08-18 16:42:00,81.8,75.8,29.88,WSW,253,2.0,12.0,82,0.00,,,1.35,315.00,VWS V14.00,2013-08-18 21:42:00,
2013-08-18 16:43:00,81.8,75.4,29.88,West,259,9.0,12.0,81,0.00,,,1.35,306.00,VWS V14.00,2013-08-18 21:43:00,
2013-08-18 16:44:00,81.8,75.4,29.88,SW,232,1.0,12.0,81,0.00,,,1.35,306.00,VWS V14.00,2013-08-18 21:44:00,
2013-08-18 16:45:00,81.8,75.4,29.88,West,259,2.0,12.0,81,0.00,,,1.35,169.00,VWS V14.00,2013-08-18 21:45:00,
2013-08-18 16:46:00,82.0,75.2,29.88,WNW,284,4.0,12.0,80,0.00,,,1.35,218.00,VWS V14.00,2013-08-18 21:46:00,
2013-08-18 16:47:00,82.0,75.2,29.88,SW,225,5.0,12.0,80,0.00,,,1.35,206.00,VWS V14.00,2013-08-18 21:47:00,
2013-08-18 16:48:00,82.0,75.2,29.88,SSW,192,3.0,12.0,80,0.00,,,1.35,190.00,VWS V14.00,2013-08-18 21:48:00,
2013-08-18 16:49:00,82.0,75.2,29.88,WSW,238,4.0,12.0,80,0.00,,,1.35,207.00,VWS V14.00,2013-08-18 21:49:00,
2013-08-18 16:50:00,82.0,75.2,29.88,WSW,240,2.0,12.0,80,0.00,,,1.35,236.00,VWS V14.00,2013-08-18 21:50:00,
2013-08-18 16:51:00,82.0,75.2,29.88,SW,217,0.0,12.0,80,0.00,,,1.35,244.00,VWS V14.00,2013-08-18 21:51:00,
2013-08-18 16:52:00,82.0,75.2,29.88,SW,217,0.0,12.0,80,0.00,,,1.35,232.00,VWS V14.00,2013-08-18 21:52:00,
2013-08-18 16:53:00,82.0,75.2,29.88,West,281,2.0,12.0,80,0.00,,,1.35,192.00,VWS V14.00,2013-08-18 21:53:00,
2013-08-18 16:54:00,82.0,75.2,29.88,South,178,2.0,12.0,80,0.00,,,1.35,172.00,VWS V14.00,2013-08-18 21:54:00,
2013-08-18 16:55:00,82.0,74.8,29.88,SSW,206,1.0,12.0,79,0.00,,,1.35,153.00,VWS V14.00,2013-08-18 21:55:00,
2013-08-18 16:56:00,82.0,74.8,29.88,NW,310,2.0,12.0,79,0.00,,,1.35,139.00,VWS V14.00,2013-08-18 21:56:00,
2013-08-18 16:57:00,82.0,74.8,29.88,SW,234,3.0,12.0,79,0.00,,,1.35,130.00,VWS V14.00,2013-08-18 21:57:00,
2013-08-18 16:58:00,82.0,74.8,29.88,SW,232,0.0,12.0,79,0.00,,,1.35,123.00,VWS V14.00,2013-08-18 21:58:00,
2013-08-18 16:59:00,82.0,74.8,29.88,SW,229,1.0,12.0,79,0.00,,,1.35,116.00,VWS V14.00,2013-08-18 21:59:00,
2013-08-18 17:00:00,82.0,74.8,29.88,SSW,194,4.0,12.0,79,0.00,,,1.35,111.00,VWS V14.00,2013-08-18 22:00:00,
2013-08-18 17:01:00,82.0,74.8,29.88,NW,316,0.0,4.0,79,0.00,,,1.35,104.00,VWS V14.00,2013-08-18 22:01:00,
2013-08-18 17:02:00,82.0,74.8,29.88,NW,316,0.0,4.0,79,0.00,,,1.35,100.00,VWS V14.00,2013-08-18 22:02:00,
2013-08-18 17:03:00,82.0,74.8,29.88,NW,316,0.0,4.0,79,0.00,,,1.35,93.00,VWS V14.00,2013-08-18 22:03:00,
2013-08-18 17:04:00,81.8,74.7,29.88,NW,315,1.0,4.0,79,0.00,,,1.35,91.00,VWS V14.00,2013-08-18 22:04:00,
2013-08-18 17:05:00,81.8,74.7,29.88,SSW,198,2.0,5.0,79,0.00,,,1.35,95.00,VWS V14.00,2013-08-18 22:05:00,
2013-08-18 17:06:00,81.8,74.7,29.88,South,189,2.0,5.0,79,0.00,,,1.35,95.00,VWS V14.00,2013-08-18 22:06:00,
2013-08-18 17:07:00,81.8,74.7,29.88,SW,232,2.0,5.0,79,0.00,,,1.35,95.00,VWS V14.00,2013-08-18 22:07:00,
2013-08-18 17:08:00,81.8,74.7,29.88,SW,225,1.0,5.0,79,0.00,,,1.35,88.00,VWS V14.00,2013-08-18 22:08:00,
2013-08-18 17:09:00,81.8,74.7,29.88,SSE,162,1.0,5.0,79,0.00,,,1.35,84.00,VWS V14.00,2013-08-18 22:09:00,
2013-08-18 17:10:00,81.8,75.0,29.88,SW,215,1.0,5.0,80,0.00,,,1.35,83.00,VWS V14.00,2013-08-18 22:10:00,
2013-08-18 17:11:00,81.8,75.0,29.88,SW,216,0.0,5.0,80,0.00,,,1.35,81.00,VWS V14.00,2013-08-18 22:11:00,
2013-08-18 17:12:00,81.6,74.8,29.88,West,275,2.0,5.0,80,0.00,,,1.35,81.00,VWS V14.00,2013-08-18 22:12:00,
2013-08-18 17:13:00,81.6,74.8,29.88,SW,223,0.0,5.0,80,0.00,,,1.35,81.00,VWS V14.00,2013-08-18 22:13:00,
2013-08-18 17:14:00,81.6,74.8,29.88,WSW,238,1.0,5.0,80,0.00,,,1.35,79.00,VWS V14.00,2013-08-18 22:14:00,
2013-08-18 17:15:00,81.6,74.8,29.88,WSW,251,0.0,5.0,80,0.00,,,1.35,79.00,VWS V14.00,2013-08-18 22:15:00,
2013-08-18 17:16:00,81.6,74.8,29.88,West,275,2.0,7.0,80,0.00,,,1.35,79.00,VWS V14.00,2013-08-18 22:16:00,
2013-08-18 17:17:00,81.4,74.6,29.88,West,278,3.0,7.0,80,0.00,,,1.35,79.00,VWS V14.00,2013-08-18 22:17:00,
2013-08-18 17:18:00,81.4,74.6,29.88,WSW,246,5.0,7.0,80,0.00,,,1.35,79.00,VWS V14.00,2013-08-18 22:18:00,
2013-08-18 17:19:00,81.4,74.6,29.88,NW,324,0.0,7.0,80,0.00,,,1.35,77.00,VWS V14.00,2013-08-18 22:19:00,
2013-08-18 17:20:00,81.2,74.4,29.88,NW,306,0.0,7.0,80,0.00,,,1.35,77.00,VWS V14.00,2013-08-18 22:20:00,
2013-08-18 17:21:00,81.2,74.4,29.88,SW,230,3.0,7.0,80,0.00,,,1.35,76.00,VWS V14.00,2013-08-18 22:21:00,
2013-08-18 17:22:00,81.2,74.8,29.88,West,274,3.0,7.0,81,0.00,,,1.35,72.00,VWS V14.00,2013-08-18 22:22:00,
2013-08-18 17:23:00,81.2,74.8,29.88,West,279,1.0,7.0,81,0.00,,,1.35,70.00,VWS V14.00,2013-08-18 22:23:00,
2013-08-18 17:24:00,81.2,74.8,29.88,SSW,205,2.0,7.0,81,0.00,,,1.35,70.00,VWS V14.00,2013-08-18 22:24:00,
2013-08-18 17:25:00,81.1,74.7,29.88,WNW,293,3.0,7.0,81,0.00,,,1.35,69.00,VWS V14.00,2013-08-18 22:25:00,
2013-08-18 17:26:00,81.1,74.7,29.88,West,272,2.0,7.0,81,0.00,,,1.35,69.00,VWS V14.00,2013-08-18 22:26:00,
2013-08-18 17:27:00,81.1,74.7,29.88,SSW,201,1.0,7.0,81,0.00,,,1.35,65.00,VWS V14.00,2013-08-18 22:27:00,
2013-08-18 17:28:00,80.9,74.5,29.88,SSW,196,1.0,7.0,81,0.00,,,1.35,63.00,VWS V14.00,2013-08-18 22:28:00,
2013-08-18 17:29:00,80.9,74.5,29.88,SSW,200,1.0,7.0,81,0.00,,,1.35,62.00,VWS V14.00,2013-08-18 22:29:00,
2013-08-18 17:30:00,80.9,74.5,29.88,SSW,196,2.0,7.0,81,0.00,,,1.35,62.00,VWS V14.00,2013-08-18 22:30:00,
2013-08-18 17:31:00,80.9,74.5,29.88,WNW,302,2.0,8.0,81,0.00,,,1.35,60.00,VWS V14.00,2013-08-18 22:31:00,
2013-08-18 17:32:00,80.7,74.3,29.88,WSW,255,1.0,8.0,81,0.00,,,1.35,58.00,VWS V14.00,2013-08-18 22:32:00,
2013-08-18 17:33:00,80.7,74.3,29.88,SW,215,3.0,8.0,81,0.00,,,1.35,54.00,VWS V14.00,2013-08-18 22:33:00,
2013-08-18 17:34:00,80.7,74.3,29.88,West,264,3.0,8.0,81,0.00,,,1.35,53.00,VWS V14.00,2013-08-18 22:34:00,
2013-08-18 17:35:00,80.5,74.1,29.88,West,277,4.0,8.0,81,0.00,,,1.35,53.00,VWS V14.00,2013-08-18 22:35:00,
2013-08-18 17:36:00,80.5,74.1,29.88,SSW,210,1.0,8.0,81,0.00,,,1.35,51.00,VWS V14.00,2013-08-18 22:36:00,
2013-08-18 17:37:00,80.5,74.5,29.88,SSW,210,1.0,8.0,82,0.00,,,1.35,49.00,VWS V14.00,2013-08-18 22:37:00,
2013-08-18 17:38:00,80.5,74.5,29.88,WNW,300,2.0,8.0,82,0.00,,,1.35,47.00,VWS V14.00,2013-08-18 22:38:00,
2013-08-18 17:39:00,80.3,74.3,29.88,WSW,240,2.0,8.0,82,0.00,,,1.35,44.00,VWS V14.00,2013-08-18 22:39:00,
2013-08-18 17:40:00,80.3,74.3,29.88,NW,313,3.0,8.0,82,0.00,,,1.35,42.00,VWS V14.00,2013-08-18 22:40:00,
2013-08-18 17:41:00,80.3,74.3,29.88,SW,216,3.0,8.0,82,0.00,,,1.35,40.00,VWS V14.00,2013-08-18 22:41:00,
2013-08-18 17:42:00,80.3,74.3,29.88,West,261,2.0,8.0,82,0.00,,,1.35,39.00,VWS V14.00,2013-08-18 22:42:00,
2013-08-18 17:43:00,80.3,74.3,29.88,WNW,298,3.0,8.0,82,0.00,,,1.35,37.00,VWS V14.00,2013-08-18 22:43:00,
2013-08-18 17:44:00,80.1,74.1,29.88,NW,325,3.0,8.0,82,0.00,,,1.35,33.00,VWS V14.00,2013-08-18 22:44:00,
2013-08-18 17:45:00,80.1,74.5,29.88,NW,319,0.0,8.0,83,0.00,,,1.35,32.00,VWS V14.00,2013-08-18 22:45:00,
2013-08-18 17:46:00,80.1,74.5,29.88,SW,225,3.0,8.0,83,0.00,,,1.35,32.00,VWS V14.00,2013-08-18 22:46:00,
2013-08-18 17:47:00,80.1,74.5,29.88,WSW,254,1.0,8.0,83,0.00,,,1.35,30.00,VWS V14.00,2013-08-18 22:47:00,
2013-08-18 17:48:00,80.1,74.5,29.88,WSW,254,0.0,8.0,83,0.00,,,1.35,28.00,VWS V14.00,2013-08-18 22:48:00,
2013-08-18 17:49:00,79.9,74.3,29.88,WSW,257,1.0,8.0,83,0.00,,,1.35,26.00,VWS V14.00,2013-08-18 22:49:00,
2013-08-18 17:50:00,79.9,74.3,29.88,WSW,255,0.0,8.0,83,0.00,,,1.35,25.00,VWS V14.00,2013-08-18 22:50:00,
2013-08-18 17:51:00,79.9,74.3,29.88,WSW,255,0.0,8.0,83,0.00,,,1.35,23.00,VWS V14.00,2013-08-18 22:51:00,
2013-08-18 17:52:00,79.9,74.6,29.88,WSW,255,0.0,8.0,84,0.00,,,1.35,21.00,VWS V14.00,2013-08-18 22:52:00,
2013-08-18 17:53:00,79.9,74.6,29.88,WSW,255,0.0,8.0,84,0.00,,,1.35,19.00,VWS V14.00,2013-08-18 22:53:00,
2013-08-18 17:54:00,79.9,74.6,29.88,WSW,255,1.0,8.0,84,0.00,,,1.35,18.00,VWS V14.00,2013-08-18 22:54:00,
2013-08-18 17:55:00,79.8,74.5,29.88,WSW,255,1.0,8.0,84,0.00,,,1.35,16.00,VWS V14.00,2013-08-18 22:55:00,
2013-08-18 17:56:00,79.8,74.5,29.88,WSW,255,0.0,8.0,84,0.00,,,1.35,12.00,VWS V14.00,2013-08-18 22:56:00,
2013-08-18 17:57:00,79.8,74.5,29.88,WSW,255,0.0,8.0,84,0.00,,,1.35,12.00,VWS V14.00,2013-08-18 22:57:00,
2013-08-18 17:58:00,79.8,74.5,29.88,WSW,255,0.0,8.0,84,0.00,,,1.35,11.00,VWS V14.00,2013-08-18 22:58:00,
2013-08-18 17:59:00,79.8,74.5,29.88,WSW,255,1.0,8.0,84,0.00,,,1.35,11.00,VWS V14.00,2013-08-18 22:59:00,
2013-08-18 18:00:00,79.8,74.9,29.89,WSW,256,1.0,8.0,85,0.00,,,1.35,9.00,VWS V14.00,2013-08-18 23:00:00,
2013-08-18 18:01:00,79.6,74.7,29.89,SW,232,0.0,3.0,85,0.00,,,1.35,7.00,VWS V14.00,2013-08-18 23:01:00,
2013-08-18 18:02:00,79.6,74.7,29.89,SW,232,0.0,3.0,85,0.00,,,1.35,7.00,VWS V14.00,2013-08-18 23:02:00,
2013-08-18 18:03:00,79.6,74.7,29.89,SW,233,0.0,3.0,85,0.00,,,1.35,7.00,VWS V14.00,2013-08-18 23:03:00,
2013-08-18 18:04:00,79.6,74.7,29.89,SW,233,0.0,3.0,85,0.00,,,1.35,7.00,VWS V14.00,2013-08-18 23:04:00,
2013-08-18 18:05:00,79.6,74.7,29.89,SW,233,0.0,3.0,85,0.00,,,1.35,7.00,VWS V14.00,2013-08-18 23:05:00,
2013-08-18 18:06:00,79.6,74.7,29.89,SW,233,0.0,3.0,85,0.00,,,1.35,9.00,VWS V14.00,2013-08-18 23:06:00,
2013-08-18 18:07:00,79.4,74.5,29.89,SW,233,0.0,3.0,85,0.00,,,1.35,9.00,VWS V14.00,2013-08-18 23:07:00,
2013-08-18 18:08:00,79.4,74.5,29.89,SW,233,0.0,3.0,85,0.00,,,1.35,9.00,VWS V14.00,2013-08-18 23:08:00,
2013-08-18 18:09:00,79.4,74.8,29.89,SW,233,0.0,3.0,86,0.00,,,1.35,9.00,VWS V14.00,2013-08-18 23:09:00,
2013-08-18 18:10:00,79.4,74.8,29.89,SW,233,0.0,3.0,86,0.00,,,1.35,9.00,VWS V14.00,2013-08-18 23:10:00,
2013-08-18 18:11:00,79.4,74.8,29.89,SW,233,0.0,3.0,86,0.00,,,1.35,9.00,VWS V14.00,2013-08-18 23:11:00,
2013-08-18 18:12:00,79.4,74.8,29.89,SW,233,0.0,3.0,86,0.00,,,1.35,9.00,VWS V14.00,2013-08-18 23:12:00,
2013-08-18 18:13:00,79.4,74.8,29.89,SW,233,0.0,3.0,86,0.00,,,1.35,9.00,VWS V14.00,2013-08-18 23:13:00,
2013-08-18 18:14:00,79.2,75.0,29.90,SW,233,0.0,3.0,87,0.00,,,1.35,9.00,VWS V14.00,2013-08-18 23:14:00,
2013-08-18 18:15:00,79.2,75.0,29.90,SW,233,0.0,3.0,87,0.00,,,1.35,7.00,VWS V14.00,2013-08-18 23:15:00,
2013-08-18 18:16:00,79.2,75.0,29.90,SW,233,0.0,3.0,87,0.00,,,1.35,7.00,VWS V14.00,2013-08-18 23:16:00,
2013-08-18 18:17:00,79.2,75.0,29.90,SW,233,0.0,3.0,87,0.00,,,1.35,9.00,VWS V14.00,2013-08-18 23:17:00,
2013-08-18 18:18:00,79.2,75.0,29.90,SW,233,0.0,3.0,87,0.00,,,1.35,11.00,VWS V14.00,2013-08-18 23:18:00,
2013-08-18 18:19:00,79.2,75.0,29.90,SW,233,0.0,3.0,87,0.00,,,1.35,11.00,VWS V14.00,2013-08-18 23:19:00,
2013-08-18 18:20:00,79.0,74.8,29.90,SW,233,0.0,3.0,87,0.00,,,1.35,11.00,VWS V14.00,2013-08-18 23:20:00,
2013-08-18 18:21:00,79.0,74.8,29.90,SW,233,1.0,3.0,87,0.00,,,1.35,11.00,VWS V14.00,2013-08-18 23:21:00,
2013-08-18 18:22:00,79.0,74.8,29.90,SW,233,0.0,3.0,87,0.00,,,1.35,11.00,VWS V14.00,2013-08-18 23:22:00,
2013-08-18 18:23:00,79.0,74.8,29.90,SW,233,0.0,3.0,87,0.00,,,1.35,11.00,VWS V14.00,2013-08-18 23:23:00,
2013-08-18 18:24:00,79.0,74.8,29.90,SW,233,0.0,3.0,87,0.00,,,1.35,11.00,VWS V14.00,2013-08-18 23:24:00,
2013-08-18 18:25:00,78.8,74.6,29.90,SW,233,0.0,3.0,87,0.00,,,1.35,9.00,VWS V14.00,2013-08-18 23:25:00,
2013-08-18 18:26:00,78.8,74.9,29.90,SW,233,0.0,3.0,88,0.00,,,1.35,9.00,VWS V14.00,2013-08-18 23:26:00,
2013-08-18 18:27:00,78.8,74.9,29.90,SW,233,0.0,3.0,88,0.00,,,1.35,7.00,VWS V14.00,2013-08-18 23:27:00,
2013-08-18 18:28:00,78.8,74.9,29.90,SW,233,0.0,3.0,88,0.00,,,1.35,5.00,VWS V14.00,2013-08-18 23:28:00,
2013-08-18 18:29:00,78.8,74.9,29.89,SW,233,0.0,3.0,88,0.00,,,1.35,0.00,VWS V14.00,2013-08-18 23:29:00,
2013-08-18 18:30:00,78.6,74.8,29.89,SW,233,0.0,3.0,88,0.00,,,1.35,0.00,VWS V14.00,2013-08-18 23:30:00,
2013-08-18 18:31:00,78.6,74.8,29.89,SW,233,0.0,0.0,88,0.00,,,1.35,0.00,VWS V14.00,2013-08-18 23:31:00,
2013-08-18 18:32:00,78.6,74.8,29.89,SW,233,0.0,0.0,88,0.00,,,1.35,0.00,VWS V14.00,2013-08-18 23:32:00,
2013-08-18 18:33:00,78.6,74.8,29.89,SW,233,0.0,0.0,88,0.00,,,1.35,0.00,VWS V14.00,2013-08-18 23:33:00,
2013-08-18 18:34:00,78.6,74.8,29.89,SW,233,0.0,0.0,88,0.00,,,1.35,0.00,VWS V14.00,2013-08-18 23:34:00,
2013-08-18 18:35:00,78.5,74.7,29.89,SW,233,0.0,0.0,88,0.00,,,1.35,0.00,VWS V14.00,2013-08-18 23:35:00,
2013-08-18 18:36:00,78.5,74.7,29.89,SW,233,0.0,0.0,88,0.00,,,1.35,0.00,VWS V14.00,2013-08-18 23:36:00,
2013-08-18 18:37:00,78.5,74.7,29.89,SW,233,0.0,0.0,88,0.00,,,1.35,0.00,VWS V14.00,2013-08-18 23:37:00,
2013-08-18 18:38:00,78.5,75.0,29.89,SW,233,0.0,0.0,89,0.00,,,1.35,0.00,VWS V14.00,2013-08-18 23:38:00,
2013-08-18 18:39:00,78.5,75.0,29.89,SW,233,0.0,0.0,89,0.00,,,1.35,0.00,VWS V14.00,2013-08-18 23:39:00,
2013-08-18 18:40:00,78.3,74.8,29.89,SW,233,0.0,0.0,89,0.00,,,1.35,0.00,VWS V14.00,2013-08-18 23:40:00,
2013-08-18 18:41:00,78.3,74.8,29.89,SW,233,0.0,0.0,89,0.00,,,1.35,0.00,VWS V14.00,2013-08-18 23:41:00,
2013-08-18 18:42:00,78.3,74.8,29.89,SW,233,0.0,0.0,89,0.00,,,1.35,0.00,VWS V14.00,2013-08-18 23:42:00,
2013-08-18 18:43:00,78.3,74.8,29.89,SW,233,0.0,0.0,89,0.00,,,1.35,0.00,VWS V14.00,2013-08-18 23:43:00,
2013-08-18 18:44:00,78.1,74.6,29.89,SW,233,0.0,0.0,89,0.00,,,1.35,0.00,VWS V14.00,2013-08-18 23:44:00,
2013-08-18 18:45:00,78.1,74.6,29.89,SW,233,0.0,0.0,89,0.00,,,1.35,0.00,VWS V14.00,2013-08-18 23:45:00,
2013-08-18 18:46:00,78.1,74.6,29.89,SW,233,0.0,0.0,89,0.00,,,1.35,0.00,VWS V14.00,2013-08-18 23:46:00,
2013-08-18 18:47:00,78.1,74.6,29.89,SW,233,0.0,0.0,89,0.00,,,1.35,0.00,VWS V14.00,2013-08-18 23:47:00,
2013-08-18 18:48:00,78.1,74.6,29.89,SW,233,0.0,0.0,89,0.00,,,1.35,0.00,VWS V14.00,2013-08-18 23:48:00,
2013-08-18 18:49:00,78.1,74.6,29.89,SW,233,0.0,0.0,89,0.00,,,1.35,0.00,VWS V14.00,2013-08-18 23:49:00,
2013-08-18 18:50:00,77.9,74.4,29.89,SW,233,0.0,0.0,89,0.00,,,1.35,0.00,VWS V14.00,2013-08-18 23:50:00,
2013-08-18 18:51:00,77.9,74.4,29.89,SW,233,0.0,0.0,89,0.00,,,1.35,0.00,VWS V14.00,2013-08-18 23:51:00,
2013-08-18 18:52:00,77.9,74.4,29.89,SW,233,0.0,0.0,89,0.00,,,1.35,0.00,VWS V14.00,2013-08-18 23:52:00,
2013-08-18 18:53:00,77.9,74.4,29.89,SW,233,0.0,0.0,89,0.00,,,1.35,0.00,VWS V14.00,2013-08-18 23:53:00,
2013-08-18 18:54:00,77.7,74.2,29.89,SW,233,0.0,0.0,89,0.00,,,1.35,0.00,VWS V14.00,2013-08-18 23:54:00,
2013-08-18 18:55:00,77.7,74.2,29.89,SW,233,0.0,0.0,89,0.00,,,1.35,0.00,VWS V14.00,2013-08-18 23:55:00,
2013-08-18 18:56:00,77.7,74.5,29.89,SW,233,0.0,0.0,90,0.00,,,1.35,0.00,VWS V14.00,2013-08-18 23:56:00,
2013-08-18 18:57:00,77.6,74.4,29.89,SW,233,0.0,0.0,90,0.00,,,1.35,0.00,VWS V14.00,2013-08-18 23:57:00,
2013-08-18 18:58:00,77.6,74.4,29.89,SW,233,0.0,0.0,90,0.00,,,1.35,0.00,VWS V14.00,2013-08-18 23:58:00,
2013-08-18 18:59:00,77.6,74.4,29.90,SW,233,0.0,0.0,90,0.00,,,1.35,0.00,VWS V14.00,2013-08-18 23:59:00,
2013-08-18 19:00:00,77.6,74.4,29.90,SW,233,0.0,0.0,90,0.00,,,1.35,0.00,VWS V14.00,2013-08-19 00:00:00,
2013-08-18 19:01:00,77.4,74.2,29.90,SW,233,0.0,0.0,90,0.00,,,1.35,0.00,VWS V14.00,2013-08-19 00:01:00,
2013-08-18 19:02:00,77.4,74.2,29.90,SW,233,0.0,0.0,90,0.00,,,1.35,0.00,VWS V14.00,2013-08-19 00:02:00,
2013-08-18 19:03:00,77.4,74.2,29.90,SW,233,0.0,0.0,90,0.00,,,1.35,0.00,VWS V14.00,2013-08-19 00:03:00,
2013-08-18 19:04:00,77.4,74.2,29.90,SW,233,0.0,0.0,90,0.00,,,1.35,0.00,VWS V14.00,2013-08-19 00:04:00,
2013-08-18 19:05:00,77.2,74.4,29.90,SW,233,0.0,0.0,91,0.00,,,1.35,0.00,VWS V14.00,2013-08-19 00:05:00,
2013-08-18 19:06:00,77.2,74.4,29.90,SW,233,0.0,0.0,91,0.00,,,1.35,0.00,VWS V14.00,2013-08-19 00:06:00,
2013-08-18 19:07:00,77.2,74.4,29.90,SW,233,0.0,0.0,91,0.00,,,1.35,0.00,VWS V14.00,2013-08-19 00:07:00,
2013-08-18 19:08:00,77.2,74.4,29.90,SW,233,0.0,0.0,91,0.00,,,1.35,0.00,VWS V14.00,2013-08-19 00:08:00,
2013-08-18 19:09:00,77.2,74.4,29.90,SW,233,0.0,0.0,91,0.00,,,1.35,0.00,VWS V14.00,2013-08-19 00:09:00,
2013-08-18 19:10:00,77.2,74.4,29.90,SW,233,0.0,0.0,91,0.00,,,1.35,0.00,VWS V14.00,2013-08-19 00:10:00,
2013-08-18 19:11:00,77.0,74.2,29.90,SW,233,0.0,0.0,91,0.00,,,1.35,0.00,VWS V14.00,2013-08-19 00:11:00,
2013-08-18 19:12:00,77.0,74.2,29.90,SW,233,0.0,0.0,91,0.00,,,1.35,0.00,VWS V14.00,2013-08-19 00:12:00,
2013-08-18 19:13:00,77.0,74.2,29.90,SW,233,0.0,0.0,91,0.00,,,1.35,0.00,VWS V14.00,2013-08-19 00:13:00,
2013-08-18 19:14:00,77.0,74.2,29.91,SW,233,0.0,0.0,91,0.00,,,1.35,0.00,VWS V14.00,2013-08-19 00:14:00,
2013-08-18 19:15:00,77.0,74.2,29.91,SW,233,0.0,0.0,91,0.00,,,1.35,0.00,VWS V14.00,2013-08-19 00:15:00,
2013-08-18 19:16:00,76.8,74.0,29.91,SW,233,0.0,0.0,91,0.00,,,1.35,0.00,VWS V14.00,2013-08-19 00:16:00,
2013-08-18 19:17:00,76.8,74.0,29.91,SW,233,0.0,0.0,91,0.00,,,1.35,0.00,VWS V14.00,2013-08-19 00:17:00,
2013-08-18 19:18:00,76.8,74.0,29.91,SW,233,0.0,0.0,91,0.00,,,1.35,0.00,VWS V14.00,2013-08-19 00:18:00,
2013-08-18 19:19:00,76.8,74.0,29.91,SW,233,0.0,0.0,91,0.00,,,1.35,0.00,VWS V14.00,2013-08-19 00:19:00,
2013-08-18 19:20:00,76.8,74.0,29.91,SW,233,0.0,0.0,91,0.00,,,1.35,0.00,VWS V14.00,2013-08-19 00:20:00,
2013-08-18 19:21:00,76.8,74.0,29.91,SW,233,0.0,0.0,91,0.00,,,1.35,0.00,VWS V14.00,2013-08-19 00:21:00,
2013-08-18 19:22:00,76.7,73.9,29.91,SW,233,0.0,0.0,91,0.00,,,1.35,0.00,VWS V14.00,2013-08-19 00:22:00,
2013-08-18 19:23:00,76.7,73.9,29.91,SW,233,0.0,0.0,91,0.00,,,1.35,0.00,VWS V14.00,2013-08-19 00:23:00,
2013-08-18 19:24:00,76.7,73.9,29.91,SW,233,0.0,0.0,91,0.00,,,1.35,0.00,VWS V14.00,2013-08-19 00:24:00,
2013-08-18 19:25:00,76.7,73.9,29.91,SW,233,0.0,0.0,91,0.00,,,1.35,0.00,VWS V14.00,2013-08-19 00:25:00,
2013-08-18 19:26:00,76.7,73.9,29.91,SW,233,0.0,0.0,91,0.00,,,1.35,0.00,VWS V14.00,2013-08-19 00:26:00,
2013-08-18 19:27:00,76.5,73.7,29.91,SW,233,0.0,0.0,91,0.00,,,1.35,0.00,VWS V14.00,2013-08-19 00:27:00,
2013-08-18 19:28:00,76.5,74.0,29.91,SW,233,0.0,0.0,92,0.00,,,1.35,0.00,VWS V14.00,2013-08-19 00:28:00,
2013-08-18 19:29:00,76.5,74.0,29.91,SW,233,0.0,0.0,92,0.00,,,1.35,0.00,VWS V14.00,2013-08-19 00:29:00,
2013-08-18 19:30:00,76.5,74.0,29.91,SW,233,0.0,0.0,92,0.00,,,1.35,0.00,VWS V14.00,2013-08-19 00:30:00,
2013-08-18 19:31:00,76.5,74.0,29.91,SW,233,0.0,0.0,92,0.00,,,1.35,0.00,VWS V14.00,2013-08-19 00:31:00,
2013-08-18 19:32:00,76.3,73.8,29.91,SW,233,0.0,0.0,92,0.00,,,1.35,0.00,VWS V14.00,2013-08-19 00:32:00,
2013-08-18 19:33:00,76.3,73.8,29.91,SW,233,0.0,0.0,92,0.00,,,1.35,0.00,VWS V14.00,2013-08-19 00:33:00,
2013-08-18 19:34:00,76.3,73.8,29.91,SW,233,0.0,0.0,92,0.00,,,1.35,0.00,VWS V14.00,2013-08-19 00:34:00,
2013-08-18 19:35:00,76.3,73.8,29.91,SW,233,0.0,0.0,92,0.00,,,1.35,0.00,VWS V14.00,2013-08-19 00:35:00,
2013-08-18 19:36:00,76.3,73.8,29.91,SW,233,0.0,0.0,92,0.00,,,1.35,0.00,VWS V14.00,2013-08-19 00:36:00,
2013-08-18 19:37:00,76.3,73.8,29.91,SW,233,0.0,0.0,92,0.00,,,1.35,0.00,VWS V14.00,2013-08-19 00:37:00,
2013-08-18 19:38:00,76.1,73.6,29.91,SW,233,0.0,0.0,92,0.00,,,1.35,0.00,VWS V14.00,2013-08-19 00:38:00,
2013-08-18 19:39:00,76.1,73.6,29.91,SW,233,0.0,0.0,92,0.00,,,1.35,0.00,VWS V14.00,2013-08-19 00:39:00,
2013-08-18 19:40:00,76.1,73.6,29.91,SW,233,0.0,0.0,92,0.00,,,1.35,0.00,VWS V14.00,2013-08-19 00:40:00,
2013-08-18 19:41:00,76.1,73.6,29.91,SW,233,0.0,0.0,92,0.00,,,1.35,0.00,VWS V14.00,2013-08-19 00:41:00,
2013-08-18 19:42:00,76.1,73.6,29.91,SW,233,0.0,0.0,92,0.00,,,1.35,0.00,VWS V14.00,2013-08-19 00:42:00,
2013-08-18 19:43:00,76.0,73.5,29.91,SW,233,0.0,0.0,92,0.00,,,1.35,0.00,VWS V14.00,2013-08-19 00:43:00,
2013-08-18 19:44:00,76.0,73.5,29.91,SW,233,0.0,0.0,92,0.00,,,1.35,0.00,VWS V14.00,2013-08-19 00:44:00,
2013-08-18 19:45:00,76.0,73.5,29.91,SW,233,0.0,0.0,92,0.00,,,1.35,0.00,VWS V14.00,2013-08-19 00:45:00,
2013-08-18 19:46:00,76.0,73.8,29.91,SW,233,0.0,0.0,93,0.00,,,1.35,0.00,VWS V14.00,2013-08-19 00:46:00,
2013-08-18 19:47:00,76.0,73.8,29.91,SW,233,0.0,0.0,93,0.00,,,1.35,0.00,VWS V14.00,2013-08-19 00:47:00,
2013-08-18 19:48:00,76.0,73.8,29.91,SW,233,0.0,0.0,93,0.00,,,1.35,0.00,VWS V14.00,2013-08-19 00:48:00,
2013-08-18 19:49:00,75.8,73.6,29.91,SW,233,0.0,0.0,93,0.00,,,1.35,0.00,VWS V14.00,2013-08-19 00:49:00,
2013-08-18 19:50:00,75.8,73.6,29.91,SW,233,0.0,0.0,93,0.00,,,1.35,0.00,VWS V14.00,2013-08-19 00:50:00,
2013-08-18 19:51:00,75.8,73.6,29.91,SW,233,0.0,0.0,93,0.00,,,1.35,0.00,VWS V14.00,2013-08-19 00:51:00,
2013-08-18 19:52:00,75.8,73.6,29.91,SW,233,0.0,0.0,93,0.00,,,1.35,0.00,VWS V14.00,2013-08-19 00:52:00,
2013-08-18 19:53:00,75.8,73.6,29.91,SW,233,0.0,0.0,93,0.00,,,1.35,0.00,VWS V14.00,2013-08-19 00:53:00,
2013-08-18 19:54:00,75.8,73.6,29.91,SW,233,0.0,0.0,93,0.00,,,1.35,0.00,VWS V14.00,2013-08-19 00:54:00,
2013-08-18 19:55:00,75.6,73.4,29.91,SW,233,0.0,0.0,93,0.00,,,1.35,0.00,VWS V14.00,2013-08-19 00:55:00,
2013-08-18 19:56:00,75.6,73.4,29.91,SW,233,0.0,0.0,93,0.00,,,1.35,0.00,VWS V14.00,2013-08-19 00:56:00,
2013-08-18 19:57:00,75.6,73.4,29.91,SW,233,0.0,0.0,93,0.00,,,1.35,0.00,VWS V14.00,2013-08-19 00:57:00,
2013-08-18 19:58:00,75.6,73.4,29.91,SW,233,0.0,0.0,93,0.00,,,1.35,0.00,VWS V14.00,2013-08-19 00:58:00,
2013-08-18 19:59:00,75.6,73.4,29.91,SW,233,0.0,0.0,93,0.00,,,1.35,0.00,VWS V14.00,2013-08-19 00:59:00,
2013-08-18 20:00:00,75.6,73.4,29.91,SW,233,0.0,0.0,93,0.00,,,1.35,0.00,VWS V14.00,2013-08-19 01:00:00,
2013-08-18 20:01:00,75.4,73.2,29.91,SW,233,0.0,0.0,93,0.00,,,1.35,0.00,VWS V14.00,2013-08-19 01:01:00,
2013-08-18 20:02:00,75.4,73.2,29.91,SW,233,0.0,0.0,93,0.00,,,1.35,0.00,VWS V14.00,2013-08-19 01:02:00,
2013-08-18 20:03:00,75.4,73.2,29.91,SW,233,0.0,0.0,93,0.00,,,1.35,0.00,VWS V14.00,2013-08-19 01:03:00,
2013-08-18 20:04:00,75.4,73.2,29.91,SW,233,0.0,0.0,93,0.00,,,1.35,0.00,VWS V14.00,2013-08-19 01:04:00,
2013-08-18 20:05:00,75.4,73.2,29.91,SW,233,0.0,0.0,93,0.00,,,1.35,0.00,VWS V14.00,2013-08-19 01:05:00,
2013-08-18 20:06:00,75.4,73.6,29.91,SW,233,0.0,0.0,94,0.00,,,1.35,0.00,VWS V14.00,2013-08-19 01:06:00,
2013-08-18 20:07:00,75.3,73.5,29.91,SW,233,0.0,0.0,94,0.00,,,1.35,0.00,VWS V14.00,2013-08-19 01:07:00,
2013-08-18 20:08:00,75.3,73.5,29.91,SW,233,0.0,0.0,94,0.00,,,1.35,0.00,VWS V14.00,2013-08-19 01:08:00,
2013-08-18 20:09:00,75.3,73.5,29.91,SW,233,0.0,0.0,94,0.00,,,1.35,0.00,VWS V14.00,2013-08-19 01:09:00,
2013-08-18 20:10:00,75.3,73.5,29.91,SW,233,0.0,0.0,94,0.00,,,1.35,0.00,VWS V14.00,2013-08-19 01:10:00,
2013-08-18 20:11:00,75.3,73.5,29.91,SW,233,0.0,0.0,94,0.00,,,1.35,0.00,VWS V14.00,2013-08-19 01:11:00,
2013-08-18 20:12:00,75.3,73.5,29.91,SW,233,0.0,0.0,94,0.00,,,1.35,0.00,VWS V14.00,2013-08-19 01:12:00,
2013-08-18 20:13:00,75.1,73.3,29.91,SW,233,0.0,0.0,94,0.00,,,1.35,0.00,VWS V14.00,2013-08-19 01:13:00,
2013-08-18 20:14:00,75.1,73.3,29.92,SW,233,0.0,0.0,94,0.00,,,1.35,0.00,VWS V14.00,2013-08-19 01:14:00,
2013-08-18 20:15:00,75.1,73.3,29.92,SW,233,0.0,0.0,94,0.00,,,1.35,0.00,VWS V14.00,2013-08-19 01:15:00,
2013-08-18 20:16:00,75.1,73.3,29.92,SW,233,0.0,0.0,94,0.00,,,1.35,0.00,VWS V14.00,2013-08-19 01:16:00,
2013-08-18 20:17:00,75.1,73.3,29.92,SW,233,0.0,0.0,94,0.00,,,1.35,0.00,VWS V14.00,2013-08-19 01:17:00,
2013-08-18 20:18:00,75.1,73.3,29.92,SW,233,0.0,0.0,94,0.00,,,1.35,0.00,VWS V14.00,2013-08-19 01:18:00,
2013-08-18 20:19:00,75.1,73.3,29.92,SW,233,0.0,0.0,94,0.00,,,1.35,0.00,VWS V14.00,2013-08-19 01:19:00,
2013-08-18 20:20:00,74.9,73.1,29.92,SW,233,0.0,0.0,94,0.00,,,1.35,0.00,VWS V14.00,2013-08-19 01:20:00,
2013-08-18 20:21:00,74.9,73.1,29.92,SW,233,0.0,0.0,94,0.00,,,1.35,0.00,VWS V14.00,2013-08-19 01:21:00,
2013-08-18 20:22:00,74.9,73.1,29.92,SW,233,0.0,0.0,94,0.00,,,1.35,0.00,VWS V14.00,2013-08-19 01:22:00,
2013-08-18 20:23:00,74.9,73.1,29.92,SW,233,0.0,0.0,94,0.00,,,1.35,0.00,VWS V14.00,2013-08-19 01:23:00,
2013-08-18 20:24:00,74.9,73.1,29.92,SW,233,0.0,0.0,94,0.00,,,1.35,0.00,VWS V14.00,2013-08-19 01:24:00,
2013-08-18 20:25:00,74.9,73.1,29.92,SW,233,0.0,0.0,94,0.00,,,1.35,0.00,VWS V14.00,2013-08-19 01:25:00,
2013-08-18 20:26:00,74.9,73.1,29.92,SW,233,0.0,0.0,94,0.00,,,1.35,0.00,VWS V14.00,2013-08-19 01:26:00,
2013-08-18 20:27:00,74.9,73.1,29.92,SW,233,0.0,0.0,94,0.00,,,1.35,0.00,VWS V14.00,2013-08-19 01:27:00,
2013-08-18 20:28:00,74.7,72.9,29.92,SW,233,0.0,0.0,94,0.00,,,1.35,0.00,VWS V14.00,2013-08-19 01:28:00,
2013-08-18 20:29:00,74.7,72.9,29.92,SW,233,0.0,0.0,94,0.00,,,1.35,0.00,VWS V14.00,2013-08-19 01:29:00,
2013-08-18 20:30:00,74.7,72.9,29.92,SW,233,0.0,0.0,94,0.00,,,1.35,0.00,VWS V14.00,2013-08-19 01:30:00,
2013-08-18 20:31:00,74.7,72.9,29.92,SW,233,0.0,0.0,94,0.00,,,1.35,0.00,VWS V14.00,2013-08-19 01:31:00,
2013-08-18 20:32:00,74.7,72.9,29.92,SW,233,0.0,0.0,94,0.00,,,1.35,0.00,VWS V14.00,2013-08-19 01:32:00,
2013-08-18 20:33:00,74.7,72.9,29.92,SW,233,0.0,0.0,94,0.00,,,1.35,0.00,VWS V14.00,2013-08-19 01:33:00,
2013-08-18 20:34:00,74.7,72.9,29.92,SW,233,0.0,0.0,94,0.00,,,1.35,0.00,VWS V14.00,2013-08-19 01:34:00,
2013-08-18 20:35:00,74.7,72.9,29.92,SW,233,0.0,0.0,94,0.00,,,1.35,0.00,VWS V14.00,2013-08-19 01:35:00,
2013-08-18 20:36:00,74.6,72.8,29.92,SW,233,0.0,0.0,94,0.00,,,1.35,0.00,VWS V14.00,2013-08-19 01:36:00,
2013-08-18 20:37:00,74.6,73.1,29.92,SW,233,0.0,0.0,95,0.00,,,1.35,0.00,VWS V14.00,2013-08-19 01:37:00,
2013-08-18 20:38:00,74.6,72.8,29.92,SW,233,0.0,0.0,94,0.00,,,1.35,0.00,VWS V14.00,2013-08-19 01:38:00,
2013-08-18 20:39:00,74.6,73.1,29.92,SW,233,0.0,0.0,95,0.00,,,1.35,0.00,VWS V14.00,2013-08-19 01:39:00,
2013-08-18 20:40:00,74.6,73.1,29.92,SW,233,0.0,0.0,95,0.00,,,1.35,0.00,VWS V14.00,2013-08-19 01:40:00,
2013-08-18 20:41:00,74.6,73.1,29.92,SW,233,0.0,0.0,95,0.00,,,1.35,0.00,VWS V14.00,2013-08-19 01:41:00,
2013-08-18 20:42:00,74.6,73.1,29.92,SW,233,0.0,0.0,95,0.00,,,1.35,0.00,VWS V14.00,2013-08-19 01:42:00,
2013-08-18 20:43:00,74.6,73.1,29.92,SW,233,0.0,0.0,95,0.00,,,1.35,0.00,VWS V14.00,2013-08-19 01:43:00,
2013-08-18 20:44:00,74.6,73.1,29.92,SW,233,0.0,0.0,95,0.00,,,1.35,0.00,VWS V14.00,2013-08-19 01:44:00,
2013-08-18 20:45:00,74.6,73.1,29.92,SW,233,0.0,0.0,95,0.00,,,1.35,0.00,VWS V14.00,2013-08-19 01:45:00,
2013-08-18 20:46:00,74.6,73.1,29.92,SW,233,0.0,0.0,95,0.00,,,1.35,0.00,VWS V14.00,2013-08-19 01:46:00,
2013-08-18 20:47:00,74.6,73.1,29.92,SW,233,0.0,0.0,95,0.00,,,1.35,0.00,VWS V14.00,2013-08-19 01:47:00,
2013-08-18 20:48:00,74.6,73.1,29.92,SW,233,0.0,0.0,95,0.00,,,1.35,0.00,VWS V14.00,2013-08-19 01:48:00,
2013-08-18 20:49:00,74.4,72.9,29.92,SW,233,0.0,0.0,95,0.00,,,1.35,0.00,VWS V14.00,2013-08-19 01:49:00,
2013-08-18 20:50:00,74.4,72.9,29.92,SW,233,0.0,0.0,95,0.00,,,1.35,0.00,VWS V14.00,2013-08-19 01:50:00,
2013-08-18 20:51:00,74.4,72.9,29.92,SW,233,0.0,0.0,95,0.00,,,1.35,0.00,VWS V14.00,2013-08-19 01:51:00,
2013-08-18 20:52:00,74.4,72.9,29.92,SW,233,0.0,0.0,95,0.00,,,1.35,0.00,VWS V14.00,2013-08-19 01:52:00,
2013-08-18 20:53:00,74.4,72.9,29.92,SW,233,0.0,0.0,95,0.00,,,1.35,0.00,VWS V14.00,2013-08-19 01:53:00,
2013-08-18 20:54:00,74.4,72.9,29.92,SW,233,0.0,0.0,95,0.00,,,1.35,0.00,VWS V14.00,2013-08-19 01:54:00,
2013-08-18 20:55:00,74.4,72.9,29.92,SW,233,0.0,0.0,95,0.00,,,1.35,0.00,VWS V14.00,2013-08-19 01:55:00,
2013-08-18 20:56:00,74.4,72.9,29.92,SW,233,0.0,0.0,95,0.00,,,1.35,0.00,VWS V14.00,2013-08-19 01:56:00,
2013-08-18 20:57:00,74.2,72.7,29.92,SW,233,0.0,0.0,95,0.00,,,1.35,0.00,VWS V14.00,2013-08-19 01:57:00,
2013-08-18 20:58:00,74.2,72.7,29.92,SW,233,0.0,0.0,95,0.00,,,1.35,0.00,VWS V14.00,2013-08-19 01:58:00,
2013-08-18 20:59:00,74.2,72.7,29.93,SW,233,0.0,0.0,95,0.00,,,1.35,0.00,VWS V14.00,2013-08-19 01:59:00,
2013-08-18 21:00:00,74.2,72.7,29.93,SW,233,0.0,0.0,95,0.00,,,1.35,0.00,VWS V14.00,2013-08-19 02:00:00,
2013-08-18 21:01:00,74.2,72.7,29.93,SW,233,0.0,0.0,95,0.00,,,1.35,0.00,VWS V14.00,2013-08-19 02:01:00,
2013-08-18 21:02:00,74.2,72.7,29.93,SW,233,0.0,0.0,95,0.00,,,1.35,0.00,VWS V14.00,2013-08-19 02:02:00,
2013-08-18 21:03:00,74.2,72.7,29.93,SW,233,0.0,0.0,95,0.00,,,1.35,0.00,VWS V14.00,2013-08-19 02:03:00,
2013-08-18 21:04:00,74.2,73.0,29.93,SW,233,0.0,0.0,96,0.00,,,1.35,0.00,VWS V14.00,2013-08-19 02:04:00,
2013-08-18 21:05:00,74.2,72.7,29.93,SW,233,0.0,0.0,95,0.00,,,1.35,0.00,VWS V14.00,2013-08-19 02:05:00,
2013-08-18 21:06:00,74.2,72.7,29.93,SW,233,0.0,0.0,95,0.00,,,1.35,0.00,VWS V14.00,2013-08-19 02:06:00,
2013-08-18 21:07:00,74.2,73.0,29.93,SW,233,0.0,0.0,96,0.00,,,1.35,0.00,VWS V14.00,2013-08-19 02:07:00,
2013-08-18 21:08:00,74.2,73.0,29.93,SW,233,0.0,0.0,96,0.00,,,1.35,0.00,VWS V14.00,2013-08-19 02:08:00,
2013-08-18 21:09:00,74.2,73.0,29.93,SW,233,0.0,0.0,96,0.00,,,1.35,0.00,VWS V14.00,2013-08-19 02:09:00,
2013-08-18 21:10:00,74.0,72.8,29.93,SW,233,0.0,0.0,96,0.00,,,1.35,0.00,VWS V14.00,2013-08-19 02:10:00,
2013-08-18 21:11:00,74.0,72.8,29.93,SW,233,0.0,0.0,96,0.00,,,1.35,0.00,VWS V14.00,2013-08-19 02:11:00,
2013-08-18 21:12:00,74.0,72.8,29.93,SW,233,0.0,0.0,96,0.00,,,1.35,0.00,VWS V14.00,2013-08-19 02:12:00,
2013-08-18 21:13:00,74.0,72.8,29.93,SW,233,0.0,0.0,96,0.00,,,1.35,0.00,VWS V14.00,2013-08-19 02:13:00,
2013-08-18 21:14:00,74.0,72.8,29.93,SW,233,0.0,0.0,96,0.00,,,1.35,0.00,VWS V14.00,2013-08-19 02:14:00,
2013-08-18 21:15:00,74.0,72.8,29.93,SW,233,0.0,0.0,96,0.00,,,1.35,0.00,VWS V14.00,2013-08-19 02:15:00,
2013-08-18 21:16:00,74.0,72.8,29.93,SW,233,0.0,0.0,96,0.00,,,1.35,0.00,VWS V14.00,2013-08-19 02:16:00,
2013-08-18 21:17:00,74.0,72.8,29.93,SW,233,0.0,0.0,96,0.00,,,1.35,0.00,VWS V14.00,2013-08-19 02:17:00,
2013-08-18 21:18:00,74.0,72.8,29.93,SW,233,0.0,0.0,96,0.00,,,1.35,0.00,VWS V14.00,2013-08-19 02:18:00,
2013-08-18 21:19:00,74.0,72.8,29.93,SW,233,0.0,0.0,96,0.00,,,1.35,0.00,VWS V14.00,2013-08-19 02:19:00,
2013-08-18 21:20:00,74.0,72.8,29.93,SW,233,0.0,0.0,96,0.00,,,1.35,0.00,VWS V14.00,2013-08-19 02:20:00,
2013-08-18 21:21:00,73.9,72.7,29.93,SW,233,0.0,0.0,96,0.00,,,1.35,0.00,VWS V14.00,2013-08-19 02:21:00,
2013-08-18 21:22:00,73.9,72.7,29.93,SW,233,0.0,0.0,96,0.00,,,1.35,0.00,VWS V14.00,2013-08-19 02:22:00,
2013-08-18 21:23:00,73.9,72.7,29.93,SW,233,0.0,0.0,96,0.00,,,1.35,0.00,VWS V14.00,2013-08-19 02:23:00,
2013-08-18 21:24:00,73.9,72.7,29.93,SW,233,0.0,0.0,96,0.00,,,1.35,0.00,VWS V14.00,2013-08-19 02:24:00,
2013-08-18 21:25:00,73.9,72.7,29.93,SW,233,0.0,0.0,96,0.00,,,1.35,0.00,VWS V14.00,2013-08-19 02:25:00,
2013-08-18 21:26:00,73.9,72.7,29.93,SW,233,0.0,0.0,96,0.00,,,1.35,0.00,VWS V14.00,2013-08-19 02:26:00,
2013-08-18 21:27:00,73.9,72.7,29.93,SW,233,0.0,0.0,96,0.00,,,1.35,0.00,VWS V14.00,2013-08-19 02:27:00,
2013-08-18 21:28:00,73.9,72.7,29.93,SW,233,0.0,0.0,96,0.00,,,1.35,0.00,VWS V14.00,2013-08-19 02:28:00,
2013-08-18 21:29:00,73.9,72.7,29.93,SW,233,0.0,0.0,96,0.00,,,1.35,0.00,VWS V14.00,2013-08-19 02:29:00,
2013-08-18 21:30:00,73.9,72.7,29.93,SW,233,0.0,0.0,96,0.00,,,1.35,0.00,VWS V14.00,2013-08-19 02:30:00,
2013-08-18 21:31:00,73.9,72.7,29.93,SW,233,0.0,0.0,96,0.00,,,1.35,0.00,VWS V14.00,2013-08-19 02:31:00,
2013-08-18 21:32:00,73.9,72.7,29.93,SW,233,0.0,0.0,96,0.00,,,1.35,0.00,VWS V14.00,2013-08-19 02:32:00,
2013-08-18 21:33:00,73.9,72.7,29.93,SW,233,0.0,0.0,96,0.00,,,1.35,0.00,VWS V14.00,2013-08-19 02:33:00,
2013-08-18 21:34:00,73.7,72.5,29.93,SW,233,0.0,0.0,96,0.00,,,1.35,0.00,VWS V14.00,2013-08-19 02:34:00,
2013-08-18 21:35:00,73.7,72.5,29.93,SW,233,0.0,0.0,96,0.00,,,1.35,0.00,VWS V14.00,2013-08-19 02:35:00,
2013-08-18 21:36:00,73.7,72.5,29.93,SW,233,0.0,0.0,96,0.00,,,1.35,0.00,VWS V14.00,2013-08-19 02:36:00,
2013-08-18 21:37:00,73.7,72.5,29.93,SW,233,0.0,0.0,96,0.00,,,1.35,0.00,VWS V14.00,2013-08-19 02:37:00,
2013-08-18 21:38:00,73.7,72.5,29.93,SW,233,0.0,0.0,96,0.00,,,1.35,0.00,VWS V14.00,2013-08-19 02:38:00,
2013-08-18 21:39:00,73.7,72.5,29.93,SW,233,0.0,0.0,96,0.00,,,1.35,0.00,VWS V14.00,2013-08-19 02:39:00,
2013-08-18 21:40:00,73.7,72.5,29.93,SW,233,0.0,0.0,96,0.00,,,1.35,0.00,VWS V14.00,2013-08-19 02:40:00,
2013-08-18 21:41:00,73.7,72.5,29.93,SW,233,0.0,0.0,96,0.00,,,1.35,0.00,VWS V14.00,2013-08-19 02:41:00,
2013-08-18 21:42:00,73.7,72.5,29.93,SW,233,0.0,0.0,96,0.00,,,1.35,0.00,VWS V14.00,2013-08-19 02:42:00,
2013-08-18 21:43:00,73.7,72.5,29.93,SW,233,0.0,0.0,96,0.00,,,1.35,0.00,VWS V14.00,2013-08-19 02:43:00,
2013-08-18 21:44:00,73.7,72.5,29.93,SW,233,0.0,0.0,96,0.00,,,1.35,0.00,VWS V14.00,2013-08-19 02:44:00,
2013-08-18 21:45:00,73.7,72.8,29.93,SW,233,0.0,0.0,97,0.00,,,1.35,0.00,VWS V14.00,2013-08-19 02:45:00,
2013-08-18 21:46:00,73.7,72.8,29.93,SW,233,0.0,0.0,97,0.00,,,1.35,0.00,VWS V14.00,2013-08-19 02:46:00,
2013-08-18 21:47:00,73.7,72.8,29.93,SW,233,0.0,0.0,97,0.00,,,1.35,0.00,VWS V14.00,2013-08-19 02:47:00,
2013-08-18 21:48:00,73.5,72.6,29.93,SW,233,0.0,0.0,97,0.00,,,1.35,0.00,VWS V14.00,2013-08-19 02:48:00,
2013-08-18 21:49:00,73.5,72.6,29.93,SW,233,0.0,0.0,97,0.00,,,1.35,0.00,VWS V14.00,2013-08-19 02:49:00,
2013-08-18 21:50:00,73.5,72.6,29.93,SW,233,0.0,0.0,97,0.00,,,1.35,0.00,VWS V14.00,2013-08-19 02:50:00,
2013-08-18 21:51:00,73.5,72.6,29.93,SW,233,0.0,0.0,97,0.00,,,1.35,0.00,VWS V14.00,2013-08-19 02:51:00,
2013-08-18 21:52:00,73.5,72.6,29.93,SW,233,0.0,0.0,97,0.00,,,1.35,0.00,VWS V14.00,2013-08-19 02:52:00,
2013-08-18 21:53:00,73.5,72.6,29.93,SW,233,0.0,0.0,97,0.00,,,1.35,0.00,VWS V14.00,2013-08-19 02:53:00,
2013-08-18 21:54:00,73.5,72.6,29.93,SW,233,0.0,0.0,97,0.00,,,1.35,0.00,VWS V14.00,2013-08-19 02:54:00,
2013-08-18 21:55:00,73.5,72.6,29.93,SW,233,0.0,0.0,97,0.00,,,1.35,0.00,VWS V14.00,2013-08-19 02:55:00,
2013-08-18 21:56:00,73.5,72.6,29.93,SW,233,0.0,0.0,97,0.00,,,1.35,0.00,VWS V14.00,2013-08-19 02:56:00,
2013-08-18 21:57:00,73.5,72.6,29.93,SW,233,0.0,0.0,97,0.00,,,1.35,0.00,VWS V14.00,2013-08-19 02:57:00,
2013-08-18 21:58:00,73.5,72.6,29.93,SW,233,0.0,0.0,97,0.00,,,1.35,0.00,VWS V14.00,2013-08-19 02:58:00,
2013-08-18 21:59:00,73.5,72.6,29.93,SW,233,0.0,0.0,97,0.00,,,1.35,0.00,VWS V14.00,2013-08-19 02:59:00,
2013-08-18 22:00:00,73.5,72.6,29.93,SW,233,0.0,0.0,97,0.00,,,1.35,0.00,VWS V14.00,2013-08-19 03:00:00,
2013-08-18 22:01:00,73.3,72.4,29.93,SW,233,0.0,0.0,97,0.00,,,1.35,0.00,VWS V14.00,2013-08-19 03:01:00,
2013-08-18 22:02:00,73.3,72.4,29.93,SW,233,0.0,0.0,97,0.00,,,1.35,0.00,VWS V14.00,2013-08-19 03:02:00,
2013-08-18 22:03:00,73.3,72.4,29.93,SW,233,0.0,0.0,97,0.00,,,1.35,0.00,VWS V14.00,2013-08-19 03:03:00,
2013-08-18 22:04:00,73.3,72.4,29.93,SW,233,0.0,0.0,97,0.00,,,1.35,0.00,VWS V14.00,2013-08-19 03:04:00,
2013-08-18 22:05:00,73.3,72.4,29.93,SW,233,0.0,0.0,97,0.00,,,1.35,0.00,VWS V14.00,2013-08-19 03:05:00,
2013-08-18 22:06:00,73.3,72.4,29.93,SW,233,0.0,0.0,97,0.00,,,1.35,0.00,VWS V14.00,2013-08-19 03:06:00,
2013-08-18 22:07:00,73.3,72.4,29.93,SW,233,0.0,0.0,97,0.00,,,1.35,0.00,VWS V14.00,2013-08-19 03:07:00,
2013-08-18 22:08:00,73.3,72.4,29.93,SW,233,0.0,0.0,97,0.00,,,1.35,0.00,VWS V14.00,2013-08-19 03:08:00,
2013-08-18 22:09:00,73.3,72.4,29.93,SW,233,0.0,0.0,97,0.00,,,1.35,0.00,VWS V14.00,2013-08-19 03:09:00,
2013-08-18 22:10:00,73.3,72.4,29.93,SW,233,0.0,0.0,97,0.00,,,1.35,0.00,VWS V14.00,2013-08-19 03:10:00,
2013-08-18 22:11:00,73.3,72.4,29.93,SW,233,0.0,0.0,97,0.00,,,1.35,0.00,VWS V14.00,2013-08-19 03:11:00,
2013-08-18 22:12:00,73.3,72.4,29.93,SW,233,0.0,0.0,97,0.00,,,1.35,0.00,VWS V14.00,2013-08-19 03:12:00,
2013-08-18 22:13:00,73.3,72.4,29.93,SW,233,0.0,0.0,97,0.00,,,1.35,0.00,VWS V14.00,2013-08-19 03:13:00,
2013-08-18 22:14:00,73.3,72.4,29.93,SW,233,0.0,0.0,97,0.00,,,1.35,0.00,VWS V14.00,2013-08-19 03:14:00,
2013-08-18 22:15:00,73.3,72.4,29.93,SW,233,0.0,0.0,97,0.00,,,1.35,0.00,VWS V14.00,2013-08-19 03:15:00,
2013-08-18 22:16:00,73.2,72.3,29.93,SW,233,0.0,0.0,97,0.00,,,1.35,0.00,VWS V14.00,2013-08-19 03:16:00,
2013-08-18 22:17:00,73.2,72.3,29.93,SW,233,0.0,0.0,97,0.00,,,1.35,0.00,VWS V14.00,2013-08-19 03:17:00,
2013-08-18 22:18:00,73.2,72.3,29.93,SW,233,0.0,0.0,97,0.00,,,1.35,0.00,VWS V14.00,2013-08-19 03:18:00,
2013-08-18 22:19:00,73.2,72.3,29.93,SW,233,0.0,0.0,97,0.00,,,1.35,0.00,VWS V14.00,2013-08-19 03:19:00,
2013-08-18 22:20:00,73.2,72.3,29.93,SW,233,0.0,0.0,97,0.00,,,1.35,0.00,VWS V14.00,2013-08-19 03:20:00,
2013-08-18 22:21:00,73.2,72.3,29.93,SW,233,0.0,0.0,97,0.00,,,1.35,0.00,VWS V14.00,2013-08-19 03:21:00,
2013-08-18 22:22:00,73.2,72.3,29.93,SW,233,0.0,0.0,97,0.00,,,1.35,0.00,VWS V14.00,2013-08-19 03:22:00,
2013-08-18 22:23:00,73.2,72.3,29.93,SW,233,0.0,0.0,97,0.00,,,1.35,0.00,VWS V14.00,2013-08-19 03:23:00,
2013-08-18 22:24:00,73.2,72.3,29.93,SW,233,0.0,0.0,97,0.00,,,1.35,0.00,VWS V14.00,2013-08-19 03:24:00,
2013-08-18 22:25:00,73.0,72.1,29.93,SW,233,0.0,0.0,97,0.00,,,1.35,0.00,VWS V14.00,2013-08-19 03:25:00,
2013-08-18 22:26:00,73.0,72.1,29.93,SW,233,0.0,0.0,97,0.00,,,1.35,0.00,VWS V14.00,2013-08-19 03:26:00,
2013-08-18 22:27:00,73.0,72.1,29.93,SW,233,0.0,0.0,97,0.00,,,1.35,0.00,VWS V14.00,2013-08-19 03:27:00,
2013-08-18 22:28:00,73.0,72.1,29.93,SW,233,0.0,0.0,97,0.00,,,1.35,0.00,VWS V14.00,2013-08-19 03:28:00,
2013-08-18 22:29:00,73.0,72.1,29.93,SW,233,0.0,0.0,97,0.00,,,1.35,0.00,VWS V14.00,2013-08-19 03:29:00,
2013-08-18 22:30:00,73.0,72.1,29.93,SW,233,0.0,0.0,97,0.00,,,1.35,0.00,VWS V14.00,2013-08-19 03:30:00,
2013-08-18 22:31:00,72.8,71.9,29.93,SW,233,0.0,0.0,97,0.00,,,1.35,0.00,VWS V14.00,2013-08-19 03:31:00,
2013-08-18 22:32:00,72.8,71.9,29.93,SW,233,0.0,0.0,97,0.00,,,1.35,0.00,VWS V14.00,2013-08-19 03:32:00,
2013-08-18 22:33:00,72.8,71.9,29.93,SW,233,0.0,0.0,97,0.00,,,1.35,0.00,VWS V14.00,2013-08-19 03:33:00,
2013-08-18 22:34:00,72.8,71.9,29.93,SW,233,0.0,0.0,97,0.00,,,1.35,0.00,VWS V14.00,2013-08-19 03:34:00,
2013-08-18 22:35:00,72.8,71.9,29.93,SW,233,0.0,0.0,97,0.00,,,1.35,0.00,VWS V14.00,2013-08-19 03:35:00,
2013-08-18 22:36:00,72.8,71.9,29.93,SW,233,0.0,0.0,97,0.00,,,1.35,0.00,VWS V14.00,2013-08-19 03:36:00,
2013-08-18 22:37:00,72.8,71.9,29.93,SW,233,0.0,0.0,97,0.00,,,1.35,0.00,VWS V14.00,2013-08-19 03:37:00,
2013-08-18 22:38:00,72.8,71.9,29.93,SW,233,0.0,0.0,97,0.00,,,1.35,0.00,VWS V14.00,2013-08-19 03:38:00,
2013-08-18 22:39:00,72.8,71.9,29.93,SW,233,0.0,0.0,97,0.00,,,1.35,0.00,VWS V14.00,2013-08-19 03:39:00,
2013-08-18 22:40:00,72.8,71.9,29.93,SW,233,0.0,0.0,97,0.00,,,1.35,0.00,VWS V14.00,2013-08-19 03:40:00,
2013-08-18 22:41:00,72.8,71.9,29.93,SW,233,0.0,0.0,97,0.00,,,1.35,0.00,VWS V14.00,2013-08-19 03:41:00,
2013-08-18 22:42:00,72.7,71.8,29.93,SW,233,0.0,0.0,97,0.00,,,1.35,0.00,VWS V14.00,2013-08-19 03:42:00,
2013-08-18 22:43:00,72.7,71.8,29.93,SW,233,0.0,0.0,97,0.00,,,1.35,0.00,VWS V14.00,2013-08-19 03:43:00,
2013-08-18 22:44:00,72.7,71.8,29.93,SW,233,0.0,0.0,97,0.00,,,1.35,0.00,VWS V14.00,2013-08-19 03:44:00,
2013-08-18 22:45:00,72.7,71.8,29.93,SW,233,0.0,0.0,97,0.00,,,1.35,0.00,VWS V14.00,2013-08-19 03:45:00,
2013-08-18 22:46:00,72.7,71.8,29.93,SW,233,0.0,0.0,97,0.00,,,1.35,0.00,VWS V14.00,2013-08-19 03:46:00,
2013-08-18 22:47:00,72.7,71.8,29.93,SW,233,0.0,0.0,97,0.00,,,1.35,0.00,VWS V14.00,2013-08-19 03:47:00,
2013-08-18 22:48:00,72.7,71.8,29.93,SW,233,0.0,0.0,97,0.00,,,1.35,0.00,VWS V14.00,2013-08-19 03:48:00,
2013-08-18 22:49:00,72.7,71.8,29.93,SW,233,0.0,0.0,97,0.00,,,1.35,0.00,VWS V14.00,2013-08-19 03:49:00,
2013-08-18 22:50:00,72.7,71.8,29.93,SW,233,0.0,0.0,97,0.00,,,1.35,0.00,VWS V14.00,2013-08-19 03:50:00,
2013-08-18 22:51:00,72.7,71.8,29.93,SW,233,0.0,0.0,97,0.00,,,1.35,0.00,VWS V14.00,2013-08-19 03:51:00,
2013-08-18 22:52:00,72.7,71.8,29.93,SW,233,0.0,0.0,97,0.00,,,1.35,0.00,VWS V14.00,2013-08-19 03:52:00,
2013-08-18 22:53:00,72.7,71.8,29.93,SW,233,0.0,0.0,97,0.00,,,1.35,0.00,VWS V14.00,2013-08-19 03:53:00,
2013-08-18 22:54:00,72.7,71.8,29.93,SW,233,0.0,0.0,97,0.00,,,1.35,0.00,VWS V14.00,2013-08-19 03:54:00,
2013-08-18 22:55:00,72.7,71.8,29.93,SW,233,0.0,0.0,97,0.00,,,1.35,0.00,VWS V14.00,2013-08-19 03:55:00,
2013-08-18 22:56:00,72.7,71.8,29.93,SW,233,0.0,0.0,97,0.00,,,1.35,0.00,VWS V14.00,2013-08-19 03:56:00,
2013-08-18 22:57:00,72.5,71.6,29.93,SW,233,0.0,0.0,97,0.00,,,1.35,0.00,VWS V14.00,2013-08-19 03:57:00,
2013-08-18 22:58:00,72.5,71.6,29.93,SW,233,0.0,0.0,97,0.00,,,1.35,0.00,VWS V14.00,2013-08-19 03:58:00,
2013-08-18 22:59:00,72.5,71.6,29.93,SW,233,0.0,0.0,97,0.00,,,1.35,0.00,VWS V14.00,2013-08-19 03:59:00,
2013-08-18 23:00:00,72.5,71.6,29.93,SW,233,0.0,0.0,97,0.00,,,1.35,0.00,VWS V14.00,2013-08-19 04:00:00,
2013-08-18 23:01:00,72.5,71.6,29.93,SW,233,0.0,0.0,97,0.00,,,1.35,0.00,VWS V14.00,2013-08-19 04:01:00,
2013-08-18 23:02:00,72.5,71.6,29.93,SW,233,0.0,0.0,97,0.00,,,1.35,0.00,VWS V14.00,2013-08-19 04:02:00,
2013-08-18 23:03:00,72.5,71.6,29.93,SW,233,0.0,0.0,97,0.00,,,1.35,0.00,VWS V14.00,2013-08-19 04:03:00,
2013-08-18 23:04:00,72.5,71.6,29.93,SW,233,0.0,0.0,97,0.00,,,1.35,0.00,VWS V14.00,2013-08-19 04:04:00,
2013-08-18 23:05:00,72.5,71.6,29.93,SW,233,0.0,0.0,97,0.00,,,1.35,0.00,VWS V14.00,2013-08-19 04:05:00,
2013-08-18 23:06:00,72.3,71.4,29.93,SW,233,0.0,0.0,97,0.00,,,1.35,0.00,VWS V14.00,2013-08-19 04:06:00,
2013-08-18 23:07:00,72.3,71.4,29.93,SW,233,0.0,0.0,97,0.00,,,1.35,0.00,VWS V14.00,2013-08-19 04:07:00,
2013-08-18 23:08:00,72.3,71.4,29.93,SW,233,0.0,0.0,97,0.00,,,1.35,0.00,VWS V14.00,2013-08-19 04:08:00,
2013-08-18 23:09:00,72.3,71.4,29.93,SW,233,0.0,0.0,97,0.00,,,1.35,0.00,VWS V14.00,2013-08-19 04:09:00,
2013-08-18 23:10:00,72.3,71.4,29.93,SW,233,0.0,0.0,97,0.00,,,1.35,0.00,VWS V14.00,2013-08-19 04:10:00,
2013-08-18 23:11:00,72.3,71.4,29.93,SW,233,0.0,0.0,97,0.00,,,1.35,0.00,VWS V14.00,2013-08-19 04:11:00,
2013-08-18 23:12:00,72.3,71.7,29.93,SW,233,0.0,0.0,98,0.00,,,1.35,0.00,VWS V14.00,2013-08-19 04:12:00,
2013-08-18 23:13:00,72.1,71.5,29.93,SW,233,0.0,0.0,98,0.00,,,1.35,0.00,VWS V14.00,2013-08-19 04:13:00,
2013-08-18 23:14:00,72.1,71.5,29.93,SW,233,0.0,0.0,98,0.00,,,1.35,0.00,VWS V14.00,2013-08-19 04:14:00,
2013-08-18 23:15:00,72.1,71.5,29.93,SW,233,0.0,0.0,98,0.00,,,1.35,0.00,VWS V14.00,2013-08-19 04:15:00,
2013-08-18 23:16:00,72.1,71.5,29.93,SW,233,0.0,0.0,98,0.00,,,1.35,0.00,VWS V14.00,2013-08-19 04:16:00,
2013-08-18 23:17:00,72.1,71.5,29.93,SW,233,0.0,0.0,98,0.00,,,1.35,0.00,VWS V14.00,2013-08-19 04:17:00,
2013-08-18 23:18:00,72.1,71.5,29.93,SW,233,0.0,0.0,98,0.00,,,1.35,0.00,VWS V14.00,2013-08-19 04:18:00,
2013-08-18 23:19:00,72.1,71.5,29.93,SW,233,0.0,0.0,98,0.00,,,1.35,0.00,VWS V14.00,2013-08-19 04:19:00,
2013-08-18 23:20:00,72.1,71.5,29.93,SW,233,0.0,0.0,98,0.00,,,1.35,0.00,VWS V14.00,2013-08-19 04:20:00,
2013-08-18 23:21:00,72.1,71.5,29.93,SW,233,0.0,0.0,98,0.00,,,1.35,0.00,VWS V14.00,2013-08-19 04:21:00,
2013-08-18 23:22:00,72.1,71.5,29.93,SW,233,0.0,0.0,98,0.00,,,1.35,0.00,VWS V14.00,2013-08-19 04:22:00,
2013-08-18 23:23:00,72.1,71.5,29.93,SW,233,0.0,0.0,98,0.00,,,1.35,0.00,VWS V14.00,2013-08-19 04:23:00,
2013-08-18 23:24:00,72.1,71.5,29.93,SW,233,0.0,0.0,98,0.00,,,1.35,0.00,VWS V14.00,2013-08-19 04:24:00,
2013-08-18 23:25:00,72.1,71.5,29.93,SW,233,0.0,0.0,98,0.00,,,1.35,0.00,VWS V14.00,2013-08-19 04:25:00,
2013-08-18 23:26:00,72.1,71.5,29.93,SW,233,0.0,0.0,98,0.00,,,1.35,0.00,VWS V14.00,2013-08-19 04:26:00,
2013-08-18 23:27:00,72.1,71.5,29.93,SW,233,0.0,0.0,98,0.00,,,1.35,0.00,VWS V14.00,2013-08-19 04:27:00,
2013-08-18 23:28:00,72.1,71.5,29.93,SW,233,0.0,0.0,98,0.00,,,1.35,0.00,VWS V14.00,2013-08-19 04:28:00,
2013-08-18 23:29:00,72.1,71.5,29.93,SW,233,0.0,0.0,98,0.00,,,1.35,0.00,VWS V14.00,2013-08-19 04:29:00,
2013-08-18 23:30:00,72.1,71.5,29.93,SW,233,0.0,0.0,98,0.00,,,1.35,0.00,VWS V14.00,2013-08-19 04:30:00,
2013-08-18 23:31:00,72.0,71.4,29.93,SW,233,0.0,0.0,98,0.00,,,1.35,0.00,VWS V14.00,2013-08-19 04:31:00,
2013-08-18 23:32:00,72.0,71.4,29.93,SW,233,0.0,0.0,98,0.00,,,1.35,0.00,VWS V14.00,2013-08-19 04:32:00,
2013-08-18 23:33:00,72.0,71.4,29.93,SW,233,0.0,0.0,98,0.00,,,1.35,0.00,VWS V14.00,2013-08-19 04:33:00,
2013-08-18 23:34:00,72.0,71.4,29.93,SW,233,0.0,0.0,98,0.00,,,1.35,0.00,VWS V14.00,2013-08-19 04:34:00,
2013-08-18 23:35:00,72.0,71.4,29.93,SW,233,0.0,0.0,98,0.00,,,1.35,0.00,VWS V14.00,2013-08-19 04:35:00,
2013-08-18 23:36:00,72.0,71.4,29.93,SW,233,0.0,0.0,98,0.00,,,1.35,0.00,VWS V14.00,2013-08-19 04:36:00,
2013-08-18 23:37:00,72.0,71.4,29.93,SW,233,0.0,0.0,98,0.00,,,1.35,0.00,VWS V14.00,2013-08-19 04:37:00,
2013-08-18 23:38:00,72.0,71.4,29.93,SW,233,0.0,0.0,98,0.00,,,1.35,0.00,VWS V14.00,2013-08-19 04:38:00,
2013-08-18 23:39:00,71.8,71.2,29.93,SW,233,0.0,0.0,98,0.00,,,1.35,0.00,VWS V14.00,2013-08-19 04:39:00,
2013-08-18 23:40:00,71.8,71.2,29.93,SW,233,0.0,0.0,98,0.00,,,1.35,0.00,VWS V14.00,2013-08-19 04:40:00,
2013-08-18 23:41:00,71.8,71.2,29.93,SW,233,0.0,0.0,98,0.00,,,1.35,0.00,VWS V14.00,2013-08-19 04:41:00,
2013-08-18 23:42:00,71.8,71.2,29.93,SW,233,0.0,0.0,98,0.00,,,1.35,0.00,VWS V14.00,2013-08-19 04:42:00,
2013-08-18 23:43:00,71.8,71.2,29.93,SW,233,0.0,0.0,98,0.00,,,1.35,0.00,VWS V14.00,2013-08-19 04:43:00,
2013-08-18 23:44:00,71.8,71.2,29.93,SW,233,0.0,0.0,98,0.00,,,1.35,0.00,VWS V14.00,2013-08-19 04:44:00,
2013-08-18 23:45:00,71.8,71.2,29.93,SW,233,0.0,0.0,98,0.00,,,1.35,0.00,VWS V14.00,2013-08-19 04:45:00,
2013-08-18 23:46:00,71.8,71.2,29.93,SW,233,0.0,0.0,98,0.00,,,1.35,0.00,VWS V14.00,2013-08-19 04:46:00,
2013-08-18 23:47:00,71.8,71.2,29.93,SW,233,0.0,0.0,98,0.00,,,1.35,0.00,VWS V14.00,2013-08-19 04:47:00,
2013-08-18 23:48:00,71.6,71.0,29.93,SW,233,0.0,0.0,98,0.00,,,1.35,0.00,VWS V14.00,2013-08-19 04:48:00,
2013-08-18 23:49:00,71.6,71.0,29.93,SW,233,0.0,0.0,98,0.00,,,1.35,0.00,VWS V14.00,2013-08-19 04:49:00,
2013-08-18 23:50:00,71.6,71.0,29.93,SW,233,0.0,0.0,98,0.00,,,1.35,0.00,VWS V14.00,2013-08-19 04:50:00,
2013-08-18 23:51:00,71.6,71.0,29.93,SW,233,0.0,0.0,98,0.00,,,1.35,0.00,VWS V14.00,2013-08-19 04:51:00,
2013-08-18 23:52:00,71.6,71.0,29.93,SW,233,0.0,0.0,98,0.00,,,1.35,0.00,VWS V14.00,2013-08-19 04:52:00,
2013-08-18 23:53:00,71.6,71.0,29.93,SW,233,0.0,0.0,98,0.00,,,1.35,0.00,VWS V14.00,2013-08-19 04:53:00,
2013-08-18 23:54:00,71.6,71.0,29.93,SW,233,0.0,0.0,98,0.00,,,1.35,0.00,VWS V14.00,2013-08-19 04:54:00,
2013-08-18 23:55:00,71.5,70.9,29.93,SW,233,0.0,0.0,98,0.00,,,1.35,0.00,VWS V14.00,2013-08-19 04:55:00,
2013-08-18 23:56:00,71.5,70.9,29.93,SW,233,0.0,0.0,98,0.00,,,1.35,0.00,VWS V14.00,2013-08-19 04:56:00,
2013-08-18 23:57:00,71.5,70.9,29.93,SW,233,0.0,0.0,98,0.00,,,1.35,0.00,VWS V14.00,2013-08-19 04:57:00,
2013-08-18 23:58:00,71.5,70.9,29.93,SW,233,0.0,0.0,98,0.00,,,1.35,0.00,VWS V14.00,2013-08-19 04:58:00,
2013-08-18 23:59:00,71.5,70.9,29.93,SW,233,0.0,0.0,98,0.00,,,1.35,0.00,VWS V14.00,2013-08-19 04:59:00,